[[{"header":{"parameterUnit":"m.s-1","parameterCategory":1,"la1":30.6,"la2":28.766,"lo1":-90.7593,"lo2":-88.6598,"dy":0.0162,"dx":0.0183,"nx":116,"ny":114,"refTime":"2023-04-11T18:00:00:Z","depth":0,"parameterNumber":2,"parameterNumberName":"U-component_of_WINDS"},"data":[0.0,0.0,0.0,0.0,0.0,0.0,0.0,0.0,0.0,0.0,0.0,0.0,0.0,0.0,0.0,0.0,0.0,0.0,0.0,0.0,0.0,0.0,0.0,0.0,0.0,0.0,0.0,0.0,0.0,0.0,0.0,0.0,0.0,0.0,0.0,0.0,0.0,0.0,0.0,0.0,0.0,0.0,0.0,0.0,0.0,0.0,0.0,0.0,0.0,0.0,0.0,0.0,0.0,0.0,0.0,0.0,0.0,0.0,0.0,0.0,0.0,0.0,0.0,0.0,0.0,0.0,0.0,0.0,0.0,0.0,0.0,0.0,0.0,0.0,0.0,0.0,0.0,0.0,0.0,0.0,0.0,0.0,0.0,0.0,0.0,0.0,0.0,0.0,0.0,0.0,0.0,0.0,0.0,0.0,0.0,0.0,0.0,0.0,0.0,0.0,0.0,0.0,0.0,0.0,0.0,0.0,0.0,0.0,0.0,0.0,0.0,0.0,0.0,0.0,0.0,0.0,0.0,0.0,0.0,0.0,0.0,0.0,0.0,0.0,0.0,0.0,0.0,0.0,0.0,0.0,0.0,0.0,0.0,0.0,0.0,0.0,0.0,0.0,0.0,0.0,0.0,0.0,0.0,0.0,0.0,0.0,0.0,0.0,0.0,0.0,0.0,0.0,0.0,0.0,0.0,0.0,0.0,0.0,0.0,0.0,0.0,0.0,0.0,0.0,0.0,0.0,0.0,0.0,0.0,0.0,0.0,0.0,0.0,0.0,0.0,0.0,0.0,0.0,0.0,0.0,0.0,0.0,0.0,0.0,0.0,0.0,0.0,0.0,0.0,0.0,0.0,0.0,0.0,0.0,0.0,0.0,0.0,0.0,0.0,0.0,0.0,0.0,0.0,0.0,0.0,0.0,0.0,0.0,0.0,0.0,0.0,0.0,0.0,0.0,0.0,0.0,0.0,0.0,0.0,0.0,0.0,0.0,0.0,0.0,0.0,0.0,0.0,0.0,0.0,0.0,0.0,0.0,0.0,0.0,0.0,0.0,0.0,0.0,0.0,0.0,0.0,0.0,0.0,0.0,0.0,0.0,0.0,0.0,0.0,0.0,0.0,0.0,0.0,0.0,0.0,0.0,0.0,0.0,0.0,0.0,0.0,0.0,0.0,0.0,0.0,0.0,0.0,0.0,0.0,0.0,0.0,0.0,0.0,0.0,0.0,0.0,0.0,0.0,0.0,0.0,0.0,0.0,0.0,0.0,0.0,0.0,0.0,0.0,0.0,0.0,0.0,0.0,0.0,0.0,0.0,0.0,0.0,0.0,0.0,0.0,0.0,0.0,0.0,0.0,0.0,0.0,0.0,0.0,0.0,0.0,0.0,0.0,0.0,0.0,0.0,0.0,0.0,0.0,0.0,0.0,0.0,0.0,0.0,0.0,0.0,0.0,0.0,0.0,0.0,0.0,0.0,0.0,0.0,0.0,0.0,0.0,0.0,0.0,0.0,0.0,0.0,0.0,0.0,0.0,0.0,0.0,0.0,0.0,0.0,0.0,0.0,0.0,0.0,0.0,0.0,0.0,0.0,0.0,0.0,0.0,0.0,0.0,0.0,0.0,0.0,0.0,0.0,0.0,0.0,0.0,0.0,0.0,0.0,0.0,0.0,0.0,0.0,0.0,0.0,0.0,0.0,0.0,0.0,0.0,0.0,0.0,0.0,0.0,0.0,0.0,0.0,0.0,0.0,0.0,0.0,0.0,0.0,0.0,0.0,0.0,0.0,0.0,0.0,0.0,0.0,0.0,0.0,0.0,0.0,0.0,0.0,0.0,0.0,0.0,0.0,0.0,0.0,0.0,0.0,0.0,0.0,0.0,0.0,0.0,0.0,0.0,0.0,0.0,0.0,0.0,0.0,0.0,0.0,0.0,0.0,0.0,0.0,0.0,0.0,0.0,0.0,0.0,0.0,0.0,0.0,0.0,0.0,0.0,0.0,0.0,0.0,0.0,0.0,0.0,0.0,0.0,0.0,0.0,0.0,0.0,0.0,0.0,0.0,0.0,0.0,0.0,0.0,0.0,0.0,0.0,0.0,0.0,0.0,0.0,0.0,0.0,0.0,0.0,0.0,0.0,0.0,0.0,0.0,0.0,0.0,0.0,0.0,0.0,0.0,0.0,0.0,0.0,0.0,0.0,0.0,0.0,0.0,0.0,0.0,0.0,0.0,0.0,0.0,0.0,0.0,0.0,0.0,0.0,0.0,0.0,0.0,0.0,0.0,0.0,0.0,0.0,0.0,0.0,0.0,0.0,0.0,0.0,0.0,0.0,0.0,0.0,0.0,0.0,0.0,0.0,0.0,0.0,0.0,0.0,0.0,0.0,0.0,0.0,0.0,0.0,0.0,0.0,0.0,0.0,0.0,0.0,0.0,0.0,0.0,0.0,0.0,0.0,0.0,0.0,0.0,0.0,0.0,0.0,0.0,0.0,0.0,0.0,0.0,0.0,0.0,0.0,0.0,0.0,0.0,0.0,0.0,0.0,0.0,0.0,0.0,0.0,0.0,0.0,0.0,0.0,0.0,0.0,0.0,0.0,0.0,0.0,0.0,0.0,0.0,0.0,0.0,0.0,0.0,0.0,0.0,0.0,0.0,0.0,0.0,0.0,0.0,0.0,0.0,0.0,0.0,0.0,0.0,0.0,0.0,0.0,0.0,0.0,0.0,0.0,0.0,0.0,0.0,0.0,0.0,0.0,0.0,0.0,0.0,0.0,0.0,0.0,0.0,0.0,0.0,0.0,0.0,0.0,0.0,0.0,0.0,0.0,0.0,0.0,0.0,0.0,0.0,0.0,0.0,0.0,0.0,0.0,0.0,0.0,0.0,0.0,0.0,0.0,0.0,0.0,0.0,0.0,0.0,0.0,0.0,0.0,0.0,0.0,0.0,0.0,0.0,0.0,0.0,0.0,0.0,0.0,0.0,0.0,0.0,0.0,0.0,0.0,0.0,0.0,0.0,0.0,0.0,0.0,0.0,0.0,0.0,0.0,0.0,0.0,0.0,0.0,0.0,0.0,0.0,0.0,0.0,0.0,0.0,0.0,0.0,0.0,0.0,0.0,0.0,0.0,0.0,0.0,0.0,0.0,0.0,0.0,0.0,0.0,0.0,0.0,0.0,0.0,0.0,0.0,0.0,0.0,0.0,0.0,0.0,0.0,0.0,0.0,0.0,0.0,0.0,0.0,0.0,0.0,0.0,0.0,0.0,0.0,0.0,0.0,0.0,0.0,0.0,0.0,0.0,0.0,0.0,0.0,0.0,0.0,0.0,0.0,0.0,0.0,0.0,0.0,0.0,0.0,0.0,0.0,0.0,0.0,0.0,0.0,0.0,0.0,0.0,0.0,0.0,0.0,0.0,0.0,0.0,0.0,0.0,0.0,0.0,0.0,0.0,0.0,0.0,0.0,0.0,0.0,0.0,0.0,0.0,0.0,0.0,0.0,0.0,0.0,0.0,0.0,0.0,0.0,0.0,0.0,0.0,0.0,0.0,0.0,0.0,0.0,0.0,0.0,0.0,0.0,0.0,0.0,0.0,0.0,0.0,0.0,0.0,0.0,0.0,0.0,0.0,0.0,0.0,0.0,0.0,0.0,0.0,0.0,0.0,0.0,0.0,0.0,0.0,0.0,0.0,0.0,0.0,0.0,0.0,0.0,0.0,0.0,0.0,0.0,0.0,0.0,0.0,0.0,0.0,0.0,0.0,0.0,0.0,0.0,0.0,0.0,0.0,0.0,0.0,0.0,0.0,0.0,0.0,0.0,0.0,0.0,0.0,0.0,0.0,0.0,0.0,0.0,0.0,0.0,0.0,0.0,0.0,0.0,0.0,0.0,0.0,0.0,0.0,0.0,0.0,0.0,0.0,0.0,0.0,0.0,0.0,0.0,0.0,0.0,0.0,0.0,0.0,0.0,0.0,0.0,0.0,0.0,0.0,0.0,0.0,0.0,0.0,0.0,0.0,0.0,0.0,0.0,0.0,0.0,0.0,0.0,0.0,0.0,0.0,0.0,0.0,0.0,0.0,0.0,0.0,0.0,0.0,0.0,0.0,0.0,0.0,0.0,0.0,0.0,0.0,0.0,0.0,0.0,0.0,0.0,0.0,0.0,0.0,0.0,0.0,0.0,0.0,0.0,0.0,0.0,0.0,0.0,0.0,0.0,0.0,0.0,0.0,0.0,0.0,0.0,0.0,0.0,0.0,0.0,0.0,0.0,0.0,0.0,0.0,0.0,0.0,0.0,0.0,0.0,0.0,0.0,0.0,0.0,0.0,0.0,0.0,0.0,0.0,0.0,0.0,0.0,0.0,0.0,0.0,0.0,0.0,0.0,0.0,0.0,0.0,0.0,0.0,0.0,0.0,0.0,0.0,0.0,0.0,0.0,0.0,0.0,0.0,0.0,0.0,0.0,0.0,0.0,0.0,0.0,0.0,0.0,0.0,0.0,0.0,0.0,0.0,0.0,0.0,0.0,0.0,0.0,0.0,0.0,0.0,0.0,0.0,0.0,0.0,0.0,0.0,0.0,0.0,0.0,0.0,0.0,0.0,0.0,0.0,0.0,0.0,0.0,0.0,0.0,0.0,0.0,0.0,0.0,0.0,0.0,0.0,0.0,0.0,0.0,0.0,0.0,0.0,0.0,0.0,0.0,0.0,0.0,0.0,0.0,0.0,0.0,0.0,0.0,0.0,0.0,0.0,0.0,0.0,0.0,0.0,0.0,0.0,0.0,0.0,0.0,0.0,0.0,0.0,0.0,0.0,0.0,0.0,0.0,0.0,0.0,0.0,0.0,0.0,0.0,0.0,0.0,0.0,0.0,0.0,0.0,0.0,0.0,0.0,0.0,0.0,0.0,0.0,0.0,0.0,0.0,0.0,0.0,0.0,0.0,0.0,0.0,0.0,0.0,0.0,0.0,0.0,0.0,0.0,0.0,0.0,0.0,0.0,0.0,0.0,0.0,0.0,0.0,0.0,0.0,0.0,0.0,0.0,0.0,0.0,0.0,0.0,0.0,0.0,0.0,0.0,0.0,0.0,0.0,0.0,0.0,0.0,0.0,0.0,0.0,0.0,0.0,0.0,0.0,0.0,0.0,0.0,0.0,0.0,0.0,0.0,0.0,0.0,0.0,0.0,0.0,0.0,0.0,0.0,0.0,0.0,0.0,0.0,0.0,0.0,0.0,0.0,0.0,0.0,0.0,0.0,0.0,0.0,0.0,0.0,0.0,0.0,0.0,0.0,0.0,0.0,0.0,0.0,0.0,0.0,0.0,0.0,0.0,0.0,0.0,0.0,0.0,0.0,0.0,0.0,0.0,0.0,0.0,0.0,0.0,0.0,0.0,0.0,0.0,0.0,0.0,0.0,0.0,0.0,0.0,0.0,0.0,0.0,0.0,0.0,0.0,0.0,0.0,0.0,0.0,0.0,0.0,0.0,0.0,0.0,0.0,0.0,0.0,0.0,0.0,0.0,0.0,0.0,0.0,0.0,0.0,0.0,0.0,0.0,0.0,0.0,0.0,0.0,0.0,0.0,0.0,0.0,0.0,0.0,0.0,0.0,0.0,0.0,0.0,0.0,0.0,0.0,0.0,0.0,0.0,0.0,0.0,0.0,0.0,0.0,0.0,0.0,0.0,0.0,0.0,0.0,0.0,0.0,0.0,0.0,0.0,0.0,0.0,0.0,0.0,0.0,0.0,0.0,0.0,0.0,0.0,0.0,0.0,0.0,0.0,0.0,0.0,0.0,0.0,0.0,0.0,0.0,0.0,0.0,0.0,0.0,0.0,0.0,0.0,0.0,0.0,0.0,0.0,0.0,0.0,0.0,0.0,0.0,0.0,0.0,0.0,0.0,0.0,0.0,0.0,0.0,0.0,0.0,0.0,0.0,0.0,0.0,0.0,0.0,0.0,0.0,0.0,0.0,0.0,0.0,0.0,0.0,0.0,0.0,0.0,0.0,0.0,0.0,0.0,0.0,0.0,0.0,0.0,0.0,0.0,0.0,0.0,0.0,0.0,0.0,0.0,0.0,0.0,0.0,0.0,0.0,0.0,0.0,0.0,0.0,0.0,1.1093,0.0,0.0,0.0,0.0,0.0,0.0,0.0,0.0,0.0,0.0,0.0,0.0,0.0,0.0,0.0,0.0,0.0,0.0,0.0,0.0,0.0,0.0,0.0,0.0,0.0,0.0,0.0,0.0,0.0,0.0,0.0,0.0,0.0,0.0,0.0,0.0,0.0,0.0,1.1298,1.16,1.1793,1.1922,1.2705,1.3182,1.343,0.0,0.0,0.0,0.0,0.0,0.0,0.0,0.0,0.0,0.0,0.0,0.0,0.0,0.0,0.0,0.0,0.0,0.0,0.0,0.0,0.0,0.0,0.0,0.0,0.0,0.0,0.0,0.0,0.0,0.0,0.0,0.0,0.0,0.0,0.0,0.0,0.0,0.0,0.0,0.0,0.0,0.0,0.0,0.0,0.0,0.0,0.0,0.0,0.0,0.0,0.0,0.0,0.0,0.0,0.0,0.0,0.0,0.0,0.0,0.0,0.0,0.0,0.0,0.0,0.0,0.0,0.0,0.0,0.0,0.0,0.0,1.0815,0.0,0.0,0.0,0.0,0.0,0.0,0.0,0.0,0.0,0.0,0.0,0.0,0.0,0.0,0.0,0.0,0.0,0.0,0.0,0.0,0.0,0.0,0.0,1.5373,1.5782,1.582,1.5589,1.533,0.0,0.0,0.0,0.0,0.0,0.0,1.2096,1.1627,1.1287,1.1131,1.1585,1.224,1.3075,1.3604,1.3958,1.4145,1.4658,0.0,0.0,0.0,0.0,0.0,0.0,0.0,0.0,0.0,0.0,0.0,0.0,0.0,0.0,0.0,0.0,0.0,0.0,0.0,0.0,0.0,0.0,0.0,0.0,0.0,0.0,0.0,0.0,0.0,0.0,0.0,0.0,0.0,0.0,0.0,0.0,0.0,0.0,0.0,0.0,0.0,0.0,0.0,0.0,0.0,0.0,0.0,0.0,0.0,0.0,0.0,0.0,0.0,0.0,0.0,0.0,0.0,0.0,0.0,0.0,0.0,0.0,0.0,0.8534,0.8968,0.9557,0.9507,0.9426,0.9375,1.0508,1.0219,0.8987,0.9705,0.0,0.0,0.0,0.0,0.0,0.0,0.0,0.0,0.0,0.0,0.0,0.0,0.0,0.0,0.0,0.0,0.0,0.0,0.0,0.0,0.0,1.4779,1.5035,1.5441,1.5332,1.5391,1.5734,0.0,0.0,0.0,0.0,0.0,1.2446,1.1417,1.1013,1.1258,1.1704,1.2496,1.3676,1.3415,1.3459,1.3795,1.4261,1.4593,1.4764,0.0,0.0,0.0,0.0,0.0,0.0,0.0,0.0,0.0,0.0,0.0,0.0,0.0,0.0,0.0,0.0,0.0,0.0,0.0,0.0,0.0,0.0,0.0,0.0,0.0,0.0,0.0,0.0,0.0,0.0,0.0,0.0,0.0,0.0,0.0,0.0,0.0,0.0,0.0,0.0,0.0,0.212,0.2241,0.0,0.0,0.0,0.0,0.0,0.0,0.0,0.0,0.0,0.0,0.0,0.0,0.0,0.6264,0.6806,0.6943,0.7426,0.8226,0.859,0.9012,0.9449,0.9767,0.9849,0.9742,1.0042,0.0,0.9114,0.9739,0.0,0.0,0.0,0.0,0.0,0.0,0.0,0.0,0.0,0.0,0.0,0.0,0.0,0.0,0.0,0.0,0.0,0.0,0.0,0.0,0.0,1.4842,1.5268,1.5546,1.5905,1.5919,1.5486,1.5192,0.0,0.0,0.0,1.2129,1.1393,1.0418,1.038,1.1375,1.2332,1.3346,1.441,1.4535,1.4693,1.4849,1.5208,1.4938,1.4246,1.4264,0.0,0.0,0.0,0.0,0.0,0.0,0.0,0.0,0.0,0.0,0.0,0.0,0.0,0.0,0.0,0.0,0.0,0.0,0.0,0.0,0.0,0.0,0.0,0.0,0.0,0.0,0.0,0.0,0.0,0.0,0.0,0.0,0.0,0.0,0.0,0.0,0.0,0.0,0.0,0.161,0.1798,0.2154,0.243,0.2956,0.0,0.0,0.0,0.0,0.0,0.0,0.0,0.0,0.0,0.5393,0.51,0.5388,0.633,0.6561,0.7464,0.9044,0.9305,0.9755,1.0417,1.0468,1.0488,1.042,1.04,1.0194,0.9889,0.9754,0.9872,1.0101,0.0,0.0,0.0,0.0,1.1226,1.1358,0.0,0.0,0.0,0.0,0.0,0.0,0.0,0.0,0.0,0.0,0.0,0.0,1.414,1.5068,1.5759,1.6106,1.6446,1.6323,1.5563,1.5039,1.418,1.2806,1.2099,1.1428,1.071,1.0362,1.08,1.2047,1.3293,1.4298,1.506,1.5211,1.5272,1.5272,1.5384,1.4972,1.4208,1.4316,1.379,1.2869,0.0,0.0,0.0,0.0,0.0,0.0,0.0,0.0,0.0,0.0,0.0,0.0,0.0,0.0,0.0,0.0,0.0,0.0,0.0,0.0,0.0,0.0,0.0,0.0,0.0,0.0,0.0,0.0,0.0,0.0,0.0,0.0,0.0,0.0,0.0,0.0,0.0,0.1536,0.1695,0.2037,0.2414,0.2959,0.0,0.0,0.0,0.0,0.0,0.0,0.4697,0.4222,0.4181,0.4668,0.4497,0.5003,0.6251,0.6555,0.7707,0.9727,0.9719,1.0182,1.108,1.0836,1.0804,1.0961,1.0928,1.0806,1.0628,1.0072,0.9912,1.0011,0.9944,1.0163,1.0493,1.0432,1.0423,1.0371,0.0,0.0,0.0,0.0,0.0,0.0,0.0,0.0,0.0,0.0,0.0,1.2991,1.4181,1.5303,1.6336,1.7246,1.6663,1.6337,1.6593,1.4898,1.3743,1.3455,1.2271,1.1504,1.1273,1.2346,1.32,1.3762,1.4607,1.5162,1.5456,1.4519,1.4083,1.4083,1.3786,1.4264,1.5275,1.4535,1.3925,1.337,1.2431,0.0,0.0,0.0,0.0,0.0,0.0,0.0,0.0,0.0,0.0,0.0,0.0,0.0,0.0,0.0,0.0,0.0,0.0,0.0,0.0,0.0,0.0,0.0,0.0,0.0,0.0,0.0,0.0,0.0,0.0,0.0,0.0,0.0,0.0,0.0,0.0,0.0,0.0,0.1761,0.2962,0.0,0.0,0.0,0.0,0.3905,0.397,0.4089,0.4215,0.4336,0.4454,0.4605,0.5023,0.5826,0.7027,0.7374,0.8285,0.9803,0.9368,0.9742,1.0818,1.0418,1.0588,1.1193,1.1301,1.1302,1.1139,1.0852,1.0595,1.0386,1.0507,1.0524,1.0425,0.9856,0.9662,0.9579,0.0,0.0,0.0,0.0,0.0,0.0,0.0,0.0,1.1559,1.1431,1.2622,1.3507,1.3646,1.5758,1.7145,1.7091,1.7156,1.707,1.665,1.5394,1.4148,1.311,1.2132,1.1392,1.0993,1.2414,1.3191,1.3268,1.4439,1.5097,1.5221,1.4868,1.4708,1.4708,1.458,1.4317,1.3974,1.392,1.3309,1.2406,1.2339,1.1552,0.0,0.0,0.0,0.0,0.0,0.0,0.0,0.0,0.0,0.0,0.0,0.0,0.0,0.0,0.0,0.0,0.0,0.0,0.0,0.0,0.0,0.0,0.0,0.0,0.0,0.0,0.0,0.0,0.0,0.0,0.0,0.0,0.0,0.0,0.0,0.0,0.0,0.2005,0.2724,0.0,0.3633,0.3951,0.402,0.3803,0.4158,0.4436,0.4591,0.4714,0.4818,0.4861,0.5098,0.563,0.6501,0.6667,0.7352,0.8515,0.8328,0.8572,0.9171,0.9029,0.926,0.9733,0.9778,1.0212,1.0959,1.0847,1.0723,1.0575,1.0541,1.0486,1.0344,1.014,1.01,1.0115,0.0,0.0,0.0,0.0,0.0,0.0,0.0,0.0,1.0993,1.0579,1.2238,1.3532,1.3733,1.62,1.7743,1.7432,1.7563,1.7288,1.6359,1.5167,1.3934,1.2657,1.1885,1.1281,1.0886,1.2409,1.3065,1.2801,1.3881,1.4364,1.4307,1.4043,1.3916,1.3916,1.3815,1.3236,1.2417,1.2769,1.2488,1.1862,1.2161,1.1592,1.0534,0.0,0.0,0.0,0.0,0.0,0.0,0.0,0.0,0.0,0.0,0.0,0.0,0.0,0.0,0.0,0.0,0.0,0.0,0.0,0.0,0.0,0.0,0.0,0.0,0.0,0.0,0.0,0.0,0.0,0.0,0.0,0.0,0.0,0.0,0.1477,0.19,0.2197,0.2715,0.3248,0.3803,0.4122,0.4261,0.4226,0.4612,0.4907,0.5031,0.5109,0.5183,0.5202,0.5262,0.5654,0.6344,0.6368,0.6836,0.7755,0.7566,0.7752,0.8234,0.8045,0.8255,0.8745,0.8748,0.9225,0.9979,0.9977,0.9923,0.9971,1.0609,1.0618,1.0287,1.053,1.0669,1.0651,0.0,0.0,0.0,0.0,0.0,0.0,1.1291,1.0804,1.044,1.0031,1.1411,1.2981,1.4393,1.6616,1.8105,1.8366,1.7766,1.6895,1.5778,1.4196,1.2971,1.2239,1.1535,1.1133,1.1062,1.2423,1.2967,1.2603,1.298,1.3051,1.276,1.1983,1.16,1.16,1.1255,1.1001,1.0826,1.1158,1.151,1.1872,1.1877,1.1654,1.1302,0.0,0.0,0.0,0.0,0.0,0.0,0.0,0.0,0.0,0.0,0.0,0.0,0.0,0.0,0.0,0.0,0.0,0.0,0.0,0.0,0.0,0.0,0.0,0.0,0.0,0.0,0.0,0.0,0.0,0.0,0.0,0.0,0.0,0.1616,0.2021,0.2403,0.2332,0.3006,0.366,0.4116,0.4279,0.4579,0.5129,0.5273,0.5357,0.5517,0.5522,0.5547,0.5602,0.555,0.5832,0.656,0.6493,0.6872,0.7608,0.7112,0.727,0.7978,0.7456,0.7686,0.8418,0.8356,0.8353,0.8382,0.8327,0.8285,0.8483,1.065,1.0931,1.0225,1.085,1.1103,1.0923,0.0,0.0,0.0,0.0,0.0,0.0,1.1155,1.0663,1.0134,0.9629,1.1725,1.3367,1.3613,1.6252,1.8105,1.8321,1.7174,1.6405,1.6227,1.4199,1.2762,1.2146,1.12,1.1186,1.229,1.2417,1.242,1.233,1.2554,1.251,1.2237,1.1976,1.1882,1.1882,1.1773,1.1388,1.0833,1.1374,1.1315,1.0908,1.1143,1.0636,0.9802,0.0,0.0,0.0,0.0,0.0,0.0,0.0,0.0,0.0,0.0,0.0,0.0,0.0,0.0,0.0,0.0,0.0,0.0,0.0,0.0,0.0,0.0,0.0,0.0,0.0,0.0,0.0,0.0,0.0,0.0,0.0,0.2259,0.2259,0.1787,0.2316,0.2756,0.2687,0.3147,0.3557,0.3687,0.4362,0.4735,0.4544,0.5176,0.561,0.5643,0.5646,0.5632,0.5605,0.5632,0.5703,0.5853,0.5836,0.5926,0.6113,0.5921,0.5901,0.6057,0.5867,0.6077,0.6558,0.6534,0.7042,0.7871,0.789,0.7802,0.7817,0.883,0.9008,0.8749,0.8847,0.8683,0.8293,0.0,0.0,0.0,0.0,0.0,0.0,1.1081,1.0742,1.0247,0.9465,1.1764,1.3481,1.348,1.5919,1.7638,1.7739,1.6501,1.5531,1.5146,1.3421,1.2229,1.173,1.142,1.1434,1.1776,1.1886,1.1754,1.146,1.1606,1.1574,1.1317,1.1199,1.1144,1.1144,1.1144,1.0916,1.0492,1.0831,1.072,1.0297,1.0453,1.0279,1.0062,1.0667,1.0311,0.9556,1.0199,1.0141,0.978,0.971,0.0,0.0,0.0,0.0,0.0,0.0,0.0,0.0,0.0,0.0,0.0,0.0,0.0,0.0,0.0,0.0,0.0,0.0,0.0,0.0,0.0,0.0,0.0,0.0,0.2426,0.248,0.2269,0.2621,0.285,0.2841,0.3086,0.3366,0.3587,0.4107,0.4439,0.4346,0.5072,0.5493,0.5493,0.5649,0.5711,0.5676,0.5704,0.5676,0.5641,0.5616,0.5586,0.5553,0.5517,0.5481,0.5403,0.5343,0.5441,0.5689,0.5634,0.6016,0.6703,0.6672,0.6605,0.0,0.0,0.0,0.0,0.0,0.7624,0.6926,0.0,0.0,0.0,0.0,0.0,0.0,1.1106,1.0979,1.0583,0.9499,1.1603,1.3275,1.3554,1.5528,1.6831,1.6827,1.5685,1.4436,1.3223,1.2197,1.1549,1.1355,1.1815,1.1611,1.0539,1.1112,1.108,1.0427,1.056,1.0566,1.0422,1.0204,1.0062,1.0062,1.0062,1.0062,0.9983,0.9983,0.9983,0.9894,0.9788,1.0231,1.0979,1.1081,1.0744,1.0252,1.0643,1.0256,0.9533,0.9552,0.0,0.0,0.0,0.0,0.0,0.0,0.0,0.0,0.0,0.0,0.0,0.0,0.0,0.0,0.0,0.0,0.0,0.0,0.0,0.0,0.0,0.0,0.0,0.0,0.2623,0.2773,0.2916,0.2871,0.2842,0.2893,0.2991,0.3165,0.3588,0.3665,0.3917,0.4334,0.4901,0.5196,0.5189,0.56,0.0,0.0,0.0,0.5715,0.5715,0.5654,0.5624,0.5624,0.5616,0.5613,0.561,0.5555,0.5528,0.5522,0.5371,0.5324,0.5319,0.5264,0.5234,0.5413,0.7409,0.7701,0.7016,0.7687,0.7248,0.6322,0.0,0.0,0.0,0.0,0.0,0.0,1.1479,1.1012,1.0457,0.9868,1.137,1.2586,1.2873,1.4693,1.5815,1.563,1.4388,1.3152,1.2167,1.1148,1.1099,1.2282,1.1373,1.0996,1.1266,1.101,1.076,1.063,1.0664,1.0664,1.0625,1.0576,1.0554,1.0554,1.0554,1.0349,0.9978,0.9978,0.9778,0.9443,0.9424,0.9411,0.9467,0.9925,0.9584,0.8915,0.9308,0.9325,0.9076,0.8834,0.883,0.9024,0.9241,0.902,0.0,0.0,0.0,0.0,0.0,0.0,0.0,0.0,0.0,0.0,0.0,0.0,0.0,0.0,0.0,0.0,0.0,0.0,0.0,0.2623,0.284,0.2991,0.3048,0.3069,0.3069,0.3056,0.3065,0.3129,0.3203,0.3598,0.388,0.3993,0.4813,0.5242,0.52,0.5613,0.5859,0.5859,0.5834,0.5796,0.5796,0.5736,0.5661,0.5661,0.0,0.0,0.5673,0.5613,0.5586,0.5586,0.5561,0.555,0.555,0.5539,0.5478,0.5374,0.5684,0.564,0.5447,0.5512,0.5375,0.513,0.0,0.0,0.0,0.0,0.0,0.0,1.1501,1.1135,1.055,0.9587,1.0819,1.1807,1.1786,1.3171,1.397,1.3684,1.2402,1.1497,1.1108,1.0867,1.1099,1.1947,1.1592,1.133,1.132,1.0814,1.0566,1.0662,1.0349,1.0221,1.032,1.0476,1.0535,1.0583,1.0795,1.0625,1.0201,1.0201,0.9941,0.9517,0.9517,0.9165,0.8746,0.9675,0.9364,0.8474,0.8931,0.8664,0.8063,0.7955,0.7898,0.7992,0.8527,0.8414,0.8231,0.0,0.0,0.0,0.0,0.0,0.0,0.0,0.0,0.0,0.0,0.0,0.0,0.0,0.0,0.2529,0.2424,0.0,0.2675,0.2826,0.2964,0.3073,0.3134,0.3168,0.312,0.3126,0.3134,0.3149,0.3164,0.3411,0.3553,0.3535,0.4183,0.4681,0.4948,0.5377,0.5761,0.6011,0.5954,0.5848,0.5786,0.5756,0.5726,0.5696,0.5711,0.5695,0.5692,0.5676,0.5649,0.5646,0.5616,0.5602,0.5602,0.5602,0.5569,0.5506,0.5371,0.5243,0.5109,0.5079,0.4991,0.4937,0.0,0.0,0.0,0.0,0.0,0.0,0.0,1.1292,1.0721,0.9488,1.0399,1.1122,1.0931,1.1802,1.214,1.1497,1.0528,1.0077,1.0333,1.0799,1.115,1.1512,1.1754,1.1587,1.1004,1.0554,1.0388,1.0473,0.9991,0.9816,0.9946,1.0296,1.0473,1.0478,1.0955,1.0868,1.0304,1.0373,0.9971,0.9339,0.9362,0.8835,0.8189,0.9277,0.9013,0.8051,0.8454,0.7933,0.7022,0.7069,0.689,0.6794,0.7598,0.7641,0.7528,0.8339,0.8877,0.0,0.0,0.0,0.0,0.0,0.0,0.0,0.0,0.2634,0.2379,0.2749,0.2682,0.2566,0.2615,0.2758,0.287,0.3003,0.3096,0.3164,0.32,0.322,0.3164,0.3124,0.3185,0.3197,0.3197,0.3197,0.3197,0.3197,0.3668,0.4092,0.4528,0.4985,0.5466,0.5926,0.5918,0.5838,0.5824,0.581,0.5775,0.5713,0.5713,0.5707,0.5694,0.5689,0.5712,0.5709,0.566,0.5638,0.5638,0.5624,0.5621,0.5619,0.5608,0.5484,0.527,0.5245,0.5191,0.5123,0.0,0.0,0.0,0.0,0.0,0.0,0.0,0.0,1.0843,1.0541,1.0666,1.0792,1.0899,1.1324,1.1025,0.9567,0.9401,0.9642,1.02,1.0346,1.0855,1.1871,1.1213,1.0757,1.0642,1.0259,1.0046,1.0056,1.0002,0.9957,1.0011,1.0446,1.0658,1.0707,1.1239,1.0929,1.0046,1.0187,0.9411,0.8089,0.8166,0.7836,0.7324,0.7474,0.7327,0.6944,0.6918,0.664,0.6319,0.6264,0.6166,0.617,0.6545,0.6403,0.6198,0.6641,0.6498,0.6135,0.5859,0.4959,0.385,0.3005,0.2551,0.2361,0.0,0.2611,0.2568,0.2608,0.2709,0.2784,0.277,0.2885,0.3005,0.3076,0.3141,0.3202,0.3258,0.3245,0.3238,0.3258,0.324,0.3175,0.3175,0.3175,0.3175,0.3175,0.3676,0.4011,0.3977,0.4468,0.497,0.5462,0.5406,0.5587,0.5995,0.594,0.5837,0.5775,0.5775,0.5748,0.5696,0.5688,0.5686,0.5686,0.5678,0.5675,0.5672,0.5706,0.5684,0.5679,0.5624,0.5586,0.555,0.5403,0.5292,0.5191,0.0,0.0,0.0,0.0,0.0,0.0,0.0,0.0,0.0,1.0295,1.0272,1.0296,1.0153,0.9794,0.9264,0.8517,0.8646,0.8966,0.9429,1.0131,1.0799,1.143,1.1531,1.1246,1.0672,1.0495,1.0327,1.0126,0.9851,0.9879,1.0257,1.071,1.0901,1.0845,1.1408,1.1087,1.013,1.0235,0.9384,0.8035,0.8068,0.7534,0.678,0.6784,0.6435,0.5993,0.6145,0.5916,0.0,0.5379,0.5393,0.5497,0.5952,0.5752,0.5419,0.5927,0.5936,0.5613,0.4899,0.3838,0.2789,0.2362,0.223,0.229,0.2622,0.2744,0.2778,0.2842,0.2926,0.2987,0.2991,0.3058,0.3126,0.3168,0.321,0.3141,0.2844,0.2797,0.269,0.237,0.2281,0.2545,0.3206,0.3257,0.3264,0.3281,0.347,0.3708,0.3998,0.4179,0.4539,0.502,0.534,0.5517,0.5592,0.5932,0.6011,0.584,0.5921,0.5859,0.5802,0.5802,0.5783,0.5748,0.571,0.5696,0.5694,0.5714,0.5703,0.57,0.5676,0.5643,0.5646,0.5561,0.5495,0.5448,0.0,0.0,0.0,0.0,0.0,0.0,0.0,0.0,0.0,0.0,1.0144,0.9877,0.9329,0.8603,0.8064,0.7915,0.8086,0.8469,0.9125,1.0105,1.0907,1.1367,1.1824,1.1771,1.1186,1.0954,1.074,1.0685,1.0316,1.0386,1.0754,1.1288,1.1383,1.1102,1.1759,1.1353,1.024,1.034,0.9401,0.7905,0.7905,0.734,0.6471,0.639,0.6071,0.5692,0.566,0.5362,0.4946,0.4834,0.4828,0.4927,0.5375,0.5168,0.4828,0.5197,0.5219,0.4914,0.3984,0.3132,0.2476,0.2198,0.2247,0.2457,0.2823,0.2917,0.2976,0.3032,0.3092,0.3138,0.3104,0.318,0.3159,0.2985,0.3006,0.2864,0.2299,0.2251,0.2088,0.1659,0.1614,0.1928,0.2753,0.2964,0.313,0.3307,0.3296,0.3494,0.3855,0.3829,0.4052,0.4568,0.4939,0.5223,0.5356,0.5766,0.599,0.5973,0.6016,0.5997,0.5924,0.5924,0.5797,0.5601,0.5695,0.5665,0.5517,0.5652,0.5696,0.5696,0.5696,0.5714,0.5715,0.5627,0.5632,0.5597,0.0,0.0,0.0,0.0,0.0,0.0,0.0,0.0,0.0,0.0,0.0,0.0,0.0,0.8187,0.7914,0.7626,0.767,0.8305,0.9688,1.0291,1.1079,1.2119,1.182,1.1854,1.2339,1.1509,1.1339,1.1848,1.1848,1.1788,1.1679,1.2255,1.2204,1.1594,1.2261,1.1711,1.0294,1.0449,0.9317,0.7441,0.7441,0.7033,0.6388,0.6038,0.6101,0.6253,0.5417,0.4888,0.4633,0.4688,0.463,0.4564,0.4745,0.4576,0.4294,0.4187,0.3794,0.328,0.2933,0.2964,0.3045,0.2824,0.2931,0.3052,0.3081,0.3135,0.3171,0.3095,0.3136,0.3217,0.3191,0.321,0.3037,0.2503,0.2405,0.2266,0.1781,0.1657,0.1639,0.1689,0.1649,0.1634,0.1715,0.2138,0.2662,0.3277,0.3303,0.332,0.332,0.332,0.3563,0.399,0.3969,0.4428,0.5467,0.5518,0.5733,0.6093,0.6093,0.6036,0.5924,0.5924,0.5613,0.5146,0.5601,0.5522,0.5067,0.5515,0.5696,0.5696,0.5696,0.5694,0.5694,0.5691,0.566,0.5602,0.0,0.0,0.0,0.0,0.0,0.0,0.0,0.0,0.0,0.0,0.0,0.0,0.0,0.0,0.0,0.0,0.7666,0.7962,0.8764,0.9777,1.0545,1.1051,1.1864,1.2193,1.1925,1.1866,1.1792,1.1694,1.2006,1.2204,1.2244,1.2426,1.2568,1.2593,1.23,1.1884,1.1263,1.1052,1.0236,0.9032,0.8485,0.7925,0.7384,0.659,0.6282,0.6194,0.0,0.5369,0.5195,0.4875,0.48,0.4817,0.471,0.4225,0.3592,0.2993,0.295,0.3019,0.2751,0.3007,0.3293,0.3046,0.3104,0.3183,0.3235,0.3246,0.3142,0.2778,0.2686,0.255,0.22,0.2156,0.2068,0.1889,0.1932,0.1759,0.1198,0.1147,0.0982,0.0605,0.0554,0.0704,0.1042,0.1609,0.2198,0.281,0.2771,0.2932,0.3351,0.3332,0.3369,0.3512,0.3851,0.4172,0.4521,0.4887,0.5132,0.5199,0.5505,0.5804,0.6096,0.5641,0.5318,0.5159,0.4939,0.4963,0.5127,0.4901,0.5199,0.5759,0.548,0.5495,0.5702,0.5742,0.5705,0.5681,0.0,0.0,0.0,0.0,0.0,0.0,0.0,0.0,0.0,0.0,0.0,0.0,0.0,0.0,0.0,0.0,0.0,0.7884,0.8372,0.9411,1.0113,1.0358,1.1476,1.2057,1.185,1.1903,1.1956,1.1915,1.2391,1.2655,1.266,1.2764,1.2896,1.3097,1.255,1.2164,1.1864,1.1576,1.0713,0.9471,0.9202,0.8634,0.7863,0.7088,0.6805,0.0,0.5955,0.5698,0.5605,0.5018,0.4765,0.4704,0.4396,0.3781,0.3061,0.2439,0.2558,0.2788,0.2491,0.2734,0.3028,0.2911,0.2939,0.3039,0.3252,0.3143,0.2921,0.2529,0.2264,0.2019,0.1677,0.1614,0.1519,0.1356,0.1339,0.1167,0.0621,0.0572,0.0414,0.0051,0.0,0.0152,0.0499,0.0857,0.1432,0.2185,0.2201,0.2367,0.2788,0.2772,0.2715,0.2724,0.302,0.3307,0.3483,0.4057,0.447,0.4759,0.5187,0.5486,0.5606,0.5394,0.506,0.4695,0.4526,0.4503,0.4674,0.4674,0.5025,0.5592,0.549,0.56,0.5764,0.5805,0.5794,0.5753,0.0,0.0,0.0,0.0,0.0,0.0,0.0,0.0,0.0,0.0,0.0,0.0,0.0,0.0,0.0,0.0,0.0,0.0,0.8526,0.92,0.9717,1.0046,1.0724,1.1393,1.205,1.1679,1.1784,1.2415,1.2895,1.3037,1.2922,1.317,1.3197,1.3032,1.2836,1.2475,1.1941,1.1941,1.0782,0.8953,0.9559,0.9031,0.7821,0.7482,0.7536,0.7667,0.6375,0.5878,0.5744,0.5041,0.4583,0.4226,0.3859,0.3312,0.2779,0.2477,0.2523,0.2539,0.2244,0.2232,0.238,0.2445,0.2562,0.2752,0.3197,0.2886,0.2511,0.2373,0.1977,0.1562,0.1545,0.1509,0.1365,0.0852,0.0765,0.0587,0.0052,0.0,0.0,0.0,0.0,0.0,0.0,0.0,0.0411,0.1439,0.1617,0.1685,0.1685,0.1685,0.1691,0.1705,0.1625,0.1877,0.2471,0.2971,0.3704,0.4698,0.5108,0.5038,0.4552,0.5036,0.4698,0.3767,0.4191,0.4074,0.3761,0.4642,0.5057,0.5145,0.5611,0.5793,0.5834,0.588,0.5927,0.5859,0.0,0.0,0.0,0.0,0.0,0.0,0.0,0.0,0.0,0.0,0.0,0.0,0.0,0.0,0.0,0.0,0.0,0.0,0.7972,0.869,0.9198,0.9414,1.0298,1.1002,1.1431,1.1185,1.1145,1.1293,1.188,1.1967,1.1596,1.1542,1.17,1.194,1.1254,1.1054,1.1253,1.1167,1.085,1.039,1.0097,0.9493,0.8683,0.8006,0.7304,0.6642,0.6104,0.5543,0.5041,0.4873,0.446,0.3911,0.3364,0.3108,0.297,0.271,0.2725,0.2828,0.285,0.2996,0.3112,0.3156,0.3166,0.3213,0.3348,0.3178,0.28,0.205,0.1681,0.1297,0.0566,0.04,0.0366,0.0233,0.0197,0.0156,0.0,0.0,0.0,0.0,0.0,0.0,0.0,0.0,0.0106,0.0376,0.0859,0.1287,0.1663,0.1717,0.1713,0.1706,0.1698,0.1743,0.1893,0.198,0.2372,0.3009,0.3074,0.3241,0.3458,0.3189,0.3171,0.3252,0.2543,0.2635,0.3193,0.2681,0.2908,0.3634,0.4112,0.4501,0.4865,0.5662,0.5962,0.5872,0.0,0.0,0.0,0.0,0.0,0.0,0.0,0.0,0.0,0.0,0.0,0.0,0.0,0.0,0.0,0.0,0.0,0.0,0.0,0.8234,0.8599,0.8539,0.9359,0.9982,1.0308,1.022,1.0208,1.0339,1.0879,1.104,1.0829,1.0671,1.0858,1.1265,1.0669,1.0463,1.0618,1.099,1.0743,0.0,0.0,0.9831,0.876,0.8343,0.7541,0.6521,0.5897,0.5291,0.4692,0.4397,0.4082,0.3748,0.3286,0.3051,0.2972,0.2899,0.2928,0.2953,0.285,0.2958,0.3037,0.3053,0.3036,0.305,0.3029,0.2746,0.2316,0.1475,0.1057,0.0719,0.0329,0.0127,0.0044,0.0226,0.0097,0.0,0.0,0.0,0.0,0.0,0.0,0.0,0.0,0.0,0.0,0.0,0.0329,0.0653,0.0928,0.0979,0.0975,0.0971,0.0967,0.1067,0.1322,0.1258,0.1509,0.2072,0.2258,0.239,0.2418,0.2396,0.2379,0.237,0.0,0.1825,0.2356,0.2025,0.2163,0.2726,0.3261,0.3625,0.3974,0.5028,0.5394,0.5463,0.0,0.0,0.0,0.0,0.0,0.0,0.0,0.0,0.0,0.0,0.0,0.0,0.0,0.0,0.0,0.0,0.0,0.0,0.0,0.0,0.8149,0.7816,0.8388,0.8838,0.9145,0.9152,0.9281,0.9523,0.993,1.0202,1.0358,1.0158,1.0266,1.0672,1.0438,1.0206,1.0036,1.0953,1.0461,0.9131,1.0514,1.0011,0.8502,0.0,0.7997,0.6831,0.5711,0.5046,0.4593,0.3935,0.3753,0.3678,0.3389,0.3092,0.2905,0.3099,0.3131,0.3054,0.2718,0.2673,0.2704,0.2701,0.2731,0.2672,0.2531,0.2116,0.157,0.0936,0.0451,0.024,0.0469,0.0282,0.0168,0.0484,0.0236,0.0,0.0,0.0,0.0,0.0,0.0,0.0,0.0,0.0,0.0,0.0,0.0,0.0,0.0,0.0,0.0,0.0,0.0,0.0269,0.0801,0.0742,0.0949,0.1472,0.1878,0.1863,0.1385,0.1882,0.1816,0.1402,0.134,0.1336,0.1435,0.183,0.1977,0.2074,0.2664,0.2906,0.2998,0.408,0.4471,0.4612,0.0,0.0,0.0,0.0,0.0,0.0,0.0,0.0,0.0,0.0,0.8322,0.7826,0.0,0.0,0.0,0.0,0.0,0.0,0.0,0.0,0.0,0.8367,0.8575,0.8764,0.8946,0.8946,0.8973,0.9027,0.9281,0.9458,0.9578,0.9377,0.9385,0.9562,0.9525,0.9475,0.9475,0.9914,0.993,0.9684,1.0055,0.9684,0.8921,0.9166,0.8241,0.0,0.5352,0.4773,0.4592,0.4481,0.4246,0.3906,0.3307,0.3125,0.315,0.3327,0.3371,0.335,0.3343,0.3323,0.3325,0.3355,0.3237,0.3039,0.26,0.2329,0.1934,0.0983,0.0943,0.0876,0.0223,0.0276,0.0338,0.0135,0.0048,0.0,0.0,0.0,0.0,0.0,0.0,0.0,0.0,0.0,0.0,0.0,0.0,0.0,0.0,0.0,0.0,0.0,0.0,0.0054,0.0162,0.0161,0.0213,0.0316,0.0368,0.0366,0.0259,0.0362,0.0619,0.0876,0.0463,0.0,0.0874,0.0566,0.041,0.0508,0.1423,0.1762,0.1887,0.2979,0.3359,0.3385,0.0,0.0,0.0,0.0,0.0,0.0,0.0,0.9755,0.9314,0.8994,0.8474,0.8056,0.7868,0.7799,0.7756,0.0,0.0,0.0,0.0,0.0,0.0,0.8389,0.8513,0.8662,0.8791,0.8872,0.8946,0.9049,0.0,0.9301,0.9503,0.9239,0.917,0.9305,0.9305,0.9122,0.8879,0.9518,0.9609,0.9318,0.9806,0.961,0.9043,0.9285,0.835,0.0,0.573,0.5191,0.4906,0.4522,0.4123,0.3732,0.3339,0.3459,0.3681,0.3127,0.32,0.3484,0.3502,0.3524,0.3516,0.3489,0.34,0.3108,0.2274,0.1962,0.1586,0.0572,0.0664,0.0762,0.0394,0.0421,0.0453,0.035,0.014,0.0,0.0,0.0,0.0,0.0,0.0,0.0,0.0,0.0,0.0,0.0,0.0,0.0,0.0,0.0,0.0,0.0,0.0,0.0,0.0,0.0,0.0,0.0,0.0,0.0,0.0,0.0,0.0157,0.0366,0.0104,0.0156,0.0363,0.0104,0.0,0.0052,0.0516,0.0718,0.0865,0.1933,0.2333,0.2423,0.0,0.0,0.0,0.0,0.0,0.0,0.0,0.9485,0.9254,0.9174,0.886,0.8574,0.8403,0.8106,0.7919,0.0,0.0,0.0,0.0,0.0,0.0,0.0,0.0,0.0,0.8896,0.0,0.0,0.9251,0.9314,0.0,0.0,0.0,0.0,0.0,0.9351,0.9128,0.8751,0.9481,0.9488,0.0,0.0,0.9658,0.9187,0.0,0.0,0.0,0.0,0.5889,0.5376,0.4775,0.431,0.3919,0.3527,0.3753,0.3915,0.2991,0.3172,0.3633,0.3538,0.35,0.3493,0.352,0.3411,0.303,0.1924,0.1586,0.1198,0.0215,0.0279,0.0488,0.049,0.0482,0.0475,0.0465,0.0223,0.0,0.0,0.0,0.0,0.0,0.0,0.0,0.0,0.0,0.0,0.0,0.0,0.0,0.0,0.0,0.0,0.0,0.0,0.0,0.0,0.0,0.0,0.0,0.0,0.0,0.0,0.0,0.0,0.0,0.0,0.0,0.0,0.0,0.0,0.0,0.0,0.0,0.0104,0.0936,0.1247,0.14,0.0,0.0,0.0,0.0,0.0,0.0,0.0,0.9358,0.9246,0.9354,0.9177,0.9196,0.96,0.9017,0.8512,0.0,0.0,0.0,0.0,0.0,0.0,0.0,0.0,0.0,0.0,0.0,0.0,0.9473,0.9654,0.0,0.0,0.0,0.0,0.0,0.0,0.961,0.967,0.9761,0.0,0.0,0.0,0.0,0.0,0.0,0.0,0.0,0.0,0.6728,0.5911,0.5876,0.5676,0.5286,0.4174,0.3637,0.3397,0.3273,0.3657,0.407,0.3673,0.3587,0.358,0.3493,0.341,0.3001,0.1948,0.16,0.121,0.0211,0.0273,0.0409,0.0105,0.0288,0.0419,0.0084,0.0044,0.0,0.0,0.0,0.0,0.0,0.0,0.0,0.0,0.0,0.0,0.0,0.0,0.0,0.0,0.0,0.0,0.0,0.0,0.0,0.0,0.0,0.0,0.0,0.0,0.0,0.0,0.0,0.0,0.0,0.0,0.0,0.0,0.0,0.0,0.0,0.0,0.0,0.0,0.0105,0.0157,0.0156,0.0,0.0,0.0,0.0,0.0,0.0,1.0433,0.9831,0.9581,0.9962,0.9724,0.9753,1.0399,1.0056,0.9685,0.9467,0.0,0.0,0.0,0.0,0.0,0.0,0.0,0.0,0.0,0.0,1.0099,0.9984,1.0054,0.0,0.0,0.0,0.0,0.0,0.0,0.9605,0.9785,0.9697,0.0,0.0,0.0,0.0,0.0,0.0,0.0,0.0,0.0,0.0,0.6889,0.6437,0.5833,0.5155,0.4755,0.4279,0.3737,0.3215,0.351,0.3939,0.3662,0.3604,0.3604,0.35,0.3171,0.2607,0.188,0.1365,0.0839,0.0139,0.027,0.0407,0.007,0.0283,0.0405,0.0041,0.0,0.0,0.0,0.0,0.0,0.0,0.0,-0.0296,-0.1098,-0.0853,-0.0604,-0.0597,-0.0947,-0.0823,-0.0059,0.0,0.0,0.0,0.0,0.0,0.0,0.0,0.0,0.0,0.0,0.0,0.0,0.0,0.0,0.0,0.0,0.0,0.0,0.0,0.0,0.0,0.0,0.0,0.0,0.0,0.0,0.0,0.0,0.0,0.0,0.0,0.0,1.1705,1.1187,1.0529,1.0259,1.068,1.0472,1.0608,1.1462,1.1456,1.1324,1.1175,1.0769,0.0,0.0,0.0,0.0,0.0,0.0,0.0,0.0,0.0,1.0862,1.0596,1.058,1.0319,0.0,0.0,0.9767,0.9703,0.0,0.0,0.0,0.0,0.0,0.0,0.0,0.0,0.0,0.0,0.0,0.0,0.0,0.0,0.0,0.0,0.0,0.5534,0.5398,0.5003,0.4429,0.3485,0.3723,0.4253,0.3989,0.3987,0.4035,0.3818,0.324,0.2563,0.1864,0.1184,0.0562,0.0103,0.0202,0.0272,0.0035,0.021,0.0289,0.0039,0.0,0.0,0.0,-0.0142,-0.0148,0.0,-0.0391,-0.0863,-0.1385,-0.1156,-0.091,-0.0716,-0.1487,-0.1423,-0.0355,-0.047,-0.0407,0.0,0.0,0.0,0.0,0.0,0.0,0.0,0.0,0.0,0.0,0.0,0.0,0.0,0.0,0.0,0.0,0.0,0.0,0.0,0.0,0.0,0.0,0.0,0.0,0.0,0.0,0.0,0.0,0.0,0.0,0.0,1.1662,1.1426,1.133,1.1479,1.1487,1.19,1.2962,1.3298,1.3473,1.3473,1.2131,0.0,0.0,0.0,0.0,0.0,0.0,0.0,0.0,0.0,1.1427,1.1295,1.1212,1.0876,1.0284,1.0284,1.0183,0.9985,0.0,0.0,0.0,0.0,0.0,0.0,0.0,0.0,1.022,0.0,0.0,0.0,0.0,0.0,0.0,0.0,0.0,0.0,0.0,0.5806,0.5381,0.4213,0.4525,0.5112,0.4859,0.4977,0.5031,0.454,0.3813,0.2995,0.1946,0.1176,0.0556,0.0103,0.0,0.0,0.0,0.0,0.0,0.0,0.0,0.0,0.0,-0.0382,-0.0544,-0.0052,-0.1283,-0.1595,-0.0172,-0.0597,-0.0728,-0.006,-0.1261,-0.1683,-0.1013,-0.155,-0.1302,-0.0058,0.0,0.0,0.0,0.0,0.0,0.0,0.0,0.0,0.0,0.0,0.0,0.0,0.0,0.0,0.0,0.0,0.0,0.0,0.0,0.0,0.0,0.0,0.0,0.0,0.0,0.0,0.0,0.0,0.0,0.0,0.0,1.2226,1.2003,1.2051,1.2004,1.2326,1.3197,1.3268,1.3422,1.3936,1.3145,0.0,0.0,0.0,0.0,0.0,0.0,0.0,0.0,0.0,1.2632,1.273,1.1925,1.1406,1.119,1.0586,1.0093,0.9716,0.944,0.9368,0.0,0.0,0.0,0.0,0.0,0.9606,0.9782,0.0,0.0,0.0,0.0,0.0,0.0,0.0,0.0,0.0,0.0,0.0,0.0,0.5573,0.5075,0.4662,0.4389,0.425,0.4179,0.4175,0.3505,0.2807,0.2678,0.2165,0.1669,0.1535,0.1279,0.1083,0.1103,0.0697,0.0324,0.0349,0.0159,-0.0123,-0.0442,-0.0326,-0.0295,-0.0474,-0.1425,-0.1679,-0.0785,-0.1641,-0.1826,-0.0788,-0.1451,-0.1688,-0.1022,-0.1136,-0.1068,-0.0704,-0.0637,-0.0401,0.0,0.0,0.0,0.0,0.0,0.0,0.0,0.0,0.0,0.0,0.0,0.0,0.0,0.0,0.0,0.0,0.0,0.0,0.0,0.0,0.0,0.0,0.0,0.0,0.0,0.0,0.0,0.0,0.0,1.2964,1.2728,1.2815,1.2794,1.3037,1.3746,1.382,1.387,1.405,1.3878,0.0,0.0,0.0,0.0,0.0,0.0,0.0,0.0,1.3404,1.3297,1.309,1.2257,1.1702,1.14,1.0751,1.0228,0.9846,0.9529,0.9377,0.0,0.0,0.0,0.0,0.9579,0.9542,0.9393,0.0,0.0,0.0,0.0,0.0,0.0,0.0,0.0,0.0,0.0,0.0,0.0,0.0,0.5907,0.5218,0.4814,0.4659,0.4533,0.4081,0.3333,0.2656,0.234,0.1801,0.1384,0.1358,0.1178,0.1049,0.1208,0.0732,0.0359,0.0501,0.0236,-0.0122,-0.0395,-0.0325,-0.0494,-0.1174,-0.1274,-0.1214,-0.1209,-0.1767,-0.1775,-0.0671,-0.1462,-0.1641,-0.103,-0.1203,-0.1194,-0.1011,-0.07,-0.0403,0.0,0.0,0.0,0.0,0.0,0.0,0.0,0.0,0.0,0.0,0.0,0.0,0.0,0.0,0.0,0.0,0.0,0.0,0.0,0.0,0.0,0.0,0.0,0.0,0.0,0.0,0.0,0.0,0.0,1.3582,1.354,1.3709,1.373,1.3954,1.4439,1.4785,1.4668,1.3937,0.0,0.0,0.0,0.0,0.0,0.0,0.0,0.0,0.0,1.386,1.3462,1.2715,1.2264,1.1755,1.1181,1.0825,1.0531,1.0229,0.9651,0.9553,0.0,0.0,0.0,0.0,0.9457,0.9229,0.0,0.0,0.0,0.0,0.0,0.0,0.0,0.0,0.0,0.0,0.0,0.0,0.0,0.0,0.0,0.0,0.0,0.5945,0.5719,0.4146,0.3377,0.2643,0.1333,0.0628,0.0,0.0169,0.0135,0.0238,0.0629,0.0351,0.0179,0.0574,0.0273,0.0,-0.0045,-0.0427,-0.1058,-0.1963,-0.0856,-0.0351,-0.1284,-0.1088,-0.0677,-0.0061,-0.1168,-0.16,-0.1038,-0.1515,-0.1508,-0.1025,-0.0354,0.0,0.0,0.0,0.0,0.0,0.0,0.0,0.0,0.0,0.0,0.0,0.0,0.0,0.0,0.0,0.0,0.0,0.0,0.0,0.0,0.0,0.0,0.0,0.0,0.0,0.0,0.0,0.0,0.0,0.0,0.0,0.0,0.0,1.4131,1.4302,1.4482,1.4567,1.4643,0.0,0.0,0.0,0.0,0.0,0.0,0.0,0.0,0.0,0.0,1.3591,1.3471,1.3817,1.2274,1.1707,1.2055,1.0935,1.0229,0.9899,0.9541,0.9581,0.0,0.0,0.0,0.0,0.97,0.9385,0.0,0.0,0.0,0.0,0.9205,0.925,0.0,0.0,0.0,0.0,0.0,0.0,0.0,0.0,0.7641,0.7162,0.6602,0.0,0.5208,0.4505,0.3971,0.3423,0.0,0.245,0.2377,0.1813,0.1424,0.1362,0.1802,0.1059,0.0541,0.0978,0.0477,-0.0123,-0.0485,-0.0644,-0.0654,-0.0522,-0.0241,-0.0122,-0.03,-0.0305,-0.0185,0.0,-0.0308,-0.0617,-0.0985,-0.0668,-0.0603,-0.0965,-0.0354,0.0,0.0,0.0,0.0,0.0,0.0,0.0,0.0,0.0,0.0,0.0,0.0,0.0,0.0,0.0,0.0,0.0,0.0,0.0,0.0,0.0,0.0,0.0,0.0,0.0,0.0,0.0,0.0,0.0,0.0,0.0,0.0,0.0,0.0,1.4764,1.4683,1.4918,0.0,0.0,0.0,0.0,0.0,0.0,0.0,0.0,0.0,1.4345,1.4112,1.3787,1.3476,1.3254,1.2159,1.155,1.1427,1.0504,0.9936,0.9705,0.9609,0.9767,0.0,0.0,0.0,1.0277,1.0277,0.0,0.0,0.0,0.0,0.0,0.9481,0.9557,0.0,0.9345,0.9197,0.905,0.0,0.0,0.0,0.0,0.8321,0.8,0.7386,0.6543,0.553,0.4317,0.3963,0.3656,0.2566,0.23,0.2181,0.1818,0.1264,0.0996,0.1421,0.0826,0.0406,0.087,0.0405,-0.017,-0.0655,-0.0981,-0.095,-0.0415,-0.0607,-0.0552,-0.0061,0.0,0.0,0.0,0.0,-0.0185,-0.0494,-0.0182,-0.0181,-0.0543,-0.0177,0.0,0.0,0.0,0.0,0.0,0.0,0.0,0.0,0.0,0.0,0.0,0.0,0.0,0.0,0.0,0.0,0.0,0.0,0.0,0.0,0.0,0.0,0.0,0.0,0.0,0.0,0.0,0.0,0.0,0.0,0.0,0.0,0.0,0.0,0.0,0.0,0.0,0.0,0.0,0.0,0.0,0.0,0.0,0.0,0.0,0.0,1.443,1.4038,1.4027,1.3437,1.2223,1.2007,1.1369,1.0323,0.9989,0.9721,0.9553,0.9767,1.004,0.0,0.0,1.0942,1.0883,1.0762,0.0,0.0,0.0,0.0,0.0,0.0,0.0,0.0,0.9652,0.9425,0.9117,0.8723,0.0,0.0,0.0,0.0,0.0,0.7953,0.7165,0.6046,0.4066,0.3784,0.3586,0.2072,0.1497,0.1224,0.1138,0.0553,0.021,0.054,0.0295,0.0153,0.0563,0.0252,-0.0181,-0.0612,-0.1129,-0.1238,-0.0712,-0.1143,-0.1033,-0.0123,0.0,0.0,0.0,0.0,0.0,0.0,0.0,0.0,0.0,-0.0118,-0.0116,-0.0115,-0.0057,0.0,0.0,0.0,0.0,0.0,0.0,0.0,0.0,0.0,0.0,0.0,0.0,0.0,0.0,0.0,0.0,0.0,0.0,0.0,0.0,0.0,0.0,0.0,0.0,0.0,0.0,0.0,0.0,0.0,0.0,0.0,0.0,0.0,0.0,0.0,0.0,0.0,0.0,0.0,0.0,0.0,1.4948,1.4769,1.4642,1.458,1.3723,1.3122,1.2779,1.1863,1.1092,1.0454,1.0135,0.9722,0.9299,0.9939,1.0243,1.0345,0.0,1.1091,1.1186,1.0611,0.0,0.0,0.0,0.0,0.0,0.0,0.0,0.0,0.9493,0.9433,0.9495,0.8823,0.0,0.0,0.0,0.0,0.0,0.7751,0.6689,0.5451,0.4558,0.4105,0.3526,0.2095,0.192,0.1783,0.0886,0.0604,0.0541,0.0681,0.0309,0.0159,0.0595,0.032,-0.005,-0.0108,-0.0224,-0.0231,-0.012,-0.0183,-0.0184,0.0,0.0,0.0,0.0,0.0,0.0,0.0,0.0,0.0,0.0,-0.0468,-0.0748,-0.0747,-0.0228,0.0,0.0,0.0,0.0,0.0,0.0,0.0,0.0,0.0,0.0,0.0,0.0,0.0,0.0,0.0,0.0,0.0,0.0,0.0,0.0,0.0,0.0,0.0,0.0,0.0,0.0,0.0,0.0,0.0,0.0,0.0,0.0,0.0,0.0,0.0,0.0,0.0,0.0,0.0,0.0,0.0,1.4886,1.4448,1.4202,1.4208,1.3529,1.2844,1.221,1.1531,1.0831,1.0105,0.9874,0.9607,0.9337,0.9809,1.0179,1.0501,1.0849,1.1121,1.1269,0.0,0.0,0.0,0.0,0.0,0.0,0.0,0.0,0.0,0.0,0.9386,0.9419,0.8728,0.0,0.0,0.0,0.0,0.0,0.737,0.6388,0.5345,0.4309,0.3671,0.3026,0.199,0.1667,0.1468,0.1004,0.0597,0.0302,0.0315,0.0164,0.0087,0.0284,0.015,-0.0105,-0.0385,-0.073,-0.0804,-0.0475,-0.0722,-0.0668,-0.0061,0.0,0.0,0.0,0.0,0.0,0.0,0.0,0.0,0.0,-0.0293,-0.0747,-0.138,-0.0456,-0.017,-0.0505,-0.0168,0.0,0.0,0.0,0.0,0.0,0.0,0.0,0.0,0.0,0.0,0.0,0.0,0.0,0.0,0.0,0.0,0.0,0.0,0.0,0.0,0.0,0.0,0.0,0.0,0.0,0.0,0.0,0.0,0.0,0.0,0.0,0.0,0.0,0.0,0.0,0.0,0.0,1.5281,1.4789,1.4217,1.3922,1.3959,1.3341,1.263,1.1799,1.1371,1.0772,0.9971,0.9727,0.953,0.941,0.9751,1.0142,1.0561,1.0953,1.124,1.1367,0.0,0.0,0.0,0.0,0.0,0.0,0.0,0.0,0.0,0.0,0.0,0.0,0.0,0.0,0.0,0.8836,0.8631,0.8149,0.7048,0.6101,0.5106,0.377,0.3127,0.2695,0.2099,0.1606,0.1246,0.1236,0.0642,0.0122,0.0,0.0,0.0,0.0,0.0,-0.0164,-0.0564,-0.1025,-0.1156,-0.0653,-0.1018,-0.0969,-0.0062,0.0,0.0,0.0,0.0,0.0,0.0,0.0,0.0,0.0,-0.0117,-0.0633,-0.1553,-0.0685,-0.051,-0.1126,-0.0338,0.0,0.0,0.0,0.0,0.0,0.0,0.0,0.0,0.0,0.0,0.0,0.0,0.0,0.0,0.0,0.0,0.0,0.0,0.0,0.0,0.0,0.0,0.0,0.0,0.0,0.0,0.0,0.0,0.0,0.0,0.0,0.0,0.0,0.0,0.0,0.0,0.0,1.5521,1.4998,1.4466,1.4249,1.4458,1.3192,1.251,1.2435,1.1728,1.1052,1.0432,0.9869,0.953,0.9439,1.0012,1.0279,1.0359,1.1134,1.1576,1.1716,1.1065,0.0,0.0,0.0,0.0,0.0,0.0,0.0,0.0,0.0,0.0,0.0,0.0,0.0,0.92,0.8974,0.866,0.8128,0.6948,0.566,0.435,0.3013,0.2819,0.2954,0.2752,0.223,0.1669,0.1451,0.094,0.045,0.0089,0.0,0.0,0.0,0.0,0.0,-0.006,-0.0121,-0.0122,-0.0061,-0.0123,-0.0062,0.0,0.0,0.0,0.0,0.0,0.0,0.0,0.0,0.0,0.0,-0.0526,-0.0862,-0.0977,-0.0856,-0.1136,-0.1702,-0.0572,0.0,0.0,0.0,0.0,0.0,0.0,0.0,0.0,0.0,0.0,0.0,0.0,0.0,0.0,0.0,0.0,0.0,0.0,0.0,0.0,0.0,0.0,0.0,0.0,0.0,0.0,0.0,0.0,0.0,0.0,0.0,0.0,0.0,0.0,0.0,0.0,1.5728,1.5353,1.4358,1.3923,1.3539,1.3214,1.2699,1.2492,1.2617,1.1525,1.0769,1.0383,1.0025,0.9789,0.9664,1.0098,1.0448,1.0766,1.1195,1.1433,1.1458,1.1005,1.0664,0.0,0.0,0.0,0.0,0.0,0.0,0.0,0.0,0.9729,0.9631,0.9133,0.8979,0.8984,0.8858,0.8647,0.8159,0.7022,0.5691,0.4383,0.3556,0.2878,0.232,0.2043,0.1812,0.1573,0.1167,0.1246,0.122,0.0689,0.0256,0.0,0.0,0.0,0.0,0.0,0.0,0.0,0.0,0.0,0.0,0.0,0.0,0.0,0.0,0.0,0.0,0.0,0.0,0.0,0.0,-0.0235,-0.0695,-0.1448,-0.0693,-0.0806,-0.1774,-0.0572,0.0,0.0,0.0,0.0,0.0,0.0,0.0,0.0,0.0,0.0,0.0,0.0,0.0,0.0,0.0,0.0,0.0,0.0,0.0,0.0,0.0,0.0,0.0,0.0,0.0,0.0,0.0,0.0,0.0,0.0,0.0,0.0,0.0,0.0,0.0,1.565,1.5712,1.5318,1.4196,1.39,1.352,1.3012,1.274,1.2534,1.2317,1.1276,1.0714,1.0587,1.035,1.0243,1.0179,1.0528,1.0824,1.1113,1.135,1.1458,1.1428,1.0974,1.0671,0.0,0.0,0.0,0.0,0.0,0.0,0.0,0.0,0.9857,0.9586,0.9258,0.9102,0.9,0.8863,0.8495,0.7867,0.6797,0.5469,0.4236,0.3371,0.2712,0.2176,0.1866,0.1822,0.173,0.151,0.1537,0.14,0.0737,0.027,0.0,0.0,0.0,0.0,0.0,0.0,0.0,0.0,0.0,0.0,0.0,0.0,0.0,0.0,0.0,0.0,0.0,0.0,0.0,0.0,0.0,-0.0407,-0.1222,-0.0407,-0.0406,-0.1207,-0.0401,0.0,0.0,0.0,0.0,0.0,0.0,0.0,0.0,0.0,0.0,0.0,0.0,0.0,0.0,0.0,0.0,0.0,0.0,0.0,0.0,0.0,0.0,0.0,0.0,0.0,0.0,0.0,0.0,0.0,0.0,0.0,0.0,0.0,0.0,0.0,1.6264,1.5937,1.5462,1.4727,1.457,1.4444,1.4292,1.3508,1.2568,1.1498,1.1092,1.1009,1.1182,1.0942,1.0883,1.102,1.1353,1.1419,1.1329,1.1647,1.1806,1.1746,1.1065,1.0785,0.0,0.0,0.0,0.0,0.0,0.0,0.0,0.0,1.0366,1.0127,0.9794,0.9607,0.94,0.9018,0.8263,0.7264,0.6123,0.4963,0.3725,0.2214,0.2299,0.2724,0.2492,0.2342,0.2398,0.2652,0.1815,0.0813,0.0109,0.0,0.0,0.0,0.0,0.0,0.0,0.0,0.0,0.0,0.0,0.0,0.0,0.0,0.0,0.0,0.0,0.0,0.0,0.0,0.0,0.0,0.0,0.0,0.0,0.0,0.0,0.0,0.0,0.0,0.0,0.0,0.0,0.0,0.0,0.0,0.0,0.0,0.0,0.0,0.0,0.0,0.0,0.0,0.0,0.0,0.0,0.0,0.0,0.0,0.0,0.0,0.0,0.0,0.0,0.0,0.0,0.0,0.0,0.0,0.0,0.0,0.0,0.0,1.6254,1.5937,1.5467,1.4739,1.4428,1.3901,1.3038,1.2281,1.1697,1.1275,1.0833,1.072,1.0934,1.0996,1.1219,1.1583,1.19,1.1817,1.1462,1.1689,1.1647,1.1428,1.1246,1.1148,1.1088,0.0,0.0,0.0,0.0,0.0,0.0,0.0,0.0,0.0,0.9728,0.9468,0.9168,0.8976,0.8906,0.8567,0.7067,0.5841,0.4751,0.3583,0.2873,0.258,0.3011,0.3106,0.302,0.2804,0.2174,0.1472,0.0742,0.0691,0.0522,0.0058,0.0,0.0,0.0,0.0,0.0,0.0,0.0,0.0,0.0,0.0,0.0,0.0,0.0,0.0,0.0,0.0,0.0,0.0,0.0,0.0,0.0,0.0,0.0,0.0,0.0,0.0,0.0,0.0,0.0,0.0,0.0,0.0,0.0,0.0,0.0,0.0,0.0,0.0,0.0,0.0,0.0,0.0,0.0,0.0,0.0,0.0,0.0,0.0,0.0,0.0,0.0,0.0,0.0,0.0,0.0,0.0,0.0,0.0,0.0,0.0,0.0,1.595,1.5571,1.5046,1.4802,1.415,1.3028,1.2303,1.176,1.1482,1.1156,1.1144,1.1415,1.179,1.2122,1.2358,1.2768,1.2488,1.1739,1.1787,1.1623,1.1299,1.1148,1.1178,1.1246,0.0,0.0,0.0,0.0,0.0,0.0,0.0,0.0,0.0,0.9521,0.9291,0.9033,0.9049,0.856,0.7828,0.6915,0.5528,0.413,0.3396,0.2946,0.2821,0.3388,0.352,0.3378,0.2624,0.2251,0.1697,0.071,0.0592,0.0474,0.0059,0.0,0.0,0.0,0.0,0.0,0.0,0.0,0.0,0.0,0.0,0.0,0.0,0.0,0.0,0.0,0.0,0.0,0.0,0.0,0.0,0.0,0.0,0.0,0.0,0.0,0.0,0.0,0.0,0.0,0.0,0.0,0.0,0.0,0.0,0.0,0.0,0.0,0.0,0.0,0.0,0.0,0.0,0.0,0.0,0.0,0.0,0.0,0.0,0.0,0.0,0.0,0.0,0.0,0.0,0.0,0.0,0.0,0.0,0.0,0.0,0.0,0.0,1.5713,1.5523,1.5363,1.4854,1.3878,1.3165,1.2559,1.2121,1.1883,1.196,1.2334,1.2952,1.3255,1.3267,1.3658,1.3191,1.2113,1.1909,1.1619,1.13,1.1043,1.1111,1.1369,1.1225,0.0,0.0,0.0,0.0,0.0,0.0,0.0,0.0,0.9273,0.9142,0.8989,0.9242,0.7811,0.6133,0.6262,0.4658,0.286,0.2458,0.2875,0.3384,0.3639,0.3705,0.3376,0.2229,0.2074,0.1685,0.0244,0.006,0.006,0.0,0.0,0.0,0.0,0.0,0.0,0.0,0.0,0.0,0.0,0.0,0.0,0.0,0.0,0.0,0.0,0.0,0.0,0.0,0.0,0.0,0.0,0.0,0.0,0.0,0.0,0.0,0.0,0.0,0.0,0.0,0.0,0.0,0.0,0.0,0.0,0.0,0.0,0.0,0.0,0.0,0.0,0.0,0.0,0.0,0.0,0.0,0.0,0.0,0.0,0.0,0.0,0.0,0.0,0.0,0.0,0.0,0.0,0.0,0.0,0.0,0.0,0.0,1.5713,1.5523,1.4825,1.4456,1.442,1.3811,1.3555,1.371,1.2197,1.1773,1.2393,1.2638,1.3039,1.3595,1.3358,1.2877,1.2258,1.2041,1.1766,1.1495,1.1845,1.2034,1.2034,1.176,0.0,0.0,0.0,0.0,0.0,0.0,0.0,0.0,0.9471,0.926,0.9237,0.9291,0.896,0.839,0.7236,0.6197,0.5141,0.3966,0.3674,0.3663,0.3793,0.3448,0.288,0.2085,0.2402,0.2227,0.0373,0.0436,0.0622,0.0062,0.0,0.0,0.0,0.0,0.0,0.0,0.0,0.0,0.0,0.0,0.0,0.0,0.0,0.0,0.0,0.0,0.0,0.0,0.0,0.0,0.0,0.0,0.0,0.0,0.0,0.0,0.0,0.0,0.0,0.0,0.0,0.0,0.0,0.0,0.0,0.0,0.0,0.0,0.0,0.0,0.0,0.0,0.0,0.0,0.0,0.0,0.0,0.0,0.0,0.0,0.0,0.0,0.0,0.0,0.0,0.0,0.0,0.0,0.0,0.0,0.0,0.0,1.5528,1.5285,1.4971,1.48,1.4798,1.4478,1.4288,1.4196,1.3199,1.2695,1.2689,1.3036,1.3265,1.3358,1.3386,1.2938,1.2195,1.1988,1.172,1.1425,1.179,1.2018,1.2159,1.2171,0.0,0.0,1.1718,0.0,0.0,0.0,0.0,0.0,0.0,0.0,0.9258,0.9427,0.898,0.8221,0.7436,0.6329,0.5126,0.4137,0.3856,0.3806,0.3866,0.3375,0.273,0.2109,0.1997,0.1634,0.0252,0.0316,0.0378,0.0062,0.0,0.0,0.0,0.0,0.0,0.0,0.0,0.0,0.0,0.0,0.0,0.0,0.0,0.0,0.0,0.0,0.0,0.0,0.0,0.0,0.0,0.0,0.0,0.0,0.0,0.0,0.0,0.0,0.0,0.0,0.0,0.0,0.0,0.0,0.0,0.0,0.0,0.0,0.0,0.0,0.0,0.0,0.0,0.0,0.0,0.0,0.0,0.0,0.0,0.0,0.0,0.0,0.0,0.0,0.0,0.0,0.0,0.0,0.0,0.0,0.0,0.0,0.0,1.501,1.5318,1.5384,1.5155,1.5246,1.5057,1.4573,1.4489,1.4056,1.3258,1.3695,1.3609,1.3124,1.3402,1.3071,1.2234,1.2027,1.1783,1.1561,1.1681,1.1885,1.2167,1.2499,1.2677,1.2726,1.2554,1.2536,1.251,1.1997,0.0,0.0,0.0,0.0,0.919,0.9546,0.8697,0.7614,0.7405,0.5886,0.4245,0.3792,0.3788,0.3929,0.3904,0.3341,0.2695,0.2082,0.1454,0.0823,0.0128,0.0,0.0,0.0,0.0,0.0,0.0,0.0,0.0,0.0,0.0,0.0,0.0,0.0,0.0,0.0,0.0,0.0,0.0,0.0,0.0,0.0,0.0,0.0,0.0,0.0,0.0,0.0,0.0,0.0,0.0,0.0,0.0,0.0,0.0,0.0,0.0,0.0,0.0,0.0,0.0,0.0,0.0,0.0,0.0,0.0,0.0,0.0,0.0,0.0,0.0,0.0,0.0,0.0,0.0,0.0,1.9412,1.916,0.0,0.0,0.0,0.0,0.0,0.0,0.0,0.0,0.0,1.5019,1.5311,1.5598,1.5772,1.6234,1.6311,1.6031,1.5961,1.5367,1.4292,1.3911,1.3655,1.3486,1.3112,1.2923,1.2846,1.2604,1.2545,1.2609,1.2629,1.2661,1.2702,1.275,1.2997,1.33,1.326,1.3424,1.3507,1.2368,1.175,0.0,0.0,0.0,0.9313,0.9465,0.9323,0.8854,0.7569,0.574,0.4128,0.3799,0.3775,0.3873,0.387,0.2993,0.2084,0.2035,0.1465,0.0765,0.0128,0.0,0.0,0.0,0.0,0.0,0.0,0.0,0.0,0.0,0.0,0.0,0.0,0.0,0.0,0.0,0.0,0.0,0.0,0.0,0.0,0.0,0.0,0.0,0.0,0.0,0.0,0.0,0.0,0.0,0.0,0.0,0.0,0.0,0.0,0.0,0.0,0.0,0.0,0.0,0.0,0.0,0.0,0.0,0.0,0.0,0.0,0.0,0.0,0.0,0.0,0.0,0.0,0.0,0.0,0.0,0.0,1.8465,0.0,0.0,0.0,0.0,0.0,0.0,0.0,0.0,0.0,1.5503,1.5967,1.6274,1.6352,1.6577,1.6497,1.6084,1.5979,1.5755,1.5452,1.4965,1.4407,1.3739,1.3216,1.3046,1.3125,1.2636,1.2502,1.2651,1.2668,1.2612,1.2551,1.2846,1.3144,1.341,0.0,1.3907,1.4117,1.329,1.2467,1.1636,1.0841,0.0,0.0,0.0,0.9349,0.8804,0.7037,0.5396,0.4095,0.3839,0.3558,0.3331,0.3381,0.2365,0.1444,0.1449,0.0886,0.0381,0.0064,0.0,0.0,0.0,0.0,0.0,0.0,0.0,0.0,0.0,0.0,0.0,0.0,0.0,0.0,0.0,0.0,0.0,0.0,0.0,0.0,0.0,0.0,0.0,0.0,0.0,0.0,0.0,0.0,0.0,0.0,0.0,0.0,0.0,0.0,0.0,0.0,0.0,0.0,0.0,0.0,0.0,0.0,0.0,0.0,0.0,0.0,0.0,0.0,0.0,0.0,0.0,0.0,0.0,0.0,0.0,0.0,0.0,0.0,0.0,0.0,0.0,0.0,0.0,0.0,0.0,0.0,1.6107,1.6691,1.6977,1.6935,1.6948,1.6682,1.6196,1.5914,1.5922,1.6199,1.5835,1.5299,1.4554,1.3872,1.3572,1.3528,1.2906,1.2725,1.2897,1.2661,1.2488,1.239,1.2865,1.3178,0.0,0.0,1.4087,1.4259,1.3761,1.2828,1.1804,1.1359,1.0412,0.0,0.0,0.0,0.792,0.6519,0.5012,0.3753,0.3537,0.3269,0.305,0.2809,0.1981,0.1186,0.1061,0.0439,0.0,0.0,0.0,0.0,0.0,0.0,0.0,0.0,0.0,0.0,0.0,0.0,0.0,0.0,0.0,0.0,0.0,0.0,-0.006,-0.0236,-0.0059,-0.0059,-0.0233,-0.0058,0.0,0.0,0.0,0.0,0.0,0.0,0.0,0.0,0.0,0.0,0.0,0.0,0.0,0.0,0.0,0.0,0.0,0.0,0.0,0.0,0.0,0.0,0.0,0.0,0.0,0.0,0.0,0.0,0.0,0.0,0.0,0.0,0.0,0.0,0.0,0.0,0.0,1.6329,1.6588,0.0,0.0,0.0,0.0,0.0,1.6672,1.7239,0.0,1.7556,1.7556,1.737,1.7036,1.6339,1.6074,1.6192,1.5967,1.61,1.6397,1.5381,1.4675,1.43,1.3757,1.3737,1.393,1.29,1.2512,1.251,1.2741,1.3017,1.3368,1.3745,1.3882,1.3736,1.3215,1.2542,1.1804,1.1201,1.0491,0.9879,0.0,0.0,0.0,0.626,0.4668,0.2915,0.2639,0.308,0.3281,0.2276,0.2027,0.1747,0.1123,0.0437,0.0,0.0,0.0,0.0,0.0,0.0,0.0,0.0,0.0,0.0,0.0,0.0,0.0,0.0,0.0,0.0,0.0,0.0,-0.0239,-0.0834,-0.0296,-0.0235,-0.0815,-0.0289,0.0,0.0,0.0,0.0,0.0,0.0,0.0,0.0,0.0,0.0,0.0,0.0,0.0,0.0,0.0,0.0,0.0,0.0,0.0,0.0,0.0,0.0,0.0,0.0,0.0,0.0,0.0,0.0,0.0,0.0,0.0,0.0,0.0,0.0,0.0,0.0,1.6335,1.641,1.6174,1.6139,0.0,0.0,0.0,0.0,1.7279,1.7819,1.795,1.7608,1.7213,1.6695,1.6072,1.5322,1.5346,1.6057,1.5603,1.5772,1.6444,1.5449,1.505,1.5022,1.3932,1.3673,1.3889,1.2926,1.2585,1.2652,1.2777,1.3232,1.3848,1.4127,1.4458,1.4585,1.3553,1.2772,1.2136,1.1273,1.0498,0.9843,0.959,0.7809,0.594,0.6126,0.4541,0.2853,0.2933,0.2623,0.2298,0.2339,0.1532,0.0784,0.0914,0.0429,0.0,0.0,0.0,0.0,0.0,0.0,0.0,0.0,0.0,0.0,0.0,0.0,0.0,0.0,0.0,0.0,0.0,0.0,-0.0119,-0.0296,-0.0118,-0.0117,-0.0289,-0.0115,0.0,0.0,0.0,0.0,0.0,0.0,0.0,0.0,0.0,0.0,0.0,0.0,0.0,0.0,0.0,0.0,0.0,0.0,0.0,0.0,0.0,0.0,0.0,0.0,0.0,0.0,0.0,0.0,0.0,0.0,0.0,0.0,0.0,0.0,0.0,0.0,0.0,1.6415,1.6082,1.6278,1.6407,1.6317,1.6821,1.7277,1.7595,1.8029,1.8187,1.8043,1.7251,1.6619,1.6139,1.5219,1.5083,1.5646,1.5358,1.5495,1.5975,1.5176,1.5105,1.5538,1.4527,1.4203,1.4264,1.3212,1.2869,1.2947,1.3169,1.3399,1.3693,1.4573,1.4656,1.425,1.3642,1.294,1.2145,0.0,1.0462,0.9596,0.9097,0.7392,0.5686,0.5664,0.4225,0.2742,0.2809,0.2434,0.2064,0.2259,0.1535,0.0872,0.0894,0.0602,0.0242,0.0061,0.0,0.0,0.0,0.0,0.0,0.0,0.0,0.0,0.0,0.0,0.0,0.0,0.0,0.0,0.0,0.0,-0.0059,-0.0295,-0.0118,0.0,0.0,0.0,0.0,0.0,0.0,0.0,0.0,0.0,0.0,0.0,0.0,0.0,0.0,0.0,0.0,0.0,0.0,0.0,0.0,0.0,0.0,0.0,0.0,0.0,0.0,0.0,0.0,0.0,0.0,0.0,0.0,0.0,0.0,0.0,0.0,0.0,0.0,0.0,0.0,0.0,1.6341,1.6583,1.6621,1.6354,1.6898,1.7345,1.7609,0.0,0.0,1.8857,1.7715,1.7188,1.7398,1.6118,1.5309,1.4991,1.5223,1.5261,1.5132,1.463,1.4927,1.5731,1.5545,1.5343,1.5086,1.3755,1.3252,1.342,1.3871,1.3462,1.2893,1.4965,1.4286,1.2562,1.3416,1.287,1.1693,0.0,0.0,0.9106,0.8379,0.6809,0.5231,0.0,0.0,0.0,0.2214,0.2556,0.2754,0.1939,0.2151,0.2237,0.1165,0.0887,0.0716,0.012,0.0,0.0,0.0,0.0,0.0,0.0,0.0,0.0,0.0,0.0,0.0,0.0,0.0,0.0,0.0,0.0,-0.0236,-0.0825,-0.0295,0.0,0.0,0.0,0.0,0.0,0.0,0.0,0.0,0.0,0.0,0.0,0.0,0.0,0.0,0.0,0.0,0.0,0.0,0.0,0.0,0.0,0.0,0.0,0.0,0.0,0.0,0.0,0.0,0.0,0.0,0.0,0.0,1.6187,0.0,0.0,0.0,0.0,0.0,0.0,0.0,1.6848,1.7472,1.7423,1.7321,1.7245,1.7578,1.7915,1.8237,1.8289,1.8271,1.8251,1.774,1.7303,1.6982,1.584,1.5129,1.4837,1.4444,1.4156,1.4063,1.4464,1.4773,1.4976,1.4538,1.4618,1.4961,1.3702,1.3102,1.2949,1.2614,1.2853,1.3326,1.3397,1.3329,1.3041,1.2154,1.1379,1.0602,0.0,0.0,0.0,0.7538,0.644,0.5272,0.4913,0.0,0.0,0.0,0.0,0.0,0.2524,0.1826,0.1179,0.1366,0.0784,0.0171,0.0059,0.0,0.0,0.0,0.0,0.0,0.0,0.0,0.0,0.0,0.0,0.0,0.0,0.0,0.0,0.0,0.0,-0.0059,-0.0236,-0.0117,0.0,0.0,0.0,0.0,0.0,0.0,0.0,0.0,0.0,0.0,0.0,0.0,0.0,0.0,0.0,0.0,0.0,0.0,0.0,0.0,0.0,0.0,0.0,0.0,0.0,0.0,0.0,0.0,0.0,0.0,0.0,1.6933,1.6634,1.6455,0.0,0.0,0.0,0.0,0.0,0.0,0.0,1.7972,1.7976,1.7871,1.7614,1.7864,1.8125,1.8312,1.8388,1.8414,1.8373,1.8083,1.7789,1.7456,1.6235,1.5387,1.4801,1.4057,1.356,1.3399,1.3847,1.4176,1.4412,1.3957,1.4198,1.4786,1.4079,1.3631,1.3323,1.2848,1.2681,1.2736,1.255,1.2236,1.182,1.1232,1.0416,0.9399,0.0,0.0,0.0,0.0,0.0,0.0,0.0,0.3933,0.311,0.2967,0.0,0.0,0.2579,0.1956,0.1256,0.1302,0.0804,0.0274,0.0057,0.0,0.0,0.0,0.0,0.0,0.0,0.0,0.0,0.0,0.0,0.0,0.0,0.0,0.0,0.0,0.0,0.0,0.0,0.0,0.0,0.0,0.0,0.0,0.0,0.0,0.0,0.0,0.0,0.0,0.0,0.0,0.0,0.0,0.0,0.0,0.0,0.0,0.0,0.0,0.0,0.0,0.0,0.0,0.0,0.0,0.0,0.0,1.6664,1.7381,1.7434,1.7406,1.7441,1.7174,0.0,0.0,0.0,0.0,0.0,0.0,0.0,0.0,1.8471,1.8365,1.7828,1.8043,1.821,1.8236,1.8406,1.8587,1.8794,1.8518,1.8293,1.8176,1.6919,1.5825,1.485,1.3965,1.3404,1.3092,1.3133,1.349,1.4002,1.3779,1.399,1.4543,1.4443,1.4204,1.3841,1.3369,1.2481,1.1499,1.1851,1.0996,0.9786,1.0397,0.9521,0.0,0.0,0.0,0.0,0.0,0.5411,0.0,0.0,0.0,0.0,0.3367,0.3001,0.0,0.2377,0.2223,0.1894,0.1093,0.0869,0.0628,0.0109,0.0,0.0,0.0,0.0,0.0,0.0,0.0,0.0,0.0,0.0,0.0,0.0,0.0,0.0,0.0,0.0,0.0,0.0,0.0,0.0,0.0,0.0,0.0,0.0,0.0,0.0,0.0,0.0,0.0,0.0,0.0,0.0,0.0,0.0,0.0,0.0,0.0,0.0,0.0,0.0,0.0,0.0,0.0,0.0,0.0,0.0,1.6972,1.7309,1.7459,1.7109,1.6867,1.707,1.6468,1.6194,1.6777,1.7199,1.782,1.8859,1.8756,0.0,0.0,1.9503,1.9106,1.9039,1.8858,1.8859,1.9128,1.8744,1.8402,1.8174,1.8112,1.7621,1.671,1.6485,1.5761,1.4572,1.4166,1.3674,1.3108,1.3374,1.3479,1.3491,1.3869,1.4054,1.4015,1.2981,1.2283,1.1818,1.069,1.0286,1.0314,0.9633,0.9457,0.9391,0.8434,0.6929,0.5579,0.0,0.0,0.0,0.4892,0.0,0.0,0.0,0.0,0.0,0.0,0.2943,0.0,0.2566,0.2016,0.1472,0.1265,0.0644,0.0142,0.0,0.0,0.0,0.0,0.0,0.0,0.0,0.0,0.0,0.0,0.0,0.0,0.0,0.0,0.0,0.0,0.0,0.0,0.0,0.0,0.0,0.0,0.0,0.0,0.0,0.0,0.0,0.0,0.0,0.0,0.0,0.0,0.0,0.0,0.0,0.0,0.0,0.0,0.0,0.0,0.0,0.0,0.0,0.0,0.0,0.0,1.6924,1.7126,1.7322,1.7436,1.7195,1.7085,1.7271,1.6627,1.6361,1.698,1.7956,1.8683,1.8943,1.9714,2.0334,0.0,0.0,0.0,0.0,1.8885,1.8872,1.9043,1.908,1.893,1.8618,1.8009,1.7363,1.671,1.5768,1.5047,1.4482,1.3885,1.3418,1.3116,1.3571,1.367,1.3527,1.3353,1.3545,1.3943,1.292,1.2329,1.1934,1.022,0.9553,0.9465,0.8431,0.8234,0.8219,0.6769,0.5959,0.0,0.4698,0.3888,0.3367,0.0,0.4177,0.397,0.0,0.0,0.0,0.3984,0.0,0.0,0.0,0.2585,0.2134,0.1696,0.1232,0.0898,0.0662,0.0628,0.0588,0.0348,0.0309,0.0214,0.0055,0.0,0.0,0.0,0.0,0.0,0.0,0.0,0.0,0.0,0.0,0.0,0.0,0.0,0.0,0.0,0.0,0.0,0.0,0.0,0.0,0.0,0.0,0.0,0.0,0.0,0.0,0.0,0.0,0.0,0.0,0.0,0.0,0.0,0.0,0.0,0.0,0.0,0.0,0.0,1.7215,1.7165,1.7247,1.7445,1.7418,1.7422,1.7535,1.6991,1.6784,1.7311,1.8651,1.9542,1.9381,2.1006,2.195,2.1509,0.0,0.0,0.0,1.8587,1.83,1.8313,1.9076,1.9259,1.877,1.778,1.7085,1.6717,1.5003,1.4224,1.4313,1.3552,1.3216,1.3271,1.3598,1.3769,1.3755,1.294,1.2909,1.3376,1.2541,1.2129,1.1759,0.9708,0.8728,0.834,0.7675,0.7283,0.6914,0.586,0.5691,0.5584,0.3835,0.3456,0.0,0.0,0.0,0.0,0.0,0.0,0.0,0.0,0.0,0.386,0.0,0.0,0.0,0.2296,0.2093,0.1899,0.1612,0.1538,0.1375,0.0947,0.0784,0.0603,0.0202,0.0053,0.0,0.0,0.0,0.0,0.0,0.0,0.0,0.0,0.0,0.0,0.0,0.0,0.0,0.0,0.0,0.0,0.0,0.0,0.0,0.0,0.0,0.0,0.0,0.0,0.0,0.0,0.0,0.0,0.0,0.0,0.0,0.0,0.0,0.0,0.0,0.0,0.0,0.0,1.7596,1.7443,1.7511,1.7716,1.7503,1.7321,1.7315,1.686,1.6868,1.7861,1.8932,2.0227,2.1872,2.2586,2.3393,2.4485,2.1583,1.9953,2.051,1.8224,1.6878,1.7009,1.8173,1.8319,1.719,1.6917,1.6304,1.5336,1.4518,1.3979,1.3703,1.3579,1.3626,1.3807,1.34,1.3454,1.3869,1.3397,1.2357,1.0987,0.9717,0.9189,0.8965,0.6938,0.6104,0.6206,0.7188,0.6854,0.6005,0.0,0.5487,0.3993,0.0,0.3956,0.2303,0.4747,0.0,0.0,0.0,0.0,0.0,0.0,0.4826,0.0,0.4368,0.0,0.3247,0.3077,0.0,0.2434,0.2392,0.0,0.0,0.1815,0.1468,0.106,0.0686,0.0285,0.0,0.0,0.0,0.0,0.0,0.0,0.0,0.0,0.0,0.0,0.0,0.0,0.0,0.0,0.0,0.0,0.0,0.0,0.0,0.0,0.0,0.0,0.0,0.0,0.0,0.0,0.0,0.0,0.0,0.0,0.0,0.0,0.0,0.0,0.0,0.0,0.0,0.0,1.7703,1.7641,1.7679,1.7541,1.7292,1.7136,1.7242,1.7837,1.8428,1.8819,2.0539,2.2079,2.2986,2.3615,2.4422,2.5518,2.2596,2.0584,2.0367,1.884,0.0,1.6486,1.7672,1.7897,1.699,1.6274,1.5635,1.4993,1.4203,1.3731,1.3604,1.3584,1.3727,1.3885,1.3924,1.4237,1.4735,1.3091,1.2613,1.2632,0.9229,0.8309,0.8743,0.6551,0.6209,0.6942,0.7443,0.6839,0.5848,0.0,0.5846,0.0,0.0,0.0,0.0,0.5548,0.0,0.0,0.0,0.0,0.0,0.0,0.0,0.0,0.5204,0.0,0.4246,0.0,0.0,0.0,0.0,0.0,0.0,0.0,0.2446,0.2025,0.1157,0.0845,0.0514,0.0049,0.0,0.0,0.0,0.0,0.0,0.0,0.0,0.0,0.0,0.0,0.0,0.0,0.0,0.0,0.0,0.0,0.0,0.0,0.0,0.0,0.0,0.0,0.0,0.0,0.0,0.0,0.0,0.0,0.0,0.0,0.0,0.0,0.0,0.0,0.0,0.0,1.7995,1.7822,1.7835,1.7596,1.7542,1.7662,1.8015,1.8921,1.9778,2.0394,2.2176,2.3567,2.424,2.5153,2.5962,2.6597,2.3993,2.1772,2.0532,1.9165,1.7536,1.5618,1.6882,1.7224,1.6272,1.5717,1.5228,1.4852,1.4018,1.3709,1.3916,1.3751,1.3876,1.4257,1.4291,1.4334,1.423,1.2182,1.178,1.2234,0.8705,0.7887,0.8536,0.6737,0.6736,0.7763,0.7741,0.7002,0.6162,0.706,0.6561,0.0,0.6329,0.0,0.5958,0.0,0.0,0.0,0.7635,0.0,0.0,0.0,0.0,0.0,0.0,0.0,0.0,0.0,0.0,0.0,0.0,0.0,0.0,0.0,0.0,0.2855,0.1631,0.1298,0.0914,0.0092,0.0,0.0,0.0,0.0,0.0,0.0,0.0,0.0,0.0,0.0,0.0,0.0,0.0,0.0,0.0,0.0,0.0,0.0,0.0,0.0,0.0,0.0,0.0,0.0,0.0167,0.0223,0.0281,0.0449,0.0505,0.0449,0.0337,0.0224,0.0223,0.0056,0.0,0.0,1.8588,1.8088,1.7943,1.8128,1.855,1.9179,2.0151,1.978,2.0331,2.2928,2.3417,2.4198,2.6082,2.7587,2.8399,2.8226,2.6121,2.3871,2.1705,1.8808,1.6176,1.3967,0.0,1.5866,1.4435,1.5127,1.5239,1.4709,1.3955,1.3958,1.4647,1.4112,1.4322,1.5117,1.4289,1.2994,1.14,1.0501,0.9156,0.7524,0.7349,0.7466,0.7566,0.7081,0.7282,0.788,0.7826,0.0,0.0,0.7853,0.7681,0.0,0.0,0.0,0.0,0.0,0.0,0.0,0.0,0.0,0.0,0.8184,0.0,0.0,0.0,0.0,0.5431,0.0,0.0,0.0,0.0,0.0,0.0,0.0,0.0,0.0,0.0,0.1482,0.0911,0.0084,0.0,0.0,0.0,0.0,0.0,0.0,0.0,0.0,0.0,0.0,0.0,0.0,0.0,0.0,0.0,0.0,0.0,0.0,0.0,0.0,0.0,0.0,0.0,0.0055,0.061,0.0891,0.0898,0.1516,0.174,0.1684,0.1122,0.0898,0.0786,0.0224,0.0,0.0,1.9922,1.935,1.8832,1.8526,1.8529,1.9036,2.0438,2.0555,2.1742,2.5319,2.6271,2.7446,2.9673,2.943,2.9351,2.9909,2.7687,2.5024,2.2226,2.0551,1.8422,1.5586,1.5958,1.5986,0.0,1.5326,1.5087,1.4698,1.4448,1.4473,1.4689,1.4375,1.463,1.5368,1.4896,1.3664,1.19,1.0601,0.9911,0.9763,1.0705,1.0456,0.9372,0.8199,0.7708,0.7733,0.7831,0.7397,0.0,0.8576,0.8543,0.8241,1.0677,1.1017,1.0782,1.2227,1.2296,0.0,0.0,0.0,1.3005,1.0531,0.0,0.0,0.0,0.0,0.0,0.0,0.0,0.0,0.0,0.0,0.0,0.0,0.0,0.0,0.0,0.1452,0.0811,0.0801,0.0337,0.0,0.0,0.0,0.0,0.0,0.0,0.0,0.0,0.0,0.0,0.0,0.0,0.0,0.0,0.0,0.0,0.0,0.0,0.0,0.0,0.0436,0.0763,0.1153,0.1758,0.2263,0.2615,0.2911,0.2523,0.1794,0.157,0.101,0.0281,0.0056,0.0,0.0,2.1109,2.0499,1.9887,1.9453,1.958,2.0271,2.1859,2.2353,2.3763,2.7259,2.8638,3.0096,3.2238,3.1512,3.0956,3.1303,2.9315,2.6386,2.25,2.1873,2.0076,1.6459,1.6502,1.6325,0.0,0.0,0.0,1.4441,1.4728,1.4888,1.4852,1.4715,1.4932,1.5449,1.5136,1.3337,1.0498,0.9446,0.9277,0.9983,1.2787,1.2904,1.1328,1.0479,0.9407,0.8454,0.0,0.9258,0.9418,1.058,1.0786,1.0967,1.2972,1.3435,1.3385,1.451,1.4698,1.4533,1.4284,1.4765,0.0,1.1919,1.1724,0.0,0.9114,0.0,0.0,0.0,0.0,0.0,0.0,0.0,0.0,0.0,0.0,0.0,0.0,0.1585,0.0952,0.1315,0.0562,0.0369,0.1381,0.057,0.029,0.0989,0.039,0.0,0.0,0.0,0.0,0.0,0.0,0.0,0.0,0.0,0.0,0.0,0.0,0.0109,0.0328,0.0918,0.1512,0.207,0.2895,0.3461,0.3826,0.3688,0.3141,0.2355,0.1738,0.101,0.0281,0.0056,0.0,0.0,2.2161,2.1595,2.1149,2.1009,2.1577,2.2614,2.4282,2.4959,2.6186,2.8781,3.0464,3.2101,3.3833,3.3654,3.3174,3.2396,3.0982,2.7934,2.2798,2.2876,2.1149,1.6817,1.7364,1.6952,1.5235,0.0,0.0,0.0,1.487,1.5217,1.5213,1.5074,1.5129,1.5371,1.4938,1.2051,0.7524,0.7238,0.7401,0.8209,1.336,1.4456,1.3044,1.3611,1.2154,1.0073,1.1389,1.2613,1.3615,1.3506,1.4303,1.5227,1.5102,1.5017,1.5123,1.6115,1.6336,1.6176,1.5863,1.5691,1.5034,1.2508,0.0,0.0,0.0,0.0,0.9659,0.0,0.0,0.0,0.0,0.0,0.0,0.0,0.0,0.0,0.0,0.1955,0.1439,0.1779,0.0811,0.1173,0.3749,0.1625,0.0816,0.2663,0.1069,0.0,0.0,0.0,0.0,0.0,0.0,0.0,0.0,0.0,0.0,0.0,0.0108,0.043,0.1013,0.1652,0.2248,0.2862,0.4086,0.4563,0.4543,0.3967,0.3702,0.3477,0.1628,0.0898,0.0786,0.0224,0.0,0.0,2.3354,2.3523,2.3586,2.3303,2.225,2.219,2.4505,2.4934,2.6373,3.0159,3.2382,3.4118,3.5399,3.48,3.3811,3.2627,3.1325,2.924,2.614,2.5882,2.4456,2.1259,2.0386,1.9341,1.8016,1.7165,1.647,1.5932,1.5431,1.5298,1.5399,1.5035,1.5008,1.5288,1.426,1.2141,0.9245,0.8262,0.8184,0.8995,1.2853,1.3831,1.3227,0.0,1.4001,1.2592,1.2544,1.2984,1.3741,1.4682,1.5434,1.6079,1.7012,1.7181,1.7172,1.7771,1.7586,1.7187,1.7009,1.6528,1.5728,1.448,1.4269,1.4117,0.0,0.0,0.0,0.0,0.0,0.0,0.0,0.0,0.0,0.0,0.0,0.0,0.0,0.0,0.2799,0.3482,0.2695,0.2274,0.271,0.1638,0.1088,0.1591,0.0628,0.0,0.0,0.0,0.0,0.0,0.0,0.0,0.0,0.0,0.0,0.0,0.1299,0.1994,0.2205,0.406,0.5224,0.5772,0.6623,0.7227,0.7515,0.6183,0.5101,0.4091,0.2299,0.101,0.0224,0.0056,0.0,0.0,2.4875,2.5626,2.6078,2.5577,2.5283,2.5481,2.6596,2.6736,2.7919,3.1376,3.3766,3.5425,3.6282,3.5806,3.5113,3.4358,3.2201,2.9964,2.7802,2.7416,2.5919,2.3044,2.2186,2.101,1.9434,1.8841,0.0,1.6621,0.0,1.62,1.5626,1.5066,1.4892,1.4999,1.3995,1.2101,0.9586,0.9375,0.9324,0.9701,1.3384,1.4496,0.0,1.5466,1.5499,1.5015,1.5321,1.5428,1.5503,1.6424,1.7115,1.7672,1.8313,1.8398,1.837,1.8639,1.8212,1.7627,1.7269,1.6623,1.5877,1.5162,1.504,1.4899,1.4194,1.4171,1.4178,0.0,0.0,0.0,0.0,0.0,0.0,0.0,0.0,0.0,0.0,0.0,0.3343,0.4096,0.3762,0.3446,0.338,0.2326,0.1884,0.2419,0.1224,0.0355,0.0,0.0,0.0142,0.0388,0.0153,0.0106,0.0381,0.0108,0.0108,0.0435,0.1886,0.2843,0.3433,0.5441,0.6666,0.7233,0.7442,0.7555,0.7475,0.5519,0.4147,0.3141,0.1626,0.0617,0.0,0.0,0.0,0.0,2.642,2.7573,2.8239,2.7657,2.9091,3.0226,2.997,2.9813,3.0511,3.2844,3.5048,3.6481,3.6822,3.6666,3.6436,3.6136,3.3172,3.0595,2.8809,2.8369,2.6846,2.3874,2.3683,2.2667,2.0587,2.095,1.9841,0.0,0.0,1.7337,1.5723,1.5088,1.4688,1.4502,1.3799,1.1998,0.9505,1.0454,1.0671,1.0619,1.4255,1.5529,1.5432,1.6315,1.6712,1.6988,1.8434,1.8445,1.7909,1.8267,1.8867,1.9379,1.9115,1.9006,1.8993,1.8972,1.8442,1.7646,1.7077,1.6347,1.5693,1.5075,1.4888,1.4776,1.4347,1.4321,1.4457,1.4593,1.4458,1.4417,0.0,0.0,0.0,0.0,0.0,0.0,0.0,0.0,0.381,0.4793,0.4839,0.0,0.5106,0.3461,0.2837,0.3942,0.2269,0.093,0.0382,0.0,0.0467,0.0944,0.0598,0.0625,0.0968,0.0,0.0796,0.1345,0.267,0.3779,0.4794,0.6501,0.7494,0.788,0.7411,0.6813,0.6034,0.3743,0.2299,0.1458,0.0393,0.0,0.0,0.0,0.0,0.0,2.7483,2.8375,2.9048,2.9017,3.0068,3.179,3.4526,3.4033,3.3896,3.5349,3.7115,3.8127,3.7691,3.7118,3.6044,3.4367,3.307,3.196,3.0948,3.0819,2.9869,2.7953,2.738,2.6165,2.4126,2.3203,2.1796,0.0,0.0,1.7366,1.5457,1.4934,1.4332,1.359,1.3091,1.2253,1.1255,1.1224,1.1745,1.2663,1.4003,1.513,1.6112,1.6735,1.7202,1.7678,1.8677,1.8848,1.861,1.9233,1.9394,1.9393,1.9217,1.9081,1.8972,1.8888,1.8317,1.7646,1.7077,1.6465,1.5842,1.53,1.5482,1.5736,1.5154,1.59,1.653,1.5808,1.5919,1.5988,1.5434,0.0,0.0,0.0,0.0,0.0,0.0,0.0,0.6055,0.829,0.7963,0.7329,0.6901,0.4786,0.3496,0.3686,0.2423,0.183,0.2133,0.0,0.1587,0.0,0.2155,0.0,0.0,0.0,0.3554,0.3643,0.5784,0.6913,0.7181,0.8954,0.9315,0.8472,0.85,0.7567,0.5979,0.4187,0.2187,0.0281,0.0056,0.0,0.0,0.0,0.0,0.0,2.9998,3.0724,3.1376,3.1743,3.3473,3.5398,3.7183,3.7632,3.7478,3.6693,3.7415,3.755,3.636,3.6174,3.5631,3.4472,3.3234,3.227,3.1785,3.1262,3.0143,2.8356,2.778,2.6732,2.4966,2.4124,2.2834,2.1012,0.0,0.0,1.5669,1.4467,1.3693,1.3389,1.2631,1.2313,1.2376,1.2724,0.0,1.3685,1.4889,1.5842,1.6715,1.7341,1.7928,1.8445,1.928,1.9477,1.9225,1.9448,1.9481,1.9413,1.9345,1.9169,1.8993,1.8993,1.8403,1.7658,1.7157,1.6291,1.5451,1.4915,1.4715,1.4715,1.4758,1.5287,1.5775,1.5658,1.5809,1.5722,1.4899,1.292,0.0,0.0,0.0,0.0,0.0,0.0,0.6623,0.9321,0.9037,0.8521,0.8277,0.6991,0.5465,0.3787,0.3036,0.2591,0.2371,0.0,0.0,0.0,0.0,0.0,0.0,0.0,0.0,0.5255,0.6932,0.7909,0.8304,0.976,0.9968,0.9128,0.8274,0.6874,0.5072,0.2686,0.1065,0.0,0.0,0.0,0.0,0.0,0.0,0.0,3.2875,3.3408,3.4063,3.5224,3.7308,3.8973,3.9487,4.0652,4.0605,3.8131,3.7616,3.6902,3.5501,3.5541,3.5406,3.4768,3.3327,3.2266,3.1752,3.0896,2.9678,2.804,2.7606,2.6805,2.5582,2.501,2.3753,0.0,0.0,0.0,0.0,1.4015,1.3267,1.341,1.2346,1.2472,0.0,0.0,1.4321,1.4512,1.5697,1.6528,1.7202,1.7816,1.8467,1.911,1.9632,1.9697,1.9455,1.9159,1.9113,1.9233,1.92,1.8966,1.8688,1.8754,1.8274,1.7598,1.7063,1.6077,1.5093,1.4549,1.3945,1.3604,1.4115,1.4386,1.4641,1.514,1.5342,1.5135,1.4237,1.2958,0.0,0.0,0.0,0.0,0.0,0.0,0.7592,1.0395,1.0206,0.9733,0.9456,0.8988,0.7582,0.4937,0.4359,0.3796,0.3082,0.0,0.0,0.0,0.0,0.494,0.5492,0.0,0.6352,0.0,0.7855,0.862,0.9175,1.0053,1.005,0.9234,0.7815,0.6071,0.3923,0.1402,0.0224,0.0,0.0,0.0,0.0,0.0,0.0,0.0,3.5547,3.5637,3.6395,3.952,4.0352,4.1028,4.2478,4.2919,4.2368,4.0421,3.8943,3.7733,3.7079,3.6555,3.5573,3.3899,3.3314,3.2273,3.0518,3.0298,2.9768,2.8817,2.8576,2.8223,2.764,2.6804,2.5269,0.0,0.0,0.0,0.0,0.0,1.3463,1.3539,0.0,0.0,0.0,1.4195,1.4486,1.5632,1.5646,1.6435,1.7678,1.7868,1.8635,1.959,1.9178,1.8935,1.8677,1.805,1.8239,1.8747,1.8617,1.8151,1.762,1.7509,1.74,1.7203,1.6561,1.5846,1.5162,1.4672,1.4112,1.3678,1.3765,1.4313,1.4837,1.4689,1.5046,1.5135,1.4237,1.3955,1.3583,0.0,0.0,0.0,0.0,0.0,1.0869,1.3387,0.0,0.0,1.0588,0.9832,0.9047,0.811,0.6924,0.6176,0.0,0.0,0.0,0.5527,0.0,0.6672,0.637,0.816,0.9104,0.9183,0.9891,1.0256,1.0326,1.0508,0.9661,0.8076,0.8027,0.6046,0.2804,0.1963,0.1009,0.0,0.0,0.0,0.0,0.0,0.0,0.0,3.9559,3.9573,3.9926,4.1849,4.2296,4.2803,4.3961,4.337,4.2509,4.1739,4.0247,3.8956,3.8123,3.6857,3.5676,3.4508,3.3535,3.2236,3.0291,3.0482,2.994,2.8444,2.8415,2.8177,2.7631,2.6642,2.5173,0.0,0.0,0.0,0.0,0.0,0.0,0.0,0.0,1.4125,1.5682,1.5284,1.5533,1.6171,1.6308,1.7032,1.7959,1.8088,1.868,1.9381,1.8761,1.8436,1.8293,1.7911,1.7892,1.7956,1.8029,1.7748,1.7391,1.7409,1.7361,1.7186,1.6564,1.5625,1.4682,1.4248,1.333,1.2683,1.3058,1.3725,1.4326,1.4659,1.521,1.5581,1.5442,1.5095,1.4475,0.0,0.0,0.0,0.0,0.0,0.0,1.4231,0.0,1.2907,1.2125,1.1184,1.0317,0.9475,0.7708,0.6749,0.0,0.0,0.0,0.6577,0.0,0.8592,0.8103,0.9427,1.0163,1.0262,1.0409,1.0543,1.0704,1.0624,0.9654,0.7971,0.7328,0.5383,0.2636,0.2075,0.1065,0.0,0.0,0.0,0.0,0.0,0.0,0.0114,4.3033,4.2971,4.3154,4.4556,4.4628,4.4619,4.5151,4.4011,4.3043,4.2749,4.1689,4.0347,3.8734,3.749,3.6459,3.5642,3.4052,3.2452,3.0789,3.0491,2.9613,2.8066,2.8074,0.0,2.7523,2.5991,2.4598,2.3275,1.9971,0.0,0.0,0.0,0.0,0.0,1.4365,1.5191,1.6155,1.6373,1.6589,1.6838,1.7079,1.7614,1.8312,1.8217,1.8649,1.9132,1.8247,1.7878,1.7782,1.75,1.7223,1.713,1.7331,1.7174,1.6886,1.7006,1.6947,1.6779,1.6389,1.5442,1.4481,1.3951,1.2978,1.2273,1.274,1.3361,1.4175,1.5143,1.57,1.6081,1.65,1.6138,1.5422,1.433,0.0,0.0,0.0,0.0,0.0,0.0,1.4258,1.3607,1.318,1.231,1.1555,1.1041,0.9179,0.7954,0.0,0.0,0.0,0.0,0.0,0.0,0.0,1.016,1.0604,1.0807,1.0684,1.0637,1.0807,1.0519,0.9746,0.8573,0.7342,0.5663,0.3699,0.3085,0.1963,0.0505,0.0505,0.0337,0.0056,0.0393,0.0508,0.0739,4.5407,4.5302,4.5542,4.8118,4.75,4.6568,4.6214,4.5353,4.4448,4.3482,4.3092,4.1808,3.8906,3.8563,3.8195,3.7321,3.4857,3.2944,3.192,3.0088,2.8725,0.0,0.0,2.7698,2.7679,2.5208,2.3665,2.322,0.0,0.0,1.5981,0.0,1.3605,1.4399,1.5014,1.5934,1.6986,1.7173,1.7519,1.788,1.7752,1.8162,1.8829,1.8151,1.8423,1.8916,1.7607,1.7114,1.6983,1.6358,1.6108,1.6178,1.6562,1.6372,1.5896,1.5843,1.5816,1.5816,1.5816,1.5316,1.4648,1.3975,1.3443,1.3067,1.2916,1.3526,1.4605,1.6344,1.647,1.6471,1.7174,1.7073,1.6836,1.6659,0.0,0.0,0.0,0.0,0.0,1.5403,1.4958,1.4329,1.3485,1.2949,1.2868,1.3315,1.1928,0.0,0.0,0.0,0.0,1.0142,0.9354,0.0,1.0077,1.0436,1.0657,1.0807,1.0807,1.0807,1.0751,1.0197,0.9917,0.9802,0.8629,0.7398,0.6218,0.5607,0.3923,0.1794,0.1794,0.1065,0.0168,0.1346,0.1805,0.1933,4.7896,4.8003,4.783,4.799,4.7284,4.6592,4.6231,4.4876,4.3972,4.4329,4.37,4.2866,4.1943,4.0912,3.9508,0.0,3.5706,3.3435,0.0,2.986,2.8974,2.8062,2.8076,2.7572,2.6363,2.507,2.3406,2.1392,0.0,0.0,0.0,1.4519,1.4803,1.5937,1.6431,1.7249,1.8329,1.836,1.8462,1.8533,1.8133,1.812,1.8293,1.7705,1.7699,1.7869,1.6993,1.667,1.667,1.6323,1.6288,1.6367,1.6169,1.602,1.5896,1.5843,1.5816,1.5816,1.5816,1.496,1.4097,1.3852,1.2978,1.2356,1.2881,1.4163,1.5558,1.6517,1.7022,1.7393,1.782,1.7825,1.787,1.8084,1.7853,0.0,0.0,0.0,0.0,0.0,1.4417,1.3896,1.3451,1.3121,0.0,0.0,1.2174,0.0,0.0,0.0,0.0,0.0,1.0384,0.0,1.0171,1.053,1.0778,1.0807,1.0807,1.0807,1.0807,1.0584,1.0312,0.9862,0.9079,0.7793,0.6274,0.5663,0.4485,0.3029,0.3029,0.3029,0.3085,0.3102,0.3354,0.3839,4.8862,4.8898,4.8548,4.7689,4.6978,4.6299,4.5593,4.4514,4.389,4.4255,4.3754,4.3334,4.3407,4.2054,0.0,3.8314,3.6068,3.355,3.0803,2.9727,2.8803,2.7885,2.7978,2.7214,2.5417,2.4167,0.0,2.0148,1.8103,1.6438,1.515,1.5423,1.5944,1.6745,1.7579,1.8382,1.9045,1.9247,1.9247,1.8996,1.8648,1.833,1.8135,1.7521,1.7368,1.7419,1.6734,1.6472,1.652,1.6385,1.6402,1.6418,1.6108,1.5994,1.5967,1.586,1.5816,1.5816,1.5816,1.5021,1.4102,1.3852,1.3026,1.2462,1.3542,1.4933,1.6265,1.7316,1.7758,1.8125,1.8541,1.8582,1.8661,1.8826,1.8728,1.8409,1.7792,0.0,0.0,0.0,0.0,0.0,0.0,1.3839,1.3699,0.0,1.3372,0.0,0.0,0.0,0.0,1.0724,1.0858,0.0,1.0363,1.0624,1.0807,1.0807,1.0807,1.0807,1.0807,1.0807,1.0584,1.0197,0.9579,0.8685,0.7616,0.7007,0.5887,0.4653,0.4877,0.4765,0.4544,0.4919,0.5296,0.5785,4.863,4.8433,4.8002,0.0,4.6677,0.0,4.4471,4.4259,4.408,4.3522,4.3375,4.3347,4.3387,4.2082,4.0569,3.8864,0.0,0.0,0.0,2.9635,2.8276,2.7568,2.7568,2.6641,2.4644,2.2517,2.0723,1.9204,1.7012,1.5907,1.5937,1.6647,1.6963,1.7155,1.8436,1.9131,1.9309,1.9818,1.9707,1.9227,1.9049,1.8699,1.8182,1.7488,1.7316,1.7355,1.6734,1.6472,1.6472,1.6472,1.6472,1.6429,1.619,1.6119,1.6065,1.5887,1.5816,1.5832,1.5832,1.5281,1.4612,1.3999,1.345,1.3418,1.4807,1.5712,1.6812,1.8527,1.8719,1.8765,1.9307,1.9305,1.9169,1.9006,1.883,1.8389,1.7528,0.0,0.0,0.0,0.0,0.0,0.0,1.5011,1.5397,0.0,1.5172,0.0,0.0,0.0,1.1287,1.1884,1.1028,1.0565,1.0692,1.0821,1.0867,1.0807,1.0819,1.0819,1.0807,1.0807,1.0807,1.0751,1.0141,0.9925,0.9917,0.9313,0.8132,0.6668,0.7231,0.6444,0.5219,0.6904,0.7607,0.7908,0.0,0.0,4.7832,4.6736,4.6403,4.5678,4.39,4.3815,4.3933,4.408,4.361,4.3332,4.3347,4.1157,3.8634,3.6003,3.4917,3.3222,3.0469,2.8914,2.7786,2.7072,2.7072,2.563,2.2473,2.1342,1.9414,1.6533,1.6429,1.6637,1.7115,1.727,1.792,1.8875,1.8716,1.8925,1.9413,1.9052,1.8748,1.8484,1.7956,1.7647,1.7482,1.6787,1.6618,1.6734,1.6536,1.6472,1.6472,1.6472,1.6472,1.6445,1.6288,1.6244,1.6179,1.5914,1.5809,1.588,1.588,1.5083,1.4226,1.4096,1.4298,1.4767,1.5427,1.695,1.8342,1.8694,1.9097,1.9388,1.9387,1.9393,1.9291,1.9027,1.8477,1.7936,1.7324,1.6734,0.0,0.0,1.4867,1.5054,1.5069,1.5349,1.5553,0.0,0.0,1.5031,0.0,1.3379,1.2866,1.2742,1.219,1.1799,1.1498,1.145,1.1193,1.0807,1.0824,1.0872,1.0807,1.0807,1.0807,1.0751,1.021,1.0202,1.0536,1.011,0.9804,0.969,0.9918,0.9966,0.9925,1.0072,1.0406,1.0833,4.7612,4.7533,4.7088,4.6211,4.6061,4.5546,4.4048,4.408,4.4281,4.4309,4.3315,4.269,4.2819,3.9883,3.6989,3.4783,3.3595,3.1828,2.9189,2.7986,2.698,2.5871,2.563,2.3862,2.0458,1.9747,1.8001,1.5164,1.6099,1.6717,1.7031,1.7993,1.8631,1.907,1.8955,1.9019,1.9007,1.8631,1.8306,1.7975,1.7593,1.7229,1.695,1.6518,1.6418,1.6472,1.6472,1.6472,1.6472,1.6472,1.6472,1.6509,1.6331,1.6288,1.6244,1.5994,1.5967,1.6005,1.6005,1.5301,1.4539,1.4607,1.5331,1.6261,1.6693,1.799,1.9107,1.9273,1.9568,1.9732,1.9644,1.9569,1.9393,1.8959,1.8357,1.7636,1.6978,1.6497,0.0,1.5061,1.5611,1.6021,1.5944,1.6491,1.6749,1.6525,1.6413,0.0,1.5253,1.4725,1.4009,1.3121,1.2703,1.2438,1.2309,1.2207,1.1897,1.1325,1.138,1.1185,1.0872,1.0857,1.1187,1.1714,1.1415,1.1824,1.2626,1.2403,1.2262,1.217,1.2114,1.217,1.2179,1.1952,1.208,1.2417,4.6897,4.6615,4.6215,4.5969,4.5849,4.5485,4.4598,4.4581,4.4558,4.4287,4.2771,4.1777,4.174,3.8373,3.5502,3.3842,3.1841,2.9922,2.804,2.7231,2.6207,2.4745,2.3935,2.2104,1.8925,1.798,1.6601,1.4668,1.5809,1.652,1.6834,1.8567,1.9089,1.8725,1.9172,1.8987,1.8366,1.8303,1.7984,1.755,1.743,1.7068,1.656,1.6527,1.65,1.65,1.65,1.6483,1.6472,1.6472,1.6472,1.6456,1.6347,1.6315,1.6304,1.619,1.6225,1.634,1.6261,1.589,1.5462,1.5509,1.6463,1.7567,1.8106,1.8811,1.9552,1.9974,1.9963,1.9875,1.9875,1.9814,1.9507,1.883,1.8221,1.7446,1.6639,0.0,1.5998,1.5653,1.6604,1.7202,1.7015,1.7716,1.81,1.7751,1.7488,1.7164,1.6753,1.6095,1.5134,1.3756,1.3247,1.299,1.3029,1.2982,1.2696,1.2287,1.23,1.2022,1.1472,1.1558,1.2114,1.3111,1.3167,1.3886,1.4906,1.495,1.47,1.4253,1.4112,1.3793,1.3466,1.3491,1.3499,1.3646,4.6428,4.6332,4.6354,4.6619,4.619,4.5655,4.5196,4.4458,4.3975,4.389,4.257,4.1041,3.9452,3.7013,3.4358,3.1317,2.9395,2.8292,2.8187,2.7108,2.6091,2.5175,2.338,2.1391,1.9072,1.6558,1.5015,1.4668,1.5298,1.6456,1.8173,1.8497,1.8954,1.9516,1.9002,1.8489,1.7883,1.7281,1.6977,1.677,1.6743,1.6689,1.6576,1.656,1.6614,1.6614,1.6614,1.6554,1.6472,1.6472,1.6472,1.6472,1.6509,1.6445,1.6445,1.6418,1.6853,1.7281,1.7161,1.7091,1.7085,1.6971,1.7584,1.8228,1.8677,1.9411,1.9974,1.9942,1.9888,1.9875,1.9875,1.9814,1.9473,1.8687,1.7758,1.6978,1.6578,0.0,1.6266,1.6157,1.7095,1.7722,1.7716,1.7839,1.8024,1.8352,1.8201,1.7858,1.7328,1.7275,1.6907,1.6173,1.502,1.4139,1.3642,1.3222,1.3164,1.3538,1.3628,1.3848,1.4196,1.4207,1.4326,1.4486,1.4536,1.4932,1.547,1.5693,1.5941,1.6095,1.6191,1.6116,1.5936,1.6043,1.6108,1.6079,4.6193,4.6582,4.6819,4.6981,4.6765,4.6473,4.6372,4.5457,4.4647,4.4103,4.1971,3.9955,3.8548,3.5498,3.2779,3.0889,2.8948,2.7662,2.729,2.6404,2.5177,2.3571,2.1899,1.9587,1.6429,1.4938,1.4195,1.4149,1.5418,1.6725,1.7993,1.8694,1.9088,1.9168,1.884,1.8137,1.7223,1.6956,1.682,1.6837,1.6766,1.6782,1.682,1.6766,1.6631,1.6587,1.6712,1.6625,1.6553,1.6614,1.6614,1.657,1.6641,1.6652,1.6652,1.6652,1.7079,1.7669,1.8303,1.8518,1.8746,1.9445,1.9868,2.0124,2.0173,2.0547,2.0734,2.0222,2.0119,2.0098,2.001,1.9875,1.9501,1.8616,1.786,0.0,0.0,1.6876,1.6961,1.7447,1.8093,1.8615,1.8688,1.8701,1.866,1.8738,1.8728,1.8538,1.8157,1.7949,1.7685,1.7325,1.6403,1.5693,1.5344,1.5179,1.5086,1.4973,1.5028,1.5,1.4885,1.4888,1.5239,1.5871,1.593,1.6479,1.7339,1.7433,1.7575,1.7678,1.7327,1.7167,1.7167,1.6809,1.6743,1.6759,4.6332,4.6864,4.7267,4.7439,4.73,4.7235,4.728,4.6107,4.479,4.3731,4.107,3.8672,3.7078,3.4024,3.1647,3.0515,2.8807,2.7378,2.64,2.56,2.4467,2.2861,2.1242,1.8532,1.458,1.4512,1.4542,1.4668,1.6091,1.7196,1.7993,1.9019,1.9299,1.8954,1.8818,1.8131,1.711,1.6973,1.6951,1.6989,1.6907,1.6918,1.6989,1.6907,1.6978,1.7143,1.7277,1.7289,1.7249,1.727,1.7151,1.6895,1.6793,1.682,1.6891,1.7206,1.7925,1.8793,1.9811,2.0167,2.053,2.1612,2.1837,2.1758,2.1614,2.1574,2.1386,2.0671,2.0399,2.0295,2.0173,2.0031,1.9644,1.8776,0.0,0.0,0.0,1.7473,1.7779,1.8765,1.9199,1.946,1.971,1.9603,1.9413,1.9115,1.9094,1.9027,1.8929,1.8568,1.8268,1.8105,1.7303,1.6835,1.6786,1.6835,1.6691,1.6425,1.6425,1.6197,1.5814,1.5854,1.6377,1.7275,1.7311,1.7884,1.882,1.882,1.882,1.8742,1.8121,1.7961,1.7981,1.7409,1.728,1.7303,4.7018,4.719,4.7377,4.8045,4.761,4.728,4.7626,4.5465,4.327,4.194,3.9765,3.7021,3.3764,3.2893,3.1601,2.9152,2.8235,2.7242,2.5837,2.5055,2.4795,2.5127,2.271,1.9617,1.6045,1.6359,1.6891,1.7527,1.7423,1.8075,1.9331,1.9465,1.9613,1.9798,1.9148,1.8582,1.8083,1.7429,1.7103,1.7005,1.6989,1.6989,1.7005,1.6989,1.7694,1.8776,1.8904,1.9179,1.9413,1.8916,1.8308,1.7663,1.7011,1.682,1.7087,1.838,2.0181,2.1795,2.1846,2.2204,2.2601,2.2672,2.2617,2.2461,2.2375,2.1946,2.1519,2.1307,2.0699,2.0329,2.0315,2.0187,1.9834,1.9081,0.0,0.0,1.8057,1.8036,1.8534,1.9937,1.9912,2.0072,2.0746,2.0202,1.9712,1.9413,1.9393,1.9325,1.9183,1.9123,1.9123,1.9103,1.7542,1.6823,1.7073,1.6835,1.705,1.7646,1.7646,1.7943,1.8503,1.8523,1.8581,1.8626,1.8639,1.8704,1.882,1.882,1.882,1.8762,1.8742,1.8704,1.8704,1.8684,1.8639,1.8581,4.6582,4.6941,4.7267,4.7548,4.7362,4.6997,4.6447,4.5015,4.291,4.0054,3.7984,3.5625,3.2639,3.1491,3.0164,2.8366,2.7496,2.6528,2.5079,2.3949,2.2995,2.2336,2.0383,1.8449,1.6668,1.7159,1.7527,1.7793,1.8078,1.869,1.96,1.9664,1.9761,1.9882,1.9776,1.9402,1.8844,1.8639,1.8488,1.8447,1.8905,1.9092,1.9092,1.8947,1.9225,1.9511,1.9191,1.9061,1.907,1.9119,1.9221,1.9303,1.9067,1.9349,1.9942,2.1317,2.2295,2.3162,2.4095,2.3609,2.3022,2.391,2.3658,2.3187,2.3188,2.2658,2.2174,2.2116,2.1217,2.0501,2.0853,2.0539,2.0064,1.9501,0.0,1.8934,1.8938,1.9262,1.9845,2.0665,2.0716,2.0795,2.1149,2.0361,1.982,1.9712,1.9624,1.9556,1.9488,1.9393,1.9393,1.9488,1.8661,1.83,1.8418,1.83,1.8385,1.868,1.8594,1.8664,1.8905,1.8854,1.882,1.882,1.882,1.882,1.882,1.882,1.882,1.882,1.882,1.882,1.882,1.882,1.882,1.8762,4.6582,4.6941,4.719,4.719,4.6864,4.6309,4.5594,4.368,4.1275,3.838,3.6171,3.3873,3.1206,3.0171,2.916,2.7907,2.6922,2.5862,2.4683,2.3097,2.1627,2.0433,1.971,1.8899,1.7983,1.8474,1.8716,1.8716,1.9085,1.9484,1.9927,2.0043,2.0148,2.0214,2.0233,1.998,1.9648,1.963,1.963,1.9702,2.0433,2.054,2.0296,2.0251,2.0364,2.0617,2.0298,2.0266,2.0499,2.0587,2.0759,2.089,2.0792,2.1355,2.2275,2.3215,2.3817,2.4411,2.5401,2.4655,2.3873,2.4838,2.4533,2.3992,2.4055,2.3461,2.2893,2.2692,2.1895,2.128,2.1435,2.1322,2.1034,2.0677,2.048,2.0307,2.0251,2.0608,2.1117,2.1735,2.1698,2.1694,2.1947,2.0955,2.0299,2.0264,1.9984,1.9786,1.9793,1.959,1.9556,1.9725,1.9507,1.9345,1.9345,1.9257,1.9203,1.9203,1.9094,1.9061,1.9047,1.8905,1.883,1.883,1.883,1.883,1.883,1.883,1.8871,1.8905,1.8909,1.8871,1.8905,1.8905,1.8905,1.8905,4.7051,4.719,4.719,4.719,4.6038,4.516,4.5034,4.1314,3.806,3.7003,3.4372,3.1584,2.904,2.8998,2.8771,2.7868,2.6511,2.5401,2.4602,2.2554,2.1116,2.0452,2.1621,2.167,2.0232,2.0596,2.077,2.077,2.0614,2.0476,2.0539,2.0702,2.0858,2.1001,2.0436,2.0317,2.0452,2.0433,2.0433,2.0499,2.1169,2.0877,2.018,2.0381,2.1113,2.2053,2.2374,2.3236,2.4237,2.3684,2.3076,2.2414,2.1627,2.2414,2.3538,2.3538,2.4551,2.568,2.568,2.555,2.5404,2.5404,2.5128,2.4917,2.5104,2.4294,2.3446,2.2913,2.2822,2.2623,2.1932,2.2491,2.3021,2.2692,2.2498,2.2341,2.2122,2.2085,2.24,2.3317,2.2913,2.2818,2.3356,2.2143,2.1256,2.1107,2.0471,2.0031,1.9936,1.9793,1.9725,1.9725,1.9725,1.9725,1.9725,1.9359,1.9203,1.9203,1.9203,1.9203,1.9203,1.9061,1.8993,1.8993,1.8993,1.8993,1.8993,1.8993,1.9081,1.9183,1.904,1.9081,1.9203,1.9203,1.9203,1.9203,4.6181,4.5667,4.5085,4.4868,4.331,4.1613,4.0391,3.8011,3.551,3.3253,3.1759,3.0212,2.8328,2.814,2.7846,2.7102,2.5722,2.4206,2.2502,2.1766,2.1302,2.1116,2.1351,2.1294,2.0801,2.0807,2.077,2.077,2.0614,2.0594,2.0702,2.0858,2.0967,2.1021,2.1587,2.1864,2.1906,2.2428,2.262,2.2686,2.3355,2.32,2.2563,2.2484,2.2602,2.2841,2.2485,2.2886,2.3599,2.3567,2.3744,2.4023,2.4345,2.4691,2.5013,2.5013,2.5335,2.568,2.568,2.5632,2.5575,2.5445,2.5234,2.5079,2.5055,2.4476,2.3996,2.4245,2.3611,2.3085,2.3222,2.3207,2.3081,2.2984,2.2785,2.2703,2.2763,2.3005,2.3299,2.3683,2.3509,2.3322,2.3356,2.2596,2.1819,2.1176,2.0471,2.0031,1.9936,2.0263,2.0255,1.9725,2.0083,2.0144,1.9725,1.9576,1.9522,1.9522,1.9413,1.9359,1.9359,1.9203,1.9081,1.8993,1.9094,1.9081,1.8993,1.9094,1.9169,1.9203,1.9149,1.9169,1.9203,1.9203,1.9203,1.9203,4.4904,4.4116,4.3382,4.2931,4.0927,3.8999,3.7868,3.5269,3.2901,3.1509,3.0023,2.8647,2.7522,2.7382,2.7102,2.6388,2.5013,2.356,2.1972,2.1581,2.1375,2.1375,2.1353,2.1211,2.1001,2.0912,2.0804,2.0682,2.0648,2.0682,2.0834,2.1243,2.149,2.1545,2.2527,2.2958,2.2965,2.3693,2.4015,2.4089,2.4757,2.4578,2.3917,2.3813,2.3752,2.3714,2.3316,2.3674,2.4272,2.4388,2.4683,2.5079,2.554,2.568,2.568,2.568,2.568,2.568,2.568,2.568,2.5656,2.5526,2.538,2.5274,2.5339,2.491,2.4539,2.4701,2.4273,2.3951,2.4049,2.4062,2.401,2.401,2.3909,2.3935,2.4289,2.4485,2.4756,2.5051,2.4763,2.4435,2.4203,2.3371,2.2571,2.1778,2.122,2.0934,2.0772,2.1077,2.084,2.0083,2.044,2.0333,1.9725,1.9725,1.9725,1.9725,1.9569,1.9522,1.9522,1.9359,1.9237,1.9169,1.9257,1.9237,1.9169,1.9257,1.9325,1.9379,1.9305,1.9325,1.9379,1.9379,1.9379,1.9379,4.3449,4.2702,4.1935,4.1172,3.8836,3.6941,3.6535,3.2784,3.019,3.0735,2.8781,2.7157,2.6666,2.6577,2.6388,2.5746,2.4477,2.3355,2.2568,2.1899,2.1441,2.1375,2.1375,2.1299,2.1065,2.1086,2.0929,2.0623,2.0837,2.0969,2.0969,2.1831,2.2248,2.2463,2.3296,2.3693,2.37,2.4411,2.4683,2.4757,2.5401,2.5181,2.4465,2.4555,2.4516,2.4465,2.4555,2.5079,2.568,2.568,2.568,2.568,2.568,2.568,2.568,2.568,2.568,2.568,2.568,2.568,2.568,2.568,2.555,2.5461,2.5632,2.542,2.5031,2.4582,2.4844,2.5047,2.4582,2.5013,2.542,2.542,2.5469,2.5672,2.6162,2.6248,2.6429,2.6895,2.636,2.5876,2.5626,2.4395,2.3321,2.2703,2.2435,2.2278,2.21,2.2051,2.1603,2.069,2.069,2.044,1.9847,1.9786,1.9725,1.9786,1.9786,1.9786,1.9786,1.9582,1.9447,1.9374,1.9447,1.9447,1.9374,1.9447,1.9535,1.9705,1.9501,1.9535,1.9725,1.9725,1.9725,1.9725,4.2365,4.1487,4.0281,3.8287,3.6139,3.3934,3.1762,2.9437,2.7737,2.7354,2.6469,2.5812,2.5714,2.5845,2.5886,2.568,2.4873,2.3883,2.2568,2.2362,2.1972,2.1441,2.1375,2.1503,2.1787,2.1964,2.1873,2.1498,2.2089,2.2374,2.2374,2.2728,2.297,2.3118,2.4005,2.4411,2.4411,2.5145,2.5466,2.5475,2.5606,2.5261,2.4555,2.4594,2.4594,2.4555,2.4594,2.5079,2.568,2.568,2.568,2.568,2.568,2.568,2.568,2.568,2.568,2.568,2.568,2.568,2.568,2.568,2.5656,2.5632,2.568,2.5615,2.5526,2.5217,2.542,2.546,2.5217,2.546,2.5615,2.5615,2.5968,2.6358,2.6581,2.679,2.7103,2.7337,2.6945,2.6447,2.5761,2.429,2.3371,2.3384,2.2855,2.239,2.21,2.2596,2.2374,2.1426,2.1403,2.1304,2.1176,2.0204,1.9955,2.038,2.038,2.038,2.038,2.0344,2.0019,1.9434,1.9556,1.9535,1.9387,1.9556,1.9684,1.9725,1.9624,1.9684,1.9725,1.9725,1.9725,1.9725,4.0905,3.9831,3.8363,3.6238,3.4455,3.2422,2.9792,2.7986,2.6722,2.627,2.5662,2.5315,2.5396,2.5575,2.568,2.568,2.5013,2.4295,2.356,2.2892,2.2502,2.2436,2.2104,2.2218,2.2784,2.3177,2.3022,2.231,2.2463,2.2737,2.3054,2.3532,2.383,2.4066,2.4886,2.5246,2.5399,2.5791,2.5891,2.5802,2.5802,2.5555,2.5145,2.5145,2.5145,2.5145,2.5145,2.5295,2.555,2.555,2.555,2.5567,2.5656,2.568,2.568,2.568,2.568,2.568,2.568,2.568,2.568,2.568,2.568,2.568,2.568,2.568,2.5656,2.555,2.555,2.555,2.5526,2.555,2.5706,2.6117,2.6444,2.6877,2.761,2.7843,2.8016,2.8305,2.7866,2.7051,2.5761,2.4574,2.3937,2.4087,2.3779,2.3417,2.3153,2.3456,2.3261,2.2321,2.2237,2.2009,2.1773,2.0962,2.0926,2.1532,2.0926,2.0751,2.1047,2.1047,2.0694,1.9972,2.0109,1.992,1.9556,1.9684,1.9725,1.9725,1.9725,1.9725,1.9725,1.9725,1.9725,1.9725,3.9048,3.8094,3.6723,3.4335,3.3211,3.1672,2.8914,2.7416,2.6423,2.6002,2.5442,2.5209,2.538,2.5575,2.568,2.568,2.5145,2.4683,2.4411,2.3355,2.2892,2.3421,2.2826,2.2892,2.3721,2.4206,2.4007,2.3033,2.292,2.3103,2.3692,2.4287,2.4745,2.5074,2.565,2.6038,2.6208,2.6208,2.6103,2.5932,2.5932,2.5826,2.568,2.568,2.568,2.568,2.568,2.555,2.5404,2.5445,2.542,2.5445,2.5615,2.568,2.568,2.568,2.568,2.568,2.568,2.568,2.568,2.568,2.568,2.568,2.568,2.568,2.568,2.568,2.555,2.5485,2.5656,2.555,2.569,2.6437,2.6717,2.7308,2.8488,2.8788,2.8959,2.9076,2.8342,2.7258,2.5761,2.4946,2.4568,2.4592,2.4568,2.4486,2.434,2.427,2.3994,2.3222,2.295,2.2612,2.2153,2.1781,2.2017,2.2751,2.1532,2.1236,2.1782,2.1661,2.1236,2.063,2.063,2.0333,1.9847,1.9847,1.9847,1.9847,1.9725,1.9725,1.9725,1.9725,1.9725,1.9725,3.6624,3.6857,3.6183,3.1899,3.192,3.1309,2.746,2.6751,2.6245,2.5204,2.5103,2.5209,2.538,2.5575,2.568,2.568,2.5606,2.5013,2.3832,2.356,2.3237,2.2641,2.2568,2.3024,2.4187,2.3874,2.3851,2.4087,2.472,2.5013,2.5151,2.52,2.5452,2.5791,2.5866,2.6038,2.6208,2.6208,2.6103,2.5932,2.5932,2.5826,2.568,2.568,2.568,2.568,2.568,2.555,2.542,2.5591,2.5526,2.5445,2.5615,2.568,2.568,2.568,2.568,2.568,2.568,2.568,2.568,2.568,2.568,2.568,2.568,2.568,2.568,2.568,2.5656,2.5656,2.568,2.5656,2.5722,2.5796,2.6857,2.7702,2.7907,2.88,2.932,2.8746,2.7216,2.6028,2.5626,2.4839,2.4383,2.4576,2.4462,2.4356,2.427,2.427,2.4124,2.3722,2.3148,2.2939,2.3258,2.2145,2.2206,2.3339,2.269,2.2372,2.244,2.1888,2.1236,2.063,2.063,2.0562,2.0501,2.0501,2.0501,2.044,1.9914,1.9725,1.9725,1.9725,1.9725,1.9725,3.6857,3.6857,3.6109,3.3324,3.2705,3.162,2.873,2.7298,2.6265,2.5411,2.5158,2.5104,2.525,2.5117,2.4939,2.4551,2.4551,2.4229,2.3626,2.3626,2.3626,2.3693,2.3693,2.4117,2.5091,2.49,2.485,2.5091,2.5018,2.5157,2.555,2.5656,2.5843,2.6078,2.6184,2.6338,2.6509,2.6509,2.6338,2.6078,2.6078,2.5932,2.568,2.568,2.5615,2.551,2.542,2.538,2.542,2.5485,2.5461,2.5445,2.5615,2.568,2.568,2.568,2.568,2.568,2.568,2.568,2.568,2.568,2.568,2.568,2.568,2.568,2.568,2.568,2.568,2.568,2.568,2.568,2.5812,2.6207,2.6782,2.7265,2.757,2.8115,2.8239,2.7692,2.6542,2.5694,2.5609,2.4814,2.4397,2.4576,2.434,2.4275,2.4462,2.4292,2.417,2.4105,2.3595,2.3467,2.3682,2.2979,2.2751,2.2984,2.3045,2.2924,2.2622,2.263,2.1888,2.063,2.0986,2.0926,2.0569,2.0272,2.0501,2.1047,2.0083,1.9725,1.9725,1.9725,1.9725,1.9725]},{"header":{"parameterUnit":"m.s-1","parameterCategory":1,"la1":30.6,"la2":28.766,"lo1":-90.7593,"lo2":-88.6598,"dy":0.0162,"dx":0.0183,"nx":116,"ny":114,"refTime":"2023-04-11T18:00:00:Z","depth":0,"parameterNumber":3,"parameterNumberName":"V-component_of_WINDS"},"data":[0.0,0.0,0.0,0.0,0.0,0.0,0.0,0.0,0.0,0.0,0.0,0.0,0.0,0.0,0.0,0.0,0.0,0.0,0.0,0.0,0.0,0.0,0.0,0.0,0.0,0.0,0.0,0.0,0.0,0.0,0.0,0.0,0.0,0.0,0.0,0.0,0.0,0.0,0.0,0.0,0.0,0.0,0.0,0.0,0.0,0.0,0.0,0.0,0.0,0.0,0.0,0.0,0.0,0.0,0.0,0.0,0.0,0.0,0.0,0.0,0.0,0.0,0.0,0.0,0.0,0.0,0.0,0.0,0.0,0.0,0.0,0.0,0.0,0.0,0.0,0.0,0.0,0.0,0.0,0.0,0.0,0.0,0.0,0.0,0.0,0.0,0.0,0.0,0.0,0.0,0.0,0.0,0.0,0.0,0.0,0.0,0.0,0.0,0.0,0.0,0.0,0.0,0.0,0.0,0.0,0.0,0.0,0.0,0.0,0.0,0.0,0.0,0.0,0.0,0.0,0.0,0.0,0.0,0.0,0.0,0.0,0.0,0.0,0.0,0.0,0.0,0.0,0.0,0.0,0.0,0.0,0.0,0.0,0.0,0.0,0.0,0.0,0.0,0.0,0.0,0.0,0.0,0.0,0.0,0.0,0.0,0.0,0.0,0.0,0.0,0.0,0.0,0.0,0.0,0.0,0.0,0.0,0.0,0.0,0.0,0.0,0.0,0.0,0.0,0.0,0.0,0.0,0.0,0.0,0.0,0.0,0.0,0.0,0.0,0.0,0.0,0.0,0.0,0.0,0.0,0.0,0.0,0.0,0.0,0.0,0.0,0.0,0.0,0.0,0.0,0.0,0.0,0.0,0.0,0.0,0.0,0.0,0.0,0.0,0.0,0.0,0.0,0.0,0.0,0.0,0.0,0.0,0.0,0.0,0.0,0.0,0.0,0.0,0.0,0.0,0.0,0.0,0.0,0.0,0.0,0.0,0.0,0.0,0.0,0.0,0.0,0.0,0.0,0.0,0.0,0.0,0.0,0.0,0.0,0.0,0.0,0.0,0.0,0.0,0.0,0.0,0.0,0.0,0.0,0.0,0.0,0.0,0.0,0.0,0.0,0.0,0.0,0.0,0.0,0.0,0.0,0.0,0.0,0.0,0.0,0.0,0.0,0.0,0.0,0.0,0.0,0.0,0.0,0.0,0.0,0.0,0.0,0.0,0.0,0.0,0.0,0.0,0.0,0.0,0.0,0.0,0.0,0.0,0.0,0.0,0.0,0.0,0.0,0.0,0.0,0.0,0.0,0.0,0.0,0.0,0.0,0.0,0.0,0.0,0.0,0.0,0.0,0.0,0.0,0.0,0.0,0.0,0.0,0.0,0.0,0.0,0.0,0.0,0.0,0.0,0.0,0.0,0.0,0.0,0.0,0.0,0.0,0.0,0.0,0.0,0.0,0.0,0.0,0.0,0.0,0.0,0.0,0.0,0.0,0.0,0.0,0.0,0.0,0.0,0.0,0.0,0.0,0.0,0.0,0.0,0.0,0.0,0.0,0.0,0.0,0.0,0.0,0.0,0.0,0.0,0.0,0.0,0.0,0.0,0.0,0.0,0.0,0.0,0.0,0.0,0.0,0.0,0.0,0.0,0.0,0.0,0.0,0.0,0.0,0.0,0.0,0.0,0.0,0.0,0.0,0.0,0.0,0.0,0.0,0.0,0.0,0.0,0.0,0.0,0.0,0.0,0.0,0.0,0.0,0.0,0.0,0.0,0.0,0.0,0.0,0.0,0.0,0.0,0.0,0.0,0.0,0.0,0.0,0.0,0.0,0.0,0.0,0.0,0.0,0.0,0.0,0.0,0.0,0.0,0.0,0.0,0.0,0.0,0.0,0.0,0.0,0.0,0.0,0.0,0.0,0.0,0.0,0.0,0.0,0.0,0.0,0.0,0.0,0.0,0.0,0.0,0.0,0.0,0.0,0.0,0.0,0.0,0.0,0.0,0.0,0.0,0.0,0.0,0.0,0.0,0.0,0.0,0.0,0.0,0.0,0.0,0.0,0.0,0.0,0.0,0.0,0.0,0.0,0.0,0.0,0.0,0.0,0.0,0.0,0.0,0.0,0.0,0.0,0.0,0.0,0.0,0.0,0.0,0.0,0.0,0.0,0.0,0.0,0.0,0.0,0.0,0.0,0.0,0.0,0.0,0.0,0.0,0.0,0.0,0.0,0.0,0.0,0.0,0.0,0.0,0.0,0.0,0.0,0.0,0.0,0.0,0.0,0.0,0.0,0.0,0.0,0.0,0.0,0.0,0.0,0.0,0.0,0.0,0.0,0.0,0.0,0.0,0.0,0.0,0.0,0.0,0.0,0.0,0.0,0.0,0.0,0.0,0.0,0.0,0.0,0.0,0.0,0.0,0.0,0.0,0.0,0.0,0.0,0.0,0.0,0.0,0.0,0.0,0.0,0.0,0.0,0.0,0.0,0.0,0.0,0.0,0.0,0.0,0.0,0.0,0.0,0.0,0.0,0.0,0.0,0.0,0.0,0.0,0.0,0.0,0.0,0.0,0.0,0.0,0.0,0.0,0.0,0.0,0.0,0.0,0.0,0.0,0.0,0.0,0.0,0.0,0.0,0.0,0.0,0.0,0.0,0.0,0.0,0.0,0.0,0.0,0.0,0.0,0.0,0.0,0.0,0.0,0.0,0.0,0.0,0.0,0.0,0.0,0.0,0.0,0.0,0.0,0.0,0.0,0.0,0.0,0.0,0.0,0.0,0.0,0.0,0.0,0.0,0.0,0.0,0.0,0.0,0.0,0.0,0.0,0.0,0.0,0.0,0.0,0.0,0.0,0.0,0.0,0.0,0.0,0.0,0.0,0.0,0.0,0.0,0.0,0.0,0.0,0.0,0.0,0.0,0.0,0.0,0.0,0.0,0.0,0.0,0.0,0.0,0.0,0.0,0.0,0.0,0.0,0.0,0.0,0.0,0.0,0.0,0.0,0.0,0.0,0.0,0.0,0.0,0.0,0.0,0.0,0.0,0.0,0.0,0.0,0.0,0.0,0.0,0.0,0.0,0.0,0.0,0.0,0.0,0.0,0.0,0.0,0.0,0.0,0.0,0.0,0.0,0.0,0.0,0.0,0.0,0.0,0.0,0.0,0.0,0.0,0.0,0.0,0.0,0.0,0.0,0.0,0.0,0.0,0.0,0.0,0.0,0.0,0.0,0.0,0.0,0.0,0.0,0.0,0.0,0.0,0.0,0.0,0.0,0.0,0.0,0.0,0.0,0.0,0.0,0.0,0.0,0.0,0.0,0.0,0.0,0.0,0.0,0.0,0.0,0.0,0.0,0.0,0.0,0.0,0.0,0.0,0.0,0.0,0.0,0.0,0.0,0.0,0.0,0.0,0.0,0.0,0.0,0.0,0.0,0.0,0.0,0.0,0.0,0.0,0.0,0.0,0.0,0.0,0.0,0.0,0.0,0.0,0.0,0.0,0.0,0.0,0.0,0.0,0.0,0.0,0.0,0.0,0.0,0.0,0.0,0.0,0.0,0.0,0.0,0.0,0.0,0.0,0.0,0.0,0.0,0.0,0.0,0.0,0.0,0.0,0.0,0.0,0.0,0.0,0.0,0.0,0.0,0.0,0.0,0.0,0.0,0.0,0.0,0.0,0.0,0.0,0.0,0.0,0.0,0.0,0.0,0.0,0.0,0.0,0.0,0.0,0.0,0.0,0.0,0.0,0.0,0.0,0.0,0.0,0.0,0.0,0.0,0.0,0.0,0.0,0.0,0.0,0.0,0.0,0.0,0.0,0.0,0.0,0.0,0.0,0.0,0.0,0.0,0.0,0.0,0.0,0.0,0.0,0.0,0.0,0.0,0.0,0.0,0.0,0.0,0.0,0.0,0.0,0.0,0.0,0.0,0.0,0.0,0.0,0.0,0.0,0.0,0.0,0.0,0.0,0.0,0.0,0.0,0.0,0.0,0.0,0.0,0.0,0.0,0.0,0.0,0.0,0.0,0.0,0.0,0.0,0.0,0.0,0.0,0.0,0.0,0.0,0.0,0.0,0.0,0.0,0.0,0.0,0.0,0.0,0.0,0.0,0.0,0.0,0.0,0.0,0.0,0.0,0.0,0.0,0.0,0.0,0.0,0.0,0.0,0.0,0.0,0.0,0.0,0.0,0.0,0.0,0.0,0.0,0.0,0.0,0.0,0.0,0.0,0.0,0.0,0.0,0.0,0.0,0.0,0.0,0.0,0.0,0.0,0.0,0.0,0.0,0.0,0.0,0.0,0.0,0.0,0.0,0.0,0.0,0.0,0.0,0.0,0.0,0.0,0.0,0.0,0.0,0.0,0.0,0.0,0.0,0.0,0.0,0.0,0.0,0.0,0.0,0.0,0.0,0.0,0.0,0.0,0.0,0.0,0.0,0.0,0.0,0.0,0.0,0.0,0.0,0.0,0.0,0.0,0.0,0.0,0.0,0.0,0.0,0.0,0.0,0.0,0.0,0.0,0.0,0.0,0.0,0.0,0.0,0.0,0.0,0.0,0.0,0.0,0.0,0.0,0.0,0.0,0.0,0.0,0.0,0.0,0.0,0.0,0.0,0.0,0.0,0.0,0.0,0.0,0.0,0.0,0.0,0.0,0.0,0.0,0.0,0.0,0.0,0.0,0.0,0.0,0.0,0.0,0.0,0.0,0.0,0.0,0.0,0.0,0.0,0.0,0.0,0.0,0.0,0.0,0.0,0.0,0.0,0.0,0.0,0.0,0.0,0.0,0.0,0.0,0.0,0.0,0.0,0.0,0.0,0.0,0.0,0.0,0.0,0.0,0.0,0.0,0.0,0.0,0.0,0.0,0.0,0.0,0.0,0.0,0.0,0.0,0.0,0.0,0.0,0.0,0.0,0.0,0.0,0.0,0.0,0.0,0.0,0.0,0.0,0.0,0.0,0.0,0.0,0.0,0.0,0.0,0.0,0.0,0.0,0.0,0.0,0.0,0.0,0.0,0.0,0.0,0.0,0.0,0.0,0.0,0.0,0.0,0.0,0.0,0.0,0.0,0.0,0.0,0.0,0.0,0.0,0.0,0.0,0.0,0.0,0.0,0.0,0.0,0.0,0.0,0.0,0.0,0.0,0.0,0.0,0.0,0.0,0.0,0.0,0.0,0.0,0.0,0.0,0.0,0.0,0.0,0.0,0.0,0.0,0.0,0.0,0.0,0.0,0.0,0.0,0.0,0.0,0.0,0.0,0.0,0.0,0.0,0.0,0.0,0.0,0.0,0.0,0.0,0.0,0.0,0.0,0.0,0.0,0.0,0.0,0.0,0.0,0.0,0.0,0.0,0.0,0.0,0.0,0.0,0.0,0.0,0.0,0.0,0.0,0.0,0.0,0.0,0.0,0.0,0.0,0.0,0.0,0.0,0.0,0.0,0.0,0.0,0.0,0.0,0.0,0.0,0.0,0.0,0.0,0.0,0.0,0.0,0.0,0.0,0.0,0.0,0.0,0.0,0.0,0.0,0.0,0.0,0.0,0.0,0.0,0.0,0.0,0.0,0.0,0.0,0.0,0.0,0.0,0.0,0.0,0.0,0.0,0.0,0.0,0.0,0.0,0.0,0.0,0.0,0.0,0.0,0.0,0.0,0.0,0.0,0.0,0.0,0.0,0.0,0.0,0.0,0.0,0.0,0.0,0.0,0.0,0.0,0.0,0.0,0.0,0.0,0.0,0.0,0.0,0.0,0.0,0.0,0.0,0.0,0.0,0.0,0.0,0.0,0.0,0.0,0.0,0.0,0.0,0.0,0.0,0.0,0.0,0.0,0.0,0.0,0.0,0.0,0.0,0.0,0.0,0.0,0.0,0.0,0.0,0.0,0.0,0.0,0.0,0.0,0.0,0.0,0.0,0.0,0.0,0.0,0.0,0.0,0.0,0.0,0.0,0.0,0.0,0.0,0.0,0.0,0.0,0.0,0.0,0.0,0.0,0.0,0.0,0.0,0.0,0.0,0.0,0.0,0.0,0.0,0.0,0.0,0.0,0.0,0.0,0.0,0.0,0.0,0.0,0.0,0.0,0.0,0.0,0.0,0.0,0.0,0.0,0.0,0.0,0.0,3.5863,0.0,0.0,0.0,0.0,0.0,0.0,0.0,0.0,0.0,0.0,0.0,0.0,0.0,0.0,0.0,0.0,0.0,0.0,0.0,0.0,0.0,0.0,0.0,0.0,0.0,0.0,0.0,0.0,0.0,0.0,0.0,0.0,0.0,0.0,0.0,0.0,0.0,0.0,3.4074,3.4921,3.5309,3.5183,3.4908,3.4229,3.3292,0.0,0.0,0.0,0.0,0.0,0.0,0.0,0.0,0.0,0.0,0.0,0.0,0.0,0.0,0.0,0.0,0.0,0.0,0.0,0.0,0.0,0.0,0.0,0.0,0.0,0.0,0.0,0.0,0.0,0.0,0.0,0.0,0.0,0.0,0.0,0.0,0.0,0.0,0.0,0.0,0.0,0.0,0.0,0.0,0.0,0.0,0.0,0.0,0.0,0.0,0.0,0.0,0.0,0.0,0.0,0.0,0.0,0.0,0.0,0.0,0.0,0.0,0.0,0.0,0.0,0.0,0.0,0.0,0.0,0.0,0.0,3.8834,0.0,0.0,0.0,0.0,0.0,0.0,0.0,0.0,0.0,0.0,0.0,0.0,0.0,0.0,0.0,0.0,0.0,0.0,0.0,0.0,0.0,0.0,0.0,2.8057,2.8768,2.9636,3.0066,3.0374,0.0,0.0,0.0,0.0,0.0,0.0,3.3176,3.4129,3.5064,3.6055,3.6814,3.7671,3.8587,3.9025,3.8027,3.5908,3.5997,0.0,0.0,0.0,0.0,0.0,0.0,0.0,0.0,0.0,0.0,0.0,0.0,0.0,0.0,0.0,0.0,0.0,0.0,0.0,0.0,0.0,0.0,0.0,0.0,0.0,0.0,0.0,0.0,0.0,0.0,0.0,0.0,0.0,0.0,0.0,0.0,0.0,0.0,0.0,0.0,0.0,0.0,0.0,0.0,0.0,0.0,0.0,0.0,0.0,0.0,0.0,0.0,0.0,0.0,0.0,0.0,0.0,0.0,0.0,0.0,0.0,0.0,0.0,4.9663,5.038,5.0947,5.0678,5.0097,4.9232,4.7644,4.4265,4.0019,4.1016,0.0,0.0,0.0,0.0,0.0,0.0,0.0,0.0,0.0,0.0,0.0,0.0,0.0,0.0,0.0,0.0,0.0,0.0,0.0,0.0,0.0,3.0429,3.0912,3.0886,3.2416,3.3337,3.322,0.0,0.0,0.0,0.0,0.0,3.5954,3.6416,3.703,3.7854,3.8658,4.009,4.2092,4.1519,4.1423,4.1683,3.9247,3.8582,3.9228,0.0,0.0,0.0,0.0,0.0,0.0,0.0,0.0,0.0,0.0,0.0,0.0,0.0,0.0,0.0,0.0,0.0,0.0,0.0,0.0,0.0,0.0,0.0,0.0,0.0,0.0,0.0,0.0,0.0,0.0,0.0,0.0,0.0,0.0,0.0,0.0,0.0,0.0,0.0,0.0,0.0,4.1313,4.0641,0.0,0.0,0.0,0.0,0.0,0.0,0.0,0.0,0.0,0.0,0.0,0.0,0.0,5.0787,5.2136,5.1014,5.0827,5.1575,5.2386,5.2791,5.2913,5.5038,5.55,5.4725,5.5187,0.0,4.4426,4.2933,0.0,0.0,0.0,0.0,0.0,0.0,0.0,0.0,0.0,0.0,0.0,0.0,0.0,0.0,0.0,0.0,0.0,0.0,0.0,0.0,0.0,3.3286,3.4294,3.4212,3.6744,3.7503,3.5563,3.6961,0.0,0.0,0.0,3.6515,3.6833,3.7566,3.8994,4.1192,4.283,4.4609,4.6408,4.6451,4.6688,4.7007,4.57,4.3771,4.1448,4.0491,0.0,0.0,0.0,0.0,0.0,0.0,0.0,0.0,0.0,0.0,0.0,0.0,0.0,0.0,0.0,0.0,0.0,0.0,0.0,0.0,0.0,0.0,0.0,0.0,0.0,0.0,0.0,0.0,0.0,0.0,0.0,0.0,0.0,0.0,0.0,0.0,0.0,0.0,0.0,4.2157,4.3361,4.1976,4.4074,4.5098,0.0,0.0,0.0,0.0,0.0,0.0,0.0,0.0,0.0,5.2693,5.4527,5.5324,5.5028,5.622,5.6935,5.7101,5.7929,5.8489,5.889,5.9556,5.9671,5.9286,5.9171,5.6906,5.3031,4.9318,4.6822,4.5213,0.0,0.0,0.0,0.0,4.3214,4.3139,0.0,0.0,0.0,0.0,0.0,0.0,0.0,0.0,0.0,0.0,0.0,0.0,3.4563,3.6716,3.8163,3.8527,4.0962,4.1306,3.8581,3.9499,3.9359,3.7523,3.7798,3.8047,3.8053,3.9887,4.2235,4.5058,4.743,4.9256,5.0538,5.1145,5.1453,5.1453,5.142,4.8687,4.3972,4.2786,4.1972,4.1365,0.0,0.0,0.0,0.0,0.0,0.0,0.0,0.0,0.0,0.0,0.0,0.0,0.0,0.0,0.0,0.0,0.0,0.0,0.0,0.0,0.0,0.0,0.0,0.0,0.0,0.0,0.0,0.0,0.0,0.0,0.0,0.0,0.0,0.0,0.0,0.0,0.0,4.3997,4.5672,4.3898,4.6539,4.7956,0.0,0.0,0.0,0.0,0.0,0.0,5.4368,5.5582,5.6682,5.7702,6.0066,6.0614,5.9163,6.1723,6.2771,6.2292,6.2688,6.3169,6.3652,6.306,6.2669,6.2364,6.1973,6.1281,6.0083,5.5182,5.1595,4.9067,4.8204,4.7559,4.7087,4.7301,4.7383,4.7394,0.0,0.0,0.0,0.0,0.0,0.0,0.0,0.0,0.0,0.0,0.0,3.5095,3.9027,4.0861,4.2349,4.3713,4.4273,4.4061,4.2878,4.1924,4.1,4.0067,4.1179,4.1481,4.0735,4.4612,4.7497,4.9205,5.1686,5.3316,5.4125,5.4425,5.4579,5.4579,5.4655,5.1985,4.7363,4.5837,4.4759,4.3989,4.2476,0.0,0.0,0.0,0.0,0.0,0.0,0.0,0.0,0.0,0.0,0.0,0.0,0.0,0.0,0.0,0.0,0.0,0.0,0.0,0.0,0.0,0.0,0.0,0.0,0.0,0.0,0.0,0.0,0.0,0.0,0.0,0.0,0.0,0.0,0.0,0.0,0.0,0.0,4.7467,5.1673,0.0,0.0,0.0,0.0,5.584,5.6775,5.802,5.9812,6.1527,6.3202,6.4837,6.6608,6.7444,6.7212,6.7332,6.6871,6.5837,6.5111,6.47,6.4648,6.4634,6.4132,6.3275,6.4089,6.3891,6.2769,5.8375,5.6476,5.6038,5.2673,5.1873,5.2411,5.085,5.0291,5.0307,0.0,0.0,0.0,0.0,0.0,0.0,0.0,0.0,3.345,3.473,3.7586,4.0296,4.2471,4.6257,4.867,4.8771,4.9824,4.9399,4.6856,4.5431,4.4115,4.2966,4.2928,4.3655,4.5246,4.8112,5.0775,5.3094,5.5456,5.7343,5.8723,5.8814,5.8854,5.8854,5.8886,5.7422,5.4648,5.0621,4.7588,4.5406,4.4776,4.3492,0.0,0.0,0.0,0.0,0.0,0.0,0.0,0.0,0.0,0.0,0.0,0.0,0.0,0.0,0.0,0.0,0.0,0.0,0.0,0.0,0.0,0.0,0.0,0.0,0.0,0.0,0.0,0.0,0.0,0.0,0.0,0.0,0.0,0.0,0.0,0.0,0.0,5.4846,5.8022,0.0,5.8872,5.8813,5.9356,6.0545,6.1892,6.3439,6.5151,6.7413,6.8894,6.9518,7.1224,7.1536,7.0325,7.0859,7.032,6.8732,6.844,6.7977,6.7386,6.7445,6.7217,6.6873,6.7183,6.7079,6.6604,6.5039,6.2406,5.9219,5.7399,5.6575,5.6324,5.5726,5.5852,5.6286,0.0,0.0,0.0,0.0,0.0,0.0,0.0,0.0,3.5607,3.7278,4.0904,4.4348,4.702,5.1087,5.3708,5.385,5.4054,5.2911,4.9886,4.8013,4.639,4.4972,4.5141,4.6543,4.936,5.1936,5.4551,5.7298,5.9095,6.0706,6.2124,6.1904,6.1812,6.1812,6.1835,6.1122,5.9699,5.6144,5.252,4.9055,4.7773,4.6386,4.4954,0.0,0.0,0.0,0.0,0.0,0.0,0.0,0.0,0.0,0.0,0.0,0.0,0.0,0.0,0.0,0.0,0.0,0.0,0.0,0.0,0.0,0.0,0.0,0.0,0.0,0.0,0.0,0.0,0.0,0.0,0.0,0.0,0.0,0.0,5.5254,5.9032,6.1015,6.377,6.5388,6.5084,6.5065,6.5565,6.6702,6.8086,6.9632,7.1385,7.3064,7.4116,7.4388,7.5246,7.4982,7.3437,7.371,7.3079,7.1534,7.124,7.0788,7.0222,6.9929,6.9747,6.9648,6.9372,6.9192,6.9088,6.8812,6.6648,6.34,6.2148,6.1195,6.0459,6.01,6.0314,6.0793,0.0,0.0,0.0,0.0,0.0,0.0,3.5473,3.6399,3.8047,4.0897,4.3246,4.6909,5.2678,5.521,5.7203,5.8922,5.6777,5.4307,5.1913,4.961,4.7681,4.6179,4.8049,5.0346,5.3038,5.6182,5.9102,6.1774,6.2574,6.3437,6.4333,6.3687,6.3361,6.3361,6.3423,6.2992,6.219,6.2091,5.9562,5.5262,5.17,5.0228,4.9948,0.0,0.0,0.0,0.0,0.0,0.0,0.0,0.0,0.0,0.0,0.0,0.0,0.0,0.0,0.0,0.0,0.0,0.0,0.0,0.0,0.0,0.0,0.0,0.0,0.0,0.0,0.0,0.0,0.0,0.0,0.0,0.0,0.0,5.5875,6.0708,6.476,6.574,6.8841,7.0569,6.98,7.1239,7.2903,7.4511,7.5402,7.661,7.8282,7.836,7.8711,7.949,7.875,7.7907,7.6908,7.613,7.5234,7.4338,7.3445,7.2998,7.2846,7.2076,7.162,7.1459,7.0601,7.0247,7.0165,6.9385,6.9036,6.8776,6.6773,6.554,6.4784,6.3771,6.3371,6.3362,0.0,0.0,0.0,0.0,0.0,0.0,3.6416,3.7416,3.9098,4.1916,4.6272,5.077,5.498,5.8852,6.1614,6.2731,5.9525,5.686,5.5448,5.1638,4.9797,5.0714,5.269,5.5445,5.9087,6.1374,6.3524,6.553,6.6322,6.6887,6.7255,6.7064,6.6962,6.6962,6.6981,6.6929,6.6744,6.598,6.4999,6.3484,5.8002,5.44,5.2252,0.0,0.0,0.0,0.0,0.0,0.0,0.0,0.0,0.0,0.0,0.0,0.0,0.0,0.0,0.0,0.0,0.0,0.0,0.0,0.0,0.0,0.0,0.0,0.0,0.0,0.0,0.0,0.0,0.0,0.0,0.0,6.1795,6.4687,6.2982,6.6327,7.0141,7.3505,7.5872,7.7575,7.8546,7.9098,7.9547,8.0027,7.9636,7.9607,8.0075,8.0114,7.9919,7.9529,7.9919,7.9679,7.8767,7.8533,7.8017,7.7141,7.6294,7.5512,7.4872,7.4026,7.3617,7.3575,7.3303,7.3138,7.2975,7.2777,7.1961,7.0663,6.8811,6.7566,6.6734,6.5814,6.5127,6.4626,0.0,0.0,0.0,0.0,0.0,0.0,3.7335,3.8652,4.0441,4.2914,4.8074,5.2839,5.642,6.06,6.3332,6.3831,6.0525,5.7712,5.6157,5.3579,5.3102,5.5333,5.7908,6.0769,6.3924,6.5731,6.7738,6.9887,6.9586,6.9868,7.0701,6.9969,6.9621,6.9621,6.9621,6.9658,6.9683,6.9117,6.8897,6.8646,6.4629,6.1015,5.7802,5.6184,5.5297,5.4719,5.2932,5.2785,5.3091,5.0839,0.0,0.0,0.0,0.0,0.0,0.0,0.0,0.0,0.0,0.0,0.0,0.0,0.0,0.0,0.0,0.0,0.0,0.0,0.0,0.0,0.0,0.0,0.0,0.0,6.8394,7.2145,7.2972,7.3899,7.5688,7.8894,8.08,8.2236,8.3204,8.361,8.3828,8.3793,8.2931,8.2434,8.2434,8.2071,8.1675,8.1169,8.0932,8.0542,8.0036,7.9685,7.9256,7.8789,7.8282,7.7776,7.7272,7.6415,7.6016,7.5998,7.5258,7.4876,7.4739,7.4389,7.365,0.0,0.0,0.0,0.0,0.0,6.6911,6.624,0.0,0.0,0.0,0.0,0.0,0.0,3.8102,3.9843,4.1766,4.3866,4.8916,5.3615,5.7004,6.0863,6.3228,6.335,6.0379,5.7633,5.5477,5.5592,5.7085,5.9989,6.3361,6.6058,6.7977,6.9666,7.1727,7.4193,7.2556,7.2594,7.4154,7.2607,7.1877,7.1877,7.1877,7.1877,7.1888,7.1888,7.1888,7.1822,7.1048,6.8458,6.474,6.147,6.0737,6.1059,5.8493,5.7253,5.6585,5.4521,0.0,0.0,0.0,0.0,0.0,0.0,0.0,0.0,0.0,0.0,0.0,0.0,0.0,0.0,0.0,0.0,0.0,0.0,0.0,0.0,0.0,0.0,0.0,0.0,7.511,7.9405,8.3504,8.2215,8.1396,8.284,8.4322,8.5293,8.5393,8.6094,8.6474,8.6297,8.5484,8.4958,8.4841,8.4032,0.0,0.0,0.0,8.1088,8.1088,8.0231,7.9802,7.9802,7.9685,7.9646,7.9607,7.8828,7.8438,7.836,7.6804,7.6142,7.6064,7.5285,7.4856,7.4491,7.2395,7.0675,6.9294,6.9144,6.8602,6.7988,0.0,0.0,0.0,0.0,0.0,0.0,3.7991,3.9793,4.2039,4.4625,4.9372,5.3581,5.6321,6.0186,6.2845,6.3575,6.0661,5.842,5.7396,5.82,6.0435,6.4306,6.7961,7.0673,7.241,7.4227,7.5368,7.5939,7.5579,7.5579,7.59,7.5552,7.5397,7.5397,7.5397,7.5426,7.5476,7.5476,7.5542,7.5545,7.539,7.2399,6.7898,6.6411,6.5592,6.4977,6.2988,6.3104,6.3574,5.978,5.9307,5.9712,5.6357,5.3542,0.0,0.0,0.0,0.0,0.0,0.0,0.0,0.0,0.0,0.0,0.0,0.0,0.0,0.0,0.0,0.0,0.0,0.0,0.0,7.511,8.0067,8.4322,8.729,8.7876,8.7876,8.7525,8.7759,8.8226,8.8927,8.9107,8.886,8.8152,8.7289,8.6482,8.578,8.4932,8.4445,8.4445,8.3429,8.2883,8.2883,8.2026,8.1601,8.1601,0.0,0.0,8.0503,7.9646,7.9256,7.9256,7.8906,7.875,7.875,7.8594,7.7737,7.6256,7.3766,7.2163,7.1198,7.0527,6.9754,6.9028,0.0,0.0,0.0,0.0,0.0,0.0,3.8596,4.0408,4.2217,4.3807,4.7935,5.1396,5.3162,5.6212,5.8471,5.9421,5.8504,5.8132,5.8684,6.1627,6.5234,6.9528,7.2675,7.4969,7.6313,7.7254,7.7959,7.834,7.7949,7.7966,7.8386,7.7932,7.7727,7.776,7.773,7.7754,7.7811,7.7811,7.7805,7.7858,7.7858,7.6366,7.3898,7.197,7.0829,6.9957,6.8128,6.7808,6.7803,6.4787,6.4321,6.4507,6.1403,5.8934,5.6987,0.0,0.0,0.0,0.0,0.0,0.0,0.0,0.0,0.0,0.0,0.0,0.0,0.0,0.0,6.6202,6.8355,0.0,7.6594,8.0927,8.487,8.7993,8.975,9.0726,9.0767,8.9516,8.975,9.0179,9.0609,9.06,9.0438,8.9969,8.912,8.8392,8.7986,8.7139,8.6449,8.5962,8.5143,8.4289,8.3393,8.2964,8.2536,8.2107,8.1675,8.1442,8.1403,8.0542,8.0153,8.0114,7.9685,7.949,7.949,7.949,7.9023,7.8126,7.6804,7.4973,7.3064,7.2635,7.1936,7.1157,0.0,0.0,0.0,0.0,0.0,0.0,0.0,4.0891,4.2214,4.2909,4.6308,4.9028,4.9951,5.2158,5.3924,5.4823,5.6289,5.8077,6.0134,6.4968,6.966,7.3992,7.6643,7.8406,7.9239,7.9498,7.9913,8.0572,7.9925,7.9946,8.0639,7.9886,7.9548,7.9587,7.9522,7.9534,7.9609,7.9797,7.977,7.9649,7.9843,7.9864,7.958,7.7297,7.5794,7.4645,7.2792,7.1357,7.0118,6.87,6.805,6.7471,6.5419,6.3959,6.2438,5.9339,5.8312,0.0,0.0,0.0,0.0,0.0,0.0,0.0,0.0,6.436,6.6051,6.9008,7.1238,7.3471,7.6088,7.8975,8.2176,8.6002,8.8657,9.0609,9.1624,9.2209,9.2055,9.0884,9.1194,9.1546,9.1546,9.1546,9.1546,9.1546,9.0824,9.0337,9.016,8.951,8.8581,8.7495,8.6673,8.5504,8.3939,8.3744,8.3237,8.2341,8.2341,8.2263,8.2068,8.1364,8.1049,8.101,8.0308,7.9997,7.9997,7.9802,7.9763,7.9724,7.9568,7.7815,7.5363,7.5012,7.4233,7.3258,0.0,0.0,0.0,0.0,0.0,0.0,0.0,0.0,4.1739,4.3386,4.6086,4.8181,4.9038,5.1344,5.3006,5.3407,5.637,5.9616,6.2849,6.7216,7.1564,7.5755,7.8539,8.0022,8.0156,8.0993,8.1453,8.153,8.1458,8.1464,8.1536,8.1403,8.1296,8.1329,8.1257,8.13,8.1453,8.2223,8.2197,8.1671,8.2448,8.2323,8.1664,8.1337,7.9742,7.7423,7.5739,7.3137,7.0459,7.0268,6.9179,6.7963,6.8359,6.6882,6.4743,6.3521,6.0551,5.7761,5.8182,5.9677,6.1833,6.4774,6.5849,6.7615,0.0,7.3625,7.3549,7.4681,7.757,7.9717,7.9326,8.2606,8.6041,8.8071,8.9945,9.1702,9.3302,9.2912,9.2717,9.3302,9.2795,9.2367,9.2367,9.2367,9.2367,9.2367,9.227,9.1865,9.1085,9.0945,9.0136,8.8503,8.7607,8.6695,8.5728,8.4949,8.4134,8.3237,8.3237,8.2848,8.2107,8.199,8.1951,8.1951,8.1834,8.1795,8.1756,8.0971,8.0659,8.0581,7.9802,7.9256,7.875,7.7272,7.5674,7.4233,0.0,0.0,0.0,0.0,0.0,0.0,0.0,0.0,0.0,4.2883,4.4494,4.585,4.6762,4.8274,4.9532,5.022,5.4395,5.8892,6.3325,6.8552,7.335,7.764,7.9835,8.098,8.1058,8.1436,8.189,8.2466,8.246,8.2693,8.3159,8.3102,8.2801,8.2375,8.2811,8.2816,8.2505,8.3358,8.3576,8.3442,8.3792,8.3489,8.2691,8.2181,8.0093,7.7229,7.5453,7.363,0.0,7.0302,6.9988,7.0332,7.1158,6.9685,6.7439,6.6494,6.4218,6.2208,6.313,6.5082,6.7247,6.8709,7.1723,7.4965,7.7495,7.8585,7.9561,8.1396,8.3777,8.5534,8.5651,8.7564,8.9516,9.0726,9.1936,9.2837,9.3081,9.32,9.3047,9.243,9.2901,9.3285,9.3265,9.3263,9.3458,9.3966,9.3529,9.309,9.2726,9.2249,9.1372,9.0134,8.9724,8.8617,8.6773,8.6868,8.5962,8.4172,8.4676,8.4445,8.3627,8.3627,8.3354,8.2848,8.2302,8.2107,8.2068,8.1714,8.1558,8.1519,8.1169,8.0701,8.0114,7.8906,7.797,7.7308,0.0,0.0,0.0,0.0,0.0,0.0,0.0,0.0,0.0,0.0,4.308,4.3983,4.522,4.5999,4.6929,4.8103,5.2348,5.7307,6.2935,6.8635,7.3808,7.8399,8.0622,8.1814,8.1856,8.2163,8.2625,8.3262,8.3269,8.3458,8.3805,8.3971,8.3643,8.2932,8.367,8.3765,8.3397,8.4211,8.4557,8.4514,8.4514,8.3898,8.2794,8.1194,7.879,7.6037,7.4512,7.2693,7.0726,6.9128,6.905,6.9905,7.1282,7.0592,6.905,6.7926,6.6318,6.5166,6.6326,6.9148,7.2028,7.3248,7.7702,8.1877,8.2139,8.3543,8.5221,8.6822,8.854,8.9867,9.0298,9.1077,9.1899,9.2725,9.3389,9.3745,9.3643,9.3762,9.3375,9.2172,9.2486,9.2988,9.3436,9.3664,9.4049,9.4708,9.4395,9.4154,9.4179,9.3554,9.2802,9.1957,9.139,9.0239,8.8353,8.8719,8.7725,8.5416,8.604,8.5767,8.4715,8.4715,8.4215,8.3367,8.2734,8.2305,8.2119,8.211,8.2107,8.2107,8.2107,8.1714,8.1088,8.0467,7.9919,7.9412,0.0,0.0,0.0,0.0,0.0,0.0,0.0,0.0,0.0,0.0,0.0,0.0,0.0,4.5559,4.636,4.815,5.0752,5.5159,6.1823,6.7106,7.2241,7.7337,8.0899,8.2709,8.2559,8.3547,8.4004,8.3973,8.3973,8.3547,8.2774,8.3559,8.3527,8.2825,8.3598,8.3992,8.4217,8.5103,8.5077,8.4517,8.4517,8.3532,8.1743,7.8361,7.5927,7.4268,7.3433,6.9907,6.5735,6.6515,6.5696,6.4761,6.7333,6.8676,6.8968,6.7252,6.5554,6.4604,6.6341,7.0524,7.5407,7.9637,8.3933,8.7407,8.8227,8.9789,9.0804,9.0025,9.1235,9.2131,9.1389,9.1936,9.2763,9.3638,9.3797,9.4387,9.6038,9.4907,9.3892,9.3813,9.1626,9.0766,9.2484,9.3335,9.3829,9.3849,9.4591,9.5059,9.5059,9.5059,9.462,9.3743,9.2063,9.1142,9.1008,9.0222,8.8956,8.7131,8.7131,8.6312,8.4715,8.4715,8.4227,8.3396,8.3367,8.2863,8.2109,8.208,8.2107,8.2107,8.2107,8.2068,8.2068,8.2029,8.0935,7.949,0.0,0.0,0.0,0.0,0.0,0.0,0.0,0.0,0.0,0.0,0.0,0.0,0.0,0.0,0.0,0.0,4.9804,5.3275,5.7776,6.4458,6.9517,7.2324,7.793,8.0685,8.0093,8.1524,8.26,8.3206,8.3122,8.3211,8.3482,8.3771,8.3473,8.2719,8.4184,8.4559,8.4132,8.5027,8.568,8.5933,8.4261,8.3256,8.2326,7.7768,7.4619,7.2156,0.0,6.6816,6.5105,6.372,6.3647,6.4351,6.5808,6.6115,6.58,6.5283,6.6732,6.9153,7.2018,7.6542,8.1535,8.5883,8.8891,9.1155,9.2639,9.2951,9.2876,9.2575,9.1171,8.9886,8.9621,8.9818,9.025,9.1152,9.3183,9.4866,9.55,9.5579,9.4721,9.2459,9.242,9.2146,9.1009,9.2173,9.3685,9.5388,9.5819,9.5971,9.5957,9.541,9.4979,9.4661,9.4101,9.3227,9.2037,9.2292,9.1262,8.8989,8.8422,8.7816,8.717,8.6065,8.542,8.5117,8.4543,8.415,8.3828,8.388,8.351,8.3003,8.3609,8.3139,8.2185,8.277,8.2224,8.1247,0.0,0.0,0.0,0.0,0.0,0.0,0.0,0.0,0.0,0.0,0.0,0.0,0.0,0.0,0.0,0.0,0.0,5.1035,5.4794,6.0483,6.4762,6.7056,7.2456,7.533,7.5086,7.6501,7.7679,7.8554,7.9351,7.9902,8.0218,8.1744,8.2,8.1256,8.3041,8.3572,8.3102,8.3695,8.3849,8.3527,8.1553,8.0043,7.8513,7.4036,7.1081,0.0,6.5197,6.3926,6.366,6.2024,6.2279,6.3302,6.3872,6.4107,6.4458,6.5736,6.8937,7.2993,7.7382,8.2142,8.6705,9.0422,9.2883,9.4404,9.4592,9.444,9.3939,9.27,9.0206,8.8141,8.7835,8.7016,8.7018,8.8779,9.0927,9.3039,9.492,9.5389,9.4921,9.3359,9.332,9.289,9.1522,9.2418,9.3739,9.5365,9.6068,9.6416,9.6405,9.5858,9.5703,9.6016,9.5421,9.4708,9.388,9.4092,9.3057,9.0813,8.9615,8.8893,8.8494,8.7412,8.661,8.6005,8.5466,8.5037,8.4754,8.4754,8.4421,8.3915,8.447,8.4032,8.3081,8.3666,8.351,8.2925,0.0,0.0,0.0,0.0,0.0,0.0,0.0,0.0,0.0,0.0,0.0,0.0,0.0,0.0,0.0,0.0,0.0,0.0,5.2713,5.5532,5.8456,6.1687,6.5178,6.7403,6.8122,6.9098,6.9952,7.0636,7.3129,7.3937,7.3283,7.7403,7.8864,7.8139,7.9913,8.0761,8.0802,8.0802,7.9546,7.7453,7.6475,7.4218,7.1055,6.7634,6.582,6.4782,6.2292,6.1399,6.1411,6.1473,6.1666,6.1887,6.1989,6.3194,6.5292,6.8783,7.226,7.6286,8.2274,8.7042,9.0906,9.3366,9.5825,9.6992,9.4516,9.4448,9.3951,9.0633,8.8415,8.6783,8.5806,8.3853,8.3426,8.6753,8.7614,8.9646,9.4726,9.4765,9.4804,9.6445,9.4414,9.3164,9.3945,9.4062,9.414,9.4208,9.565,9.6548,9.6548,9.6548,9.6899,9.768,9.6119,9.5606,9.6374,9.554,9.4263,9.2537,9.0833,8.9585,8.8711,8.8685,8.7804,8.6285,8.6265,8.5802,8.5073,8.5029,8.4967,8.4883,8.4893,8.4841,8.476,8.4757,8.4754,8.4445,0.0,0.0,0.0,0.0,0.0,0.0,0.0,0.0,0.0,0.0,0.0,0.0,0.0,0.0,0.0,0.0,0.0,0.0,4.845,5.3359,5.6284,5.6447,6.216,6.5092,6.4622,6.6171,6.7049,6.7261,6.8469,6.8969,6.8835,7.0625,7.1352,7.1114,7.2333,7.2877,7.2847,7.282,7.2868,7.2778,7.128,7.0615,7.0089,6.6709,6.5374,6.4895,6.2319,6.143,6.1473,6.1487,6.328,6.5704,6.6986,6.8601,7.068,7.413,7.8038,8.2256,8.7063,9.1513,9.5066,9.6393,9.6706,9.6548,9.5879,9.393,9.1637,8.9468,8.5608,8.1982,7.9842,8.1561,8.3788,8.5273,9.039,9.5312,9.8554,9.8828,9.8594,9.8398,9.7187,9.625,9.5859,9.6367,9.7265,9.8554,9.8473,9.8351,9.8345,9.8344,9.8149,9.7719,9.7251,9.682,9.6387,9.5526,9.454,9.3467,9.2371,9.1388,9.052,8.9904,8.9397,8.8964,8.9651,8.9453,8.8653,8.9335,8.8819,8.762,8.7599,8.6797,8.5682,8.5672,8.526,8.464,0.0,0.0,0.0,0.0,0.0,0.0,0.0,0.0,0.0,0.0,0.0,0.0,0.0,0.0,0.0,0.0,0.0,0.0,0.0,4.9872,5.191,5.1722,5.5743,5.8094,5.8275,5.9282,6.0195,6.0965,6.2497,6.3421,6.3854,6.5978,6.6898,6.687,6.7838,6.8226,6.8241,6.8182,6.7826,0.0,0.0,6.603,6.5432,6.3911,6.342,6.3376,6.1946,6.2432,6.4086,6.5986,6.7963,7.0056,7.2543,7.4547,7.67,8.0495,8.3855,8.7294,9.1635,9.511,9.7648,9.8155,9.7609,9.6397,9.4092,9.1521,8.8446,8.4479,8.0735,7.7536,7.5312,7.7812,8.0859,8.2851,8.9062,9.4922,9.8633,9.9804,10.0508,10.1211,10.0508,9.9804,9.9336,9.9726,10.0508,10.1914,10.0507,9.9724,10.0113,9.9761,9.9331,9.8862,9.8472,9.7846,9.6983,9.6124,9.5418,9.4938,9.4074,9.3211,9.2351,9.1492,9.0867,9.0516,0.0,9.0411,8.9969,9.0524,9.013,8.9216,8.9198,8.8558,8.7722,8.7707,8.7412,8.6977,0.0,0.0,0.0,0.0,0.0,0.0,0.0,0.0,0.0,0.0,0.0,0.0,0.0,0.0,0.0,0.0,0.0,0.0,0.0,0.0,4.7271,4.8159,4.8974,5.0125,5.1697,5.1736,5.2467,5.401,5.6319,5.7857,5.8742,6.1946,6.3472,6.3563,6.4315,6.4668,6.4734,6.4586,6.3361,6.1553,6.2203,6.1258,5.9552,0.0,6.1001,6.1143,6.1415,6.3667,6.7265,7.208,7.3928,7.487,7.8599,8.0956,8.3191,8.7367,8.9672,9.1746,9.5821,9.801,9.9143,9.9025,9.8165,9.6017,9.098,8.8138,8.4673,7.8041,7.5194,7.3398,7.1639,7.3827,7.7109,8.0741,8.6523,9.2383,9.7812,9.9844,10.1719,10.4219,10.3789,10.3203,10.3203,10.3281,10.3711,10.4492,10.2383,10.1289,10.1797,10.1094,10.0508,10.0312,9.957,9.8749,9.7887,9.7106,9.6636,9.6395,9.5645,9.4864,9.4052,9.3223,9.2482,9.1786,9.1006,9.0693,9.0692,9.0684,9.0603,9.0523,9.0429,9.0266,9.0067,9.0064,9.0006,8.9882,0.0,0.0,0.0,0.0,0.0,0.0,0.0,0.0,0.0,0.0,4.1717,4.1972,0.0,0.0,0.0,0.0,0.0,0.0,0.0,0.0,0.0,4.8066,4.8942,4.9861,5.0899,5.0899,5.1053,5.1361,5.2467,5.3467,5.4318,5.5661,5.665,5.7333,5.7497,5.7585,5.7585,5.7511,5.7231,5.6916,5.7764,5.7867,5.7752,5.9335,6.0062,0.0,6.1172,6.3297,6.6717,7.3927,7.7775,8.0413,8.5365,8.8108,9.0218,9.3808,9.5057,9.5918,9.881,9.9827,9.9905,9.9162,9.7251,9.4404,8.9923,8.5398,8.0563,7.5111,7.2025,6.9799,6.8085,7.2226,7.7499,8.2343,8.8828,9.5547,10.2109,10.3281,10.4219,10.6015,10.5508,10.5,10.5,10.5703,10.6093,10.6289,10.5781,10.4687,10.2812,10.25,10.1797,10.0312,10.0195,9.9648,9.8789,9.8632,9.7851,9.6484,9.6327,9.5819,9.496,9.4804,9.4646,9.4527,9.4374,0.0,9.4293,9.4295,9.3866,9.3202,9.3153,9.2288,9.1035,9.1006,9.0523,8.9897,0.0,0.0,0.0,0.0,0.0,0.0,0.0,3.9678,4.0545,4.1977,4.1886,4.1809,4.2322,4.2731,4.3295,0.0,0.0,0.0,0.0,0.0,0.0,4.7428,4.8279,4.9125,5.0014,5.0476,5.0899,5.1318,0.0,5.2582,5.3895,5.4298,5.4983,5.5792,5.5792,5.5822,5.5861,5.5756,5.574,5.5869,5.6697,5.7048,5.7298,5.904,6.0126,0.0,6.1256,6.3734,6.7517,7.2633,7.7859,8.3393,8.9977,9.3217,9.5007,9.7137,9.776,9.8219,10.029,10.0915,10.0681,9.99,9.7362,9.3386,8.6845,8.1734,7.6507,6.9958,6.7614,6.6519,6.5702,7.0116,7.5428,8.0116,8.5586,9.2109,10.0312,10.1914,10.3594,10.7617,10.8086,10.8203,10.8203,10.8086,10.8086,10.8086,10.7617,10.6601,10.5,10.4101,10.2812,10.1015,10.1015,10.0586,9.9687,9.9219,9.8594,9.7812,9.7344,9.6914,9.6484,9.6054,9.5898,9.5858,9.539,9.5195,9.5194,9.5195,9.4961,9.457,9.453,9.402,9.3316,9.3261,9.2978,9.2546,0.0,0.0,0.0,0.0,0.0,0.0,0.0,4.0185,4.1,4.2817,4.2365,4.2144,4.2856,4.2316,4.2471,0.0,0.0,0.0,0.0,0.0,0.0,0.0,0.0,0.0,4.9043,0.0,0.0,5.1321,5.1508,0.0,0.0,0.0,0.0,0.0,5.5507,5.5663,5.5842,5.5722,5.5761,0.0,0.0,5.6762,5.6999,0.0,0.0,0.0,0.0,6.3713,6.7364,7.0502,7.5893,8.2524,8.9774,9.4222,9.6952,9.7884,9.8542,9.9386,10.1305,10.1815,10.1619,10.0798,9.7675,9.2567,8.3962,7.8578,7.3193,6.5585,6.3866,6.3865,6.4217,6.7928,7.2537,7.7577,8.1757,8.7695,9.7383,9.9804,10.2695,10.8281,11.0,11.0586,11.0586,11.0,10.9492,10.9297,10.8515,10.7617,10.6719,10.5312,10.3789,10.2187,10.2187,10.1601,10.0586,9.9726,9.9179,9.8984,9.8125,9.7695,9.7695,9.7031,9.6758,9.6719,9.5859,9.5586,9.5703,9.5547,9.5469,9.5508,9.5664,9.5508,9.5234,9.5347,9.5265,9.5029,0.0,0.0,0.0,0.0,0.0,0.0,0.0,4.0736,4.1922,4.3657,4.3176,4.2693,4.2644,4.2651,4.2794,0.0,0.0,0.0,0.0,0.0,0.0,0.0,0.0,0.0,0.0,0.0,0.0,4.9452,5.0253,0.0,0.0,0.0,0.0,0.0,0.0,5.5026,5.573,5.5714,0.0,0.0,0.0,0.0,0.0,0.0,0.0,0.0,0.0,6.2058,6.3946,6.889,7.2121,7.5009,8.0478,8.7698,9.4314,9.5217,9.7118,9.9448,10.2004,10.2711,10.2515,10.1619,9.7636,9.1669,8.3063,7.7171,7.1552,6.457,6.2499,6.242,6.4023,6.5976,6.9803,7.7187,8.0742,8.6133,9.6367,9.9922,10.3086,10.7617,10.9609,11.0586,11.0586,11.0508,11.0195,10.9414,10.8515,10.7617,10.6719,10.5898,10.4883,10.3984,10.3984,10.3203,10.1484,10.0586,9.9765,9.8984,9.8125,9.7695,9.7695,9.7617,9.7578,9.7539,9.6719,9.6797,0.0,9.6679,9.6367,9.6445,9.7187,9.6523,9.5312,9.6093,9.5859,9.5195,0.0,0.0,0.0,0.0,0.0,0.0,4.1079,4.1347,4.2127,4.4364,4.3977,4.321,4.2496,4.2498,4.2584,4.2593,0.0,0.0,0.0,0.0,0.0,0.0,0.0,0.0,0.0,0.0,4.9089,4.9073,4.9975,0.0,0.0,0.0,0.0,0.0,0.0,5.4472,5.567,5.517,0.0,0.0,0.0,0.0,0.0,0.0,0.0,0.0,0.0,0.0,6.2905,6.4994,6.7953,7.0946,7.1952,7.6834,8.351,9.0646,9.4583,9.7537,10.1692,10.3218,10.3218,10.1815,9.6862,9.0157,8.2049,7.5808,6.9917,6.3515,6.1952,6.2225,6.3984,6.4882,6.7538,7.4258,7.5312,7.8945,8.9336,9.1679,9.5469,10.3906,10.6484,10.871,11.1791,11.1715,11.0818,10.9412,10.8511,10.7809,10.75,10.6719,10.5586,10.4219,10.4219,10.3594,10.2383,10.1484,10.0586,9.9765,9.8906,9.8203,9.7695,9.7695,9.7695,9.7695,9.7344,9.7383,0.0,9.7344,9.7226,9.7265,9.7578,9.7304,9.6758,9.7109,9.6992,9.664,0.0,0.0,0.0,0.0,0.0,3.9595,4.1568,4.1457,4.1927,4.3955,4.3724,4.3048,4.2222,4.2385,4.2542,4.2541,4.2404,0.0,0.0,0.0,0.0,0.0,0.0,0.0,0.0,0.0,4.8245,4.8545,4.9507,5.0439,0.0,0.0,5.2219,5.3661,0.0,0.0,0.0,0.0,0.0,0.0,0.0,0.0,0.0,0.0,0.0,0.0,0.0,0.0,0.0,0.0,0.0,6.7037,6.5834,6.8333,7.3734,8.4029,8.9766,9.3888,9.8786,10.1484,10.2694,10.1412,9.5765,8.8635,8.1346,7.4834,6.8669,6.289,6.1718,6.2226,6.3984,6.4296,6.6171,7.1992,7.2109,7.4922,8.4804,8.664,9.0429,9.9883,10.2499,10.5504,11.0382,11.1517,11.1207,10.9411,10.9013,10.8701,10.8398,10.7811,10.6718,10.5,10.4687,10.4219,10.3281,10.2187,10.1289,10.0703,9.9531,9.8672,9.8086,9.7812,9.7695,9.7695,9.7695,9.7695,0.0,9.7695,9.7695,9.7695,9.7695,9.7695,9.7695,9.7695,9.7695,9.7617,0.0,0.0,0.0,0.0,0.0,0.0,4.0503,4.0854,4.1205,4.2015,4.2134,4.2019,4.1745,4.2417,4.2895,4.2895,4.2481,0.0,0.0,0.0,0.0,0.0,0.0,0.0,0.0,0.0,4.6588,4.7504,4.8446,4.9443,5.0407,5.0407,5.0905,5.182,0.0,0.0,0.0,0.0,0.0,0.0,0.0,0.0,5.833,0.0,0.0,0.0,0.0,0.0,0.0,0.0,0.0,0.0,0.0,6.3956,6.6972,7.4921,8.2063,8.8329,9.2724,9.6982,10.0186,10.021,9.4415,8.7136,8.107,7.4366,6.7966,6.2773,6.1719,6.2226,6.3984,6.4297,6.5976,7.1172,7.2734,7.6289,8.4961,8.7616,9.0623,9.5937,9.8038,10.0807,10.5195,10.9412,11.1208,10.9414,11.011,11.0182,10.9292,10.9286,10.8508,10.6718,10.5898,10.5117,10.4219,10.25,10.1601,10.1601,9.9844,9.8984,9.8945,9.8086,9.7695,9.7695,9.7695,9.7695,0.0,9.7695,9.7695,9.7695,9.7695,9.7695,9.7695,9.7695,9.7695,9.7695,0.0,0.0,0.0,0.0,0.0,0.0,0.0,4.0622,4.1014,4.1854,4.1949,4.1611,4.0769,4.1526,4.2009,4.1801,4.1851,0.0,0.0,0.0,0.0,0.0,0.0,0.0,0.0,0.0,4.6235,4.7099,4.8275,4.9283,5.0214,5.0344,5.0884,5.1792,5.1247,5.2292,0.0,0.0,0.0,0.0,0.0,5.6454,5.7494,0.0,0.0,0.0,0.0,0.0,0.0,0.0,0.0,0.0,0.0,0.0,0.0,6.7073,7.4319,8.2094,8.6451,8.9508,9.1154,8.9981,8.5631,8.0381,7.5499,7.0865,6.6502,6.252,6.1705,6.2061,6.3193,6.3902,6.5976,7.1171,7.2734,7.5273,8.0975,8.5273,9.0234,9.6561,10.4482,10.9909,11.07,11.1394,11.1586,11.1091,11.0811,11.0495,11.019,10.9603,10.8784,10.7615,10.6209,10.4999,10.4219,10.3086,10.2187,10.1601,10.1015,10.0508,9.9844,9.8984,9.8594,9.8554,9.7969,9.7695,9.7695,9.7695,9.7695,9.7695,9.7695,9.7695,9.7695,9.7695,9.7695,9.7695,0.0,0.0,0.0,0.0,0.0,0.0,0.0,3.99,4.014,4.0645,4.0733,4.0574,4.0133,4.0933,4.1452,4.1391,4.1779,0.0,0.0,0.0,0.0,0.0,0.0,0.0,0.0,4.5162,4.6089,4.7,4.8152,4.9214,5.0126,5.0309,5.0697,5.125,5.0794,5.1854,0.0,0.0,0.0,0.0,5.5745,5.6267,5.7084,0.0,0.0,0.0,0.0,0.0,0.0,0.0,0.0,0.0,0.0,0.0,0.0,0.0,6.7947,7.4035,7.9424,8.2838,8.4722,8.4002,8.036,7.6047,7.2697,6.8765,6.5063,6.2251,6.1707,6.2061,6.327,6.3941,6.5897,7.0701,7.2226,7.4765,8.0389,8.5077,9.0623,9.7805,10.6203,11.1282,11.0813,11.1705,11.2212,11.1912,11.1709,11.1394,11.1089,11.0306,10.9485,10.9019,10.699,10.5507,10.4687,10.3789,10.3008,10.2109,10.1797,10.1289,10.0781,9.9883,9.9492,9.9453,9.8906,9.8672,0.0,9.832,9.8203,9.8164,9.7812,9.7695,9.7695,9.7695,9.7695,9.7695,0.0,0.0,0.0,0.0,0.0,0.0,0.0,3.8826,3.884,3.8781,3.8773,3.9067,3.9806,4.0553,4.1135,4.1429,0.0,0.0,0.0,0.0,0.0,0.0,0.0,0.0,0.0,4.4983,4.6,4.7143,4.8069,4.9081,5.0175,5.0253,5.0356,5.0418,5.0532,5.1544,0.0,0.0,0.0,0.0,5.5766,5.6279,0.0,0.0,0.0,0.0,0.0,0.0,0.0,0.0,0.0,0.0,0.0,0.0,0.0,0.0,0.0,0.0,0.0,7.6605,7.9913,8.0792,7.7348,7.339,7.1862,6.7731,0.0,6.2109,6.1758,6.2265,6.4059,6.4335,6.5742,7.0154,7.1562,7.4726,8.2344,8.6952,9.2337,9.9941,10.4606,10.7187,10.6984,11.0815,11.2888,11.2109,11.2689,11.2801,11.1987,11.1083,11.0614,11.0581,10.8085,10.6289,10.5508,10.4609,10.3789,10.289,10.2109,10.1719,10.1719,10.0781,10.039,0.0,10.0312,10.0312,10.0195,9.9414,9.9062,9.8906,9.8125,9.7734,9.7695,9.7695,9.7695,9.7695,0.0,0.0,0.0,0.0,0.0,0.0,0.0,0.0,0.0,0.0,3.8629,3.8899,3.979,4.0092,4.0438,0.0,0.0,0.0,0.0,0.0,0.0,0.0,0.0,0.0,0.0,4.4453,4.5387,4.6832,4.7462,4.853,4.9973,5.023,5.0418,5.0484,5.0553,5.1539,0.0,0.0,0.0,0.0,5.5724,5.5897,0.0,0.0,0.0,0.0,5.7708,5.861,0.0,0.0,0.0,0.0,0.0,0.0,0.0,0.0,6.2228,6.256,6.5567,0.0,6.9062,6.9307,6.797,6.6709,0.0,6.5071,6.3119,6.2708,6.2132,6.2407,6.4779,6.4718,6.613,7.1751,7.285,7.5,8.0819,9.0818,9.9959,10.6405,11.039,11.1914,10.9882,11.1796,11.3086,11.289,11.3085,11.3084,11.2886,11.1404,11.0584,11.0581,10.8085,10.6289,10.5508,10.4609,10.3789,10.289,10.2695,10.2617,10.2617,10.1719,10.1289,10.1289,10.0586,10.0312,10.0312,10.0117,9.9609,9.8984,9.8789,9.8281,9.7695,9.7695,9.7695,9.7695,0.0,0.0,0.0,0.0,0.0,0.0,0.0,0.0,0.0,0.0,0.0,3.9228,3.98,4.0504,0.0,0.0,0.0,0.0,0.0,0.0,0.0,0.0,0.0,4.3105,4.4085,4.5006,4.5955,4.6995,4.8096,4.9169,5.012,5.0361,5.0676,5.1118,5.1533,5.2219,0.0,0.0,0.0,5.5621,5.5621,0.0,0.0,0.0,0.0,0.0,5.7426,5.8284,0.0,6.0058,6.0634,6.1012,0.0,0.0,0.0,0.0,6.2416,6.2616,6.3596,6.4277,6.4843,6.5326,6.4801,6.4388,6.5301,6.3865,6.2462,6.2864,6.2604,6.2961,6.5141,6.5854,6.7655,7.2495,7.4296,7.7851,8.5818,9.4643,10.2495,10.8593,11.1287,11.2381,11.1797,11.2617,11.3203,11.3203,11.3203,11.3203,11.3202,11.1484,11.0586,11.0584,10.8086,10.6289,10.5508,10.4609,10.3789,10.289,10.289,10.289,10.289,10.2383,10.2187,10.2187,10.1719,10.1484,10.1484,10.1094,10.039,9.957,9.914,9.8476,9.7695,9.7695,9.7695,9.7695,0.0,0.0,0.0,0.0,0.0,0.0,0.0,0.0,0.0,0.0,0.0,0.0,0.0,0.0,0.0,0.0,0.0,0.0,0.0,0.0,0.0,0.0,0.0,4.3283,4.4355,4.579,4.6861,4.7475,4.9301,5.0373,5.0598,5.0944,5.1354,5.1862,5.2696,5.3042,0.0,0.0,5.4697,5.5505,5.5529,0.0,0.0,0.0,0.0,0.0,0.0,0.0,0.0,6.0089,6.0797,6.1002,6.1099,0.0,0.0,0.0,0.0,0.0,6.4197,6.4447,6.464,6.5303,6.4772,6.4392,6.5475,6.381,6.2332,6.3232,6.3396,6.4023,6.6013,6.7695,7.0,7.367,7.7031,8.289,9.3552,9.8548,10.3195,10.8786,11.0306,11.1401,11.2695,11.3008,11.3203,11.3203,11.3203,11.3203,11.3203,11.1484,11.0586,11.0586,10.789,10.6211,10.5508,10.4609,10.3789,10.289,10.289,10.289,10.289,10.289,10.289,10.289,0.0,0.0,10.2812,10.2109,10.1289,10.039,9.9687,9.8789,9.789,9.789,9.7812,9.7695,0.0,0.0,0.0,0.0,0.0,0.0,0.0,0.0,0.0,0.0,0.0,0.0,0.0,0.0,0.0,0.0,0.0,0.0,0.0,0.0,0.0,4.3644,4.3664,4.4159,4.5125,4.5597,4.6626,4.8218,5.0259,5.1355,5.1528,5.3064,5.3102,5.1908,5.2664,5.3004,5.3063,0.0,5.4667,5.5445,5.5558,0.0,0.0,0.0,0.0,0.0,0.0,0.0,0.0,5.869,5.9768,6.1023,6.1085,0.0,0.0,0.0,0.0,0.0,6.6109,6.7168,6.6927,6.5701,6.4792,6.4591,6.6217,6.5167,6.4077,6.4994,6.5192,6.617,6.9332,7.0741,7.3007,7.7927,8.3945,9.0937,9.9258,10.289,10.6093,10.9882,11.1796,11.2304,11.1093,11.2304,11.3203,11.3203,11.3203,11.3203,11.3203,11.1484,11.0586,11.0586,10.7303,10.5505,10.5388,10.4609,10.3789,10.289,10.289,10.289,10.289,10.289,10.289,10.289,0.0,10.289,10.289,10.2812,10.2187,10.1406,10.1289,10.0195,9.8789,9.8789,9.832,9.7695,0.0,0.0,0.0,0.0,0.0,0.0,0.0,0.0,0.0,0.0,0.0,0.0,0.0,0.0,0.0,0.0,0.0,0.0,0.0,0.0,0.0,4.4572,4.4716,4.4958,4.5407,4.651,4.8039,5.0015,5.2418,5.3684,5.3865,5.4265,5.3797,5.2615,5.2927,5.3294,5.371,5.4079,5.4661,5.5389,0.0,0.0,0.0,0.0,0.0,0.0,0.0,0.0,0.0,0.0,5.9261,6.0324,6.0427,0.0,0.0,0.0,0.0,0.0,6.5642,6.6726,6.7445,6.8615,6.8613,6.8449,6.8838,6.7909,6.7289,6.8157,6.8357,6.9257,7.2265,7.5039,7.9336,8.6835,9.1484,9.5898,10.0897,10.3005,10.5309,10.8788,11.031,11.1287,11.1914,11.2695,11.3203,11.3203,11.3203,11.3203,11.3203,11.1484,11.0586,11.0586,10.7304,10.5388,10.5381,10.4608,10.3789,10.2889,10.289,10.289,10.289,10.289,10.289,10.289,0.0,10.289,10.289,10.289,10.2383,10.1601,10.1601,10.0781,9.9687,9.9687,9.914,9.8476,0.0,0.0,0.0,0.0,0.0,0.0,0.0,0.0,0.0,0.0,0.0,0.0,0.0,0.0,0.0,0.0,0.0,0.0,0.0,0.0,4.4066,4.518,4.5609,4.5985,4.6382,4.8106,5.0072,5.2279,5.4969,5.6402,5.6549,5.5164,5.4049,5.3197,5.3096,5.3421,5.4016,5.4137,5.4637,5.5408,0.0,0.0,0.0,0.0,0.0,0.0,0.0,0.0,0.0,0.0,0.0,0.0,0.0,0.0,0.0,6.2622,6.3163,6.4054,6.5677,6.6792,6.8207,7.1189,7.1611,7.159,7.2587,7.1818,7.1395,7.3075,7.3591,7.4258,7.6055,8.0234,8.6133,9.4453,9.789,10.0507,10.3319,10.4409,10.6009,10.8904,10.98,11.1011,11.3008,11.3203,11.3203,11.3203,11.3203,11.3203,11.3203,11.1484,11.0586,11.0586,10.7304,10.5506,10.5418,10.4607,10.3905,10.3197,10.3398,10.3398,10.3203,10.3203,10.3086,10.289,10.289,10.289,10.289,10.289,10.25,10.1914,10.1914,10.1406,10.0586,10.039,9.9883,9.9414,0.0,0.0,0.0,0.0,0.0,0.0,0.0,0.0,0.0,0.0,0.0,0.0,0.0,0.0,0.0,0.0,0.0,0.0,0.0,0.0,4.3982,4.507,4.6145,4.7437,4.9005,5.0331,5.2234,5.4818,5.7647,5.9092,5.9165,5.5972,5.4049,5.3192,5.3048,5.3036,5.314,5.3821,5.4607,5.5416,5.547,0.0,0.0,0.0,0.0,0.0,0.0,0.0,0.0,0.0,0.0,0.0,0.0,0.0,6.249,6.3352,6.3632,6.445,6.7887,6.9496,7.0491,7.1694,7.0764,7.1228,7.7607,7.7116,7.6505,8.0612,8.2104,8.2499,8.1875,8.6562,9.2109,9.6758,10.1719,10.6093,10.9492,11.0703,11.1601,11.2695,11.289,11.3008,11.3203,11.3203,11.3203,11.3203,11.3203,11.3203,11.3203,11.1484,11.0586,11.0586,10.7186,10.5387,10.5386,10.4606,10.4095,10.4009,10.4881,10.4883,10.4101,10.4101,10.3711,10.289,10.289,10.289,10.289,10.289,10.289,10.2812,10.2812,10.2304,10.1406,10.0586,10.0312,10.0195,0.0,0.0,0.0,0.0,0.0,0.0,0.0,0.0,0.0,0.0,0.0,0.0,0.0,0.0,0.0,0.0,0.0,0.0,0.0,4.2995,4.4041,4.5278,4.6352,4.7807,4.9638,5.2268,5.5206,5.8418,5.9639,5.974,5.8698,5.5786,5.3963,5.3112,5.3031,5.3282,5.3816,5.4566,5.5116,5.539,5.5482,5.5508,0.0,0.0,0.0,0.0,0.0,0.0,0.0,0.0,5.9127,6.0171,6.021,6.122,6.2443,6.2776,6.3279,6.4131,6.6112,6.8945,7.1663,7.3195,7.428,7.5941,7.9661,8.0995,8.2368,8.5617,8.7843,8.9445,9.0192,9.3906,9.8125,10.1914,10.6015,10.9492,11.1914,11.25,11.2812,11.3203,11.3203,11.3203,11.3203,11.3203,11.3203,11.3203,11.3203,11.3008,11.2383,11.1289,11.039,10.9804,10.7499,10.6208,10.6201,10.5896,10.5504,10.4907,10.4803,10.4492,10.4219,10.3594,10.3203,10.289,10.289,10.289,10.289,10.289,10.289,10.289,10.289,10.2695,10.2383,10.1992,10.1601,10.1211,0.0,0.0,0.0,0.0,0.0,0.0,0.0,0.0,0.0,0.0,0.0,0.0,0.0,0.0,0.0,0.0,0.0,0.0,4.2565,4.3167,4.4095,4.537,4.6645,4.834,5.0539,5.4106,5.7277,6.0038,6.0839,6.0186,5.8185,5.5846,5.4276,5.3453,5.3386,5.3805,5.4623,5.5173,5.539,5.5396,5.5488,5.5547,0.0,0.0,0.0,0.0,0.0,0.0,0.0,0.0,5.9303,6.01,6.0151,6.136,6.2796,6.2815,6.3457,6.4365,6.535,6.8062,7.1163,7.3516,7.6475,7.9775,8.3416,8.5644,8.8108,9.2292,9.3933,9.5068,9.652,9.8945,10.1719,10.4609,10.8398,11.1484,11.3008,11.3203,11.3203,11.3203,11.3203,11.3203,11.3203,11.3203,11.3203,11.3203,11.3203,11.289,11.2304,11.1211,11.0312,10.9687,10.7812,10.6718,10.6712,10.6718,10.6288,10.5383,10.5116,10.4687,10.4219,10.3594,10.3203,10.289,10.289,10.289,10.289,10.289,10.289,10.289,10.289,10.289,10.289,10.289,10.25,10.2109,0.0,0.0,0.0,0.0,0.0,0.0,0.0,0.0,0.0,0.0,0.0,0.0,0.0,0.0,0.0,0.0,0.0,0.0,4.3212,4.3417,4.4044,4.5241,4.7013,4.9254,5.1977,5.573,5.8189,5.9326,6.115,6.0689,5.8034,5.629,5.5028,5.4164,5.4135,5.46,5.5376,5.539,5.5396,5.5409,5.547,5.5485,0.0,0.0,0.0,0.0,0.0,0.0,0.0,0.0,6.0129,6.0922,6.0976,6.2192,6.3606,6.3661,6.4394,6.5339,6.6241,6.7278,6.8923,7.2466,7.6606,8.1829,8.9575,9.1337,9.3524,10.1293,10.0804,9.9332,10.0195,10.1094,10.2187,10.3984,10.8515,11.2187,11.3086,11.3203,11.3203,11.3203,11.3203,11.3203,11.3203,11.3203,11.3203,11.3203,11.3203,11.3203,11.3203,11.1484,11.0586,11.0586,10.8086,10.6719,10.6719,10.6719,10.6289,10.5508,10.6289,10.5781,10.4219,10.4219,10.3711,10.289,10.289,10.289,10.289,10.289,10.289,10.289,10.289,10.289,10.289,10.289,10.289,10.289,0.0,0.0,0.0,0.0,0.0,0.0,0.0,0.0,0.0,0.0,0.0,0.0,0.0,0.0,0.0,0.0,0.0,0.0,4.3258,4.3417,4.3753,4.4292,4.5501,4.693,4.8553,5.293,5.6856,6.0283,6.0284,5.8915,5.6252,5.5125,5.4083,5.3207,5.4377,5.4715,5.4511,5.5142,5.539,5.5396,5.5433,5.5413,5.5425,0.0,0.0,0.0,0.0,0.0,0.0,0.0,0.0,0.0,6.0987,6.2648,6.4468,6.3864,6.5175,6.6757,6.654,6.9834,7.3714,7.5462,8.1004,8.7579,9.3545,9.4871,9.7101,10.4884,10.4899,10.3817,10.4607,10.5505,10.6288,10.6797,10.9687,11.2187,11.3086,11.3203,11.3203,11.3203,11.3203,11.3203,11.3203,11.3203,11.3203,11.3203,11.3203,11.289,11.2304,11.1211,11.0312,10.9687,10.8281,10.7617,10.7617,10.6992,10.6289,10.5508,10.5703,10.5312,10.4219,10.4219,10.3711,10.289,10.289,10.289,10.289,10.289,10.289,10.289,10.289,10.289,10.289,10.289,10.289,10.289,0.0,0.0,0.0,0.0,0.0,0.0,0.0,0.0,0.0,0.0,0.0,0.0,0.0,0.0,0.0,0.0,0.0,0.0,0.0,4.3454,4.3592,4.3775,4.4724,4.6284,4.8515,5.2122,5.5326,5.8055,5.8238,5.7166,5.488,5.532,5.5248,5.4755,5.6425,5.6768,5.6129,5.6359,5.6034,5.5382,5.5413,5.5407,5.5433,0.0,0.0,0.0,0.0,0.0,0.0,0.0,0.0,0.0,6.1415,6.2872,6.4527,6.4643,6.5852,6.7398,6.8676,7.225,7.6412,7.9771,8.5691,9.234,9.8574,10.0798,10.3187,10.9304,10.8609,10.7291,10.8513,10.8592,10.8592,10.8984,11.0898,11.2617,11.3086,11.3203,11.3203,11.3203,11.3203,11.3203,11.3203,11.3203,11.3203,11.3203,11.3203,11.3008,11.2383,11.1289,11.039,10.9804,10.8593,10.8008,10.8008,10.75,10.6601,10.5508,10.5781,10.5195,10.3711,10.3984,10.3711,10.289,10.289,10.289,10.289,10.289,10.289,10.289,10.289,10.289,10.289,10.289,10.289,10.289,0.0,0.0,0.0,0.0,0.0,0.0,0.0,0.0,0.0,0.0,0.0,0.0,0.0,0.0,0.0,0.0,0.0,0.0,0.0,0.0,4.354,4.3609,4.4617,4.6842,5.047,5.2435,5.3467,5.3568,5.546,5.5523,5.396,5.6383,5.7556,5.7753,5.9307,5.9653,5.9044,5.8208,5.6952,5.5542,5.5673,5.5699,5.5727,5.6593,0.0,0.0,0.0,0.0,0.0,0.0,0.0,0.0,6.2045,6.3051,6.4217,6.576,6.6614,6.7966,7.2033,7.4816,7.8229,8.5003,9.0853,9.6894,10.4194,10.7788,11.0495,11.3493,11.1816,11.0299,11.1796,11.0898,11.0117,11.0703,11.2187,11.3281,11.3203,11.3203,11.3203,11.3281,11.3203,11.3203,11.3281,11.3203,11.3203,11.3203,11.3203,11.3203,11.3086,11.1484,11.0586,11.0508,10.8906,10.8008,10.8008,10.7812,10.6992,10.5508,10.6211,10.5195,10.289,10.3789,10.3711,10.289,10.289,10.289,10.289,10.289,10.289,10.289,10.289,10.289,10.289,10.289,10.289,10.289,0.0,0.0,0.0,0.0,0.0,0.0,0.0,0.0,0.0,0.0,0.0,0.0,0.0,0.0,0.0,0.0,0.0,0.0,0.0,0.0,4.354,4.3609,4.5374,4.7007,4.8487,4.98,5.0477,5.0395,5.323,5.4365,5.3946,5.5853,5.7044,5.7597,5.8734,5.8842,5.8136,5.7263,5.6722,5.6499,5.7105,5.7384,5.7384,5.7641,0.0,0.0,0.0,0.0,0.0,0.0,0.0,0.0,6.2213,6.3863,6.5721,6.6108,6.8636,7.1895,7.4297,7.8741,8.4061,8.9717,9.7587,10.4897,10.8605,11.0884,11.2307,11.2402,11.2904,11.3415,11.3905,11.4218,11.3982,11.2812,11.3515,11.3984,11.3281,11.3203,11.3515,11.4101,11.3593,11.3515,11.4218,11.3593,11.3203,11.3203,11.3203,11.289,11.2187,11.1211,11.0312,10.9609,10.8593,10.8008,10.8008,10.6719,10.5898,10.5508,10.5,10.4101,10.289,10.3789,10.3711,10.289,10.289,10.289,10.289,10.289,10.289,10.289,10.289,10.289,10.289,10.289,10.289,10.289,0.0,0.0,0.0,0.0,0.0,0.0,0.0,0.0,0.0,0.0,0.0,0.0,0.0,0.0,0.0,0.0,0.0,0.0,0.0,0.0,4.3773,4.4313,4.5737,4.6941,4.7842,4.8877,4.9421,4.9407,5.1499,5.2752,5.3235,5.5361,5.7032,5.8294,5.9609,5.9588,5.8468,5.7634,5.6811,5.6154,5.6996,5.7308,5.7358,5.8194,0.0,0.0,5.976,0.0,0.0,0.0,0.0,0.0,0.0,0.0,6.5876,6.7075,6.9382,7.2504,7.6789,8.2139,8.8563,9.7177,10.3913,10.8996,11.0714,11.2488,11.3717,11.3691,11.4396,11.5183,11.5585,11.5702,11.5507,11.4492,11.4804,11.4804,11.3906,11.3789,11.3789,11.3906,11.3515,11.3398,11.3789,11.3515,11.3008,11.2617,11.3008,11.2617,11.1289,11.0781,11.0195,10.9297,10.8515,10.7812,10.7383,10.6484,10.5703,10.4883,10.4414,10.3711,10.289,10.3398,10.3281,10.289,10.289,10.289,10.289,10.289,10.289,10.289,10.289,10.289,10.289,10.289,10.289,10.289,0.0,0.0,0.0,0.0,0.0,0.0,0.0,0.0,0.0,0.0,0.0,0.0,0.0,0.0,0.0,0.0,0.0,0.0,0.0,0.0,0.0,4.5519,4.6199,4.6999,4.7976,4.8725,4.9152,4.9297,5.0217,5.1556,5.3298,5.5443,5.7513,5.9507,6.0766,6.0519,5.9138,5.8463,5.7277,5.5887,5.6939,5.7296,5.7396,5.8803,5.9324,5.9394,6.0189,6.0432,6.0477,6.0661,0.0,0.0,0.0,0.0,6.5649,6.7926,6.9576,7.206,7.8244,8.4835,9.2598,10.372,10.8488,11.0789,11.1807,11.3388,11.489,11.5684,11.5889,11.6091,11.6914,11.6484,11.5898,11.5703,11.5586,11.5312,11.4609,11.4414,11.4101,11.3515,11.3281,11.3281,11.3398,11.3281,11.289,11.2187,11.2695,11.2304,11.0703,11.0508,11.0,10.9101,10.8203,10.7383,10.6719,10.6406,10.5586,10.4219,10.3984,10.3594,10.289,10.289,10.289,10.289,10.289,10.289,10.289,10.289,10.289,10.289,10.289,10.289,10.289,10.289,10.289,10.289,0.0,0.0,0.0,0.0,0.0,0.0,0.0,0.0,0.0,0.0,4.1807,4.1622,0.0,0.0,0.0,0.0,0.0,0.0,0.0,0.0,0.0,4.7363,4.7475,4.7916,4.8722,4.8693,4.875,4.8884,4.9769,5.2403,5.6663,5.7119,5.8706,6.1148,6.0709,5.9991,5.9008,5.8981,5.8394,5.7621,5.9255,5.9887,5.9918,6.0148,6.0175,6.0148,6.0277,6.0241,6.0303,6.1304,6.226,0.0,0.0,0.0,6.6263,6.7346,6.9928,7.3098,7.6423,8.6137,9.6982,10.3915,10.8098,11.0909,11.2589,11.4296,11.5801,11.6584,11.6787,11.6911,11.6992,11.6914,11.6601,11.5781,11.5117,11.4609,11.4492,11.3789,11.3593,11.4297,11.3711,11.3515,11.4297,11.3593,11.3203,11.3008,11.2383,11.1601,11.0703,10.9883,10.9101,10.8203,10.7304,10.6797,10.6719,10.5312,10.4414,10.4219,10.3398,10.3008,10.289,10.289,10.289,10.289,10.289,10.289,10.289,10.289,10.289,10.289,10.289,10.289,10.289,10.289,10.289,10.289,0.0,0.0,0.0,0.0,0.0,0.0,0.0,0.0,0.0,0.0,0.0,4.2276,0.0,0.0,0.0,0.0,0.0,0.0,0.0,0.0,0.0,4.7536,4.7547,4.7855,4.8695,4.866,4.8687,4.8866,5.0296,5.3836,5.9349,6.044,6.194,6.3611,6.1846,6.0564,5.9667,5.8814,5.7884,5.7212,5.8967,5.9977,6.0509,6.0926,6.1342,6.1764,0.0,6.1614,6.1606,6.2189,6.3037,6.395,6.4565,0.0,0.0,0.0,6.8979,7.2357,8.0435,8.9016,9.7453,10.5008,10.8692,11.1004,11.2683,11.4116,11.5108,11.5498,11.6012,11.6483,11.6914,11.6601,11.6093,11.5781,11.539,11.5,11.4609,11.4218,11.3906,11.3789,11.3398,11.3398,11.3711,11.3398,11.2812,11.1797,11.1797,11.1093,10.9218,10.9218,10.8711,10.7304,10.6914,10.6211,10.5312,10.4609,10.3984,10.3515,10.3086,10.289,10.289,10.289,10.289,10.289,10.289,10.289,10.289,10.289,10.289,10.289,10.289,10.289,10.289,10.289,10.289,10.289,0.0,0.0,0.0,0.0,0.0,0.0,0.0,0.0,0.0,0.0,0.0,0.0,0.0,0.0,0.0,0.0,0.0,0.0,0.0,0.0,0.0,4.7706,4.7629,4.7859,4.8495,4.8532,4.8707,4.9117,5.1054,5.5414,6.194,6.3807,6.6104,6.847,6.5261,6.3008,6.1498,6.0074,5.9075,5.8477,5.9408,6.0203,6.0901,6.168,6.2333,0.0,0.0,6.2734,6.2696,6.3047,6.3761,6.4475,6.4833,6.5506,0.0,0.0,0.0,7.1241,8.1693,8.8256,9.4222,10.2908,10.6981,10.9606,11.1918,11.3498,11.4408,11.4409,11.4999,11.5703,11.6289,11.5781,11.5508,11.5703,11.539,11.4883,11.4609,11.4297,11.3906,11.3281,11.3203,11.3203,11.3203,11.3008,11.2304,11.1015,11.1093,11.039,10.8398,10.8711,10.8281,10.6718,10.6484,10.5703,10.4219,10.3984,10.3515,10.289,10.289,10.289,10.289,10.289,10.289,10.289,10.289,10.289,10.289,10.289,10.289,10.289,10.289,10.289,10.289,10.289,10.289,10.289,0.0,0.0,0.0,0.0,0.0,0.0,0.0,0.0,0.0,0.0,0.0,0.0,0.0,0.0,4.3313,4.3214,0.0,0.0,0.0,0.0,0.0,4.8504,4.8346,0.0,4.8316,4.8316,4.8797,4.9741,5.1821,5.6874,6.4643,6.6508,7.097,7.7144,7.2168,6.8125,6.5008,6.4207,6.3771,6.349,6.2192,6.1673,6.1833,6.2623,6.2925,6.2892,6.281,6.278,6.2932,6.3882,6.4336,6.4674,6.5613,6.6007,6.6102,0.0,0.0,0.0,7.5836,8.0646,8.6161,9.4846,10.0812,10.5496,10.9781,11.2599,11.44,11.4408,11.4491,11.4609,11.4609,11.4609,11.4804,11.5703,11.4414,11.3593,11.4414,11.3789,11.3281,11.3203,11.3203,11.3203,11.3203,11.25,11.1914,11.1797,11.0312,10.9414,10.9215,10.8515,10.7617,10.6715,10.6015,10.5117,10.4219,10.3398,10.289,10.289,10.289,10.289,10.289,10.289,10.289,10.289,10.289,10.289,10.289,10.289,10.289,10.289,10.289,10.289,10.289,10.289,10.289,10.289,0.0,0.0,0.0,0.0,0.0,0.0,0.0,0.0,0.0,0.0,0.0,0.0,0.0,4.4353,4.4783,4.4287,4.4798,0.0,0.0,0.0,0.0,4.8374,4.8219,4.817,4.8296,4.8439,4.8744,4.9281,5.1316,5.5455,6.1533,6.515,6.9002,7.2855,7.1154,6.9682,6.8289,6.4848,6.3306,6.3139,6.2146,6.2734,6.4155,6.3333,6.4676,6.6942,6.6285,6.6413,6.6825,6.6803,6.6479,6.6082,6.6037,6.6046,6.6107,6.6144,6.7558,7.01,7.471,7.8462,8.2998,9.1124,9.6175,10.0286,10.4583,10.7997,11.0583,11.1715,11.2382,11.2812,11.2812,11.2812,11.3086,11.3984,11.3086,11.2695,11.3515,11.289,11.2617,11.3086,11.2695,11.2383,11.2383,11.2109,11.1406,11.0312,10.9687,10.9101,10.8515,10.8203,10.7382,10.6015,10.5703,10.4804,10.3398,10.3086,10.289,10.289,10.289,10.289,10.289,10.289,10.289,10.289,10.289,10.289,10.289,10.289,10.289,10.289,10.289,10.289,10.289,10.289,10.289,10.289,0.0,0.0,0.0,0.0,0.0,0.0,0.0,0.0,0.0,0.0,0.0,0.0,0.0,0.0,4.6194,4.5731,4.6449,4.7066,4.7387,4.75,4.7793,4.826,4.8141,4.8082,4.8177,4.8715,4.9223,4.967,5.1794,5.5324,6.0227,6.4124,6.7622,7.0598,6.9895,7.031,7.1375,6.7797,6.6109,6.5696,6.4401,6.5068,6.6804,6.6203,6.775,7.024,7.0063,6.9886,6.9651,6.9175,6.8157,6.6954,0.0,6.6289,6.6183,6.6569,6.784,6.9808,7.2984,7.5859,7.9757,8.7259,9.1061,9.4587,10.099,10.4207,10.6598,10.9215,11.0389,11.1093,11.1406,11.1211,11.1289,11.2187,11.1797,11.1718,11.2187,11.2109,11.2109,11.2695,11.25,11.2187,11.1914,11.1601,11.0898,10.9414,10.8984,10.8593,10.8007,10.8007,10.7187,10.5586,10.4883,10.4101,10.289,10.289,10.289,10.289,10.289,10.289,10.289,10.289,10.289,10.289,10.289,10.289,10.289,10.289,10.289,10.289,10.289,10.289,10.289,10.289,10.289,10.289,0.0,0.0,0.0,0.0,0.0,0.0,0.0,0.0,0.0,0.0,0.0,0.0,0.0,0.0,0.0,4.7543,4.8245,4.8356,4.758,4.8136,4.8475,4.8379,0.0,0.0,4.7948,4.9172,5.0185,5.098,5.3238,5.6639,6.1118,6.3714,6.7275,7.1382,6.9013,7.0228,7.401,7.3132,7.2376,7.1552,6.9153,6.8774,6.9855,7.136,7.2193,7.2654,7.397,7.3069,7.1245,7.1089,6.9442,6.7391,0.0,0.0,6.637,6.7332,6.8373,6.9373,0.0,0.0,0.0,8.2822,8.5196,8.8551,9.8731,10.111,10.2514,10.679,10.8395,10.9411,11.0312,10.9883,10.9609,11.039,11.0508,11.0586,11.0586,11.1289,11.1797,11.1914,11.2617,11.2812,11.1914,11.1093,11.0195,10.9297,10.8515,10.8007,10.8004,10.8007,10.7187,10.5508,10.3789,10.289,10.289,10.289,10.289,10.289,10.289,10.289,10.289,10.289,10.289,10.289,10.289,10.289,10.289,10.289,10.289,10.289,10.289,10.289,10.289,10.289,10.289,10.289,0.0,0.0,0.0,0.0,0.0,0.0,4.6191,0.0,0.0,0.0,0.0,0.0,0.0,0.0,4.9723,5.0831,5.06,5.0304,5.0083,4.9553,4.9473,5.0021,4.8753,4.8384,4.9059,4.9495,4.9897,5.0296,5.2425,5.4785,5.737,6.0165,6.32,6.6338,6.805,6.9502,7.0457,6.8394,6.9894,7.3333,6.9681,7.1346,7.5856,7.3892,7.5793,7.9635,8.0058,8.0189,8.0078,7.9545,7.7292,7.3971,0.0,0.0,0.0,6.7471,6.8448,6.9409,7.0258,0.0,0.0,0.0,0.0,0.0,8.7307,9.045,9.4016,10.0186,10.2692,10.4804,10.8086,10.8984,10.9218,10.8789,10.9218,10.9883,11.0508,11.0312,11.0508,11.1797,11.1601,11.1211,11.1015,11.0703,11.0,10.8515,10.8086,10.8008,10.8007,10.6914,10.5703,10.4609,10.3515,10.289,10.289,10.289,10.289,10.289,10.289,10.289,10.289,10.289,10.289,10.289,10.289,10.289,10.289,10.2187,10.2304,10.2812,10.2187,10.2304,10.289,10.289,10.289,10.289,0.0,0.0,0.0,0.0,0.0,4.8744,4.831,4.7959,0.0,0.0,0.0,0.0,0.0,0.0,0.0,5.2848,5.2392,5.1809,5.1154,5.0446,5.0311,5.0742,4.9758,4.9415,4.9971,5.0451,5.0762,5.0878,5.2999,5.4673,5.5845,5.841,6.0851,6.3205,6.5146,6.7233,6.9099,6.6919,6.8824,7.3289,7.307,7.5855,8.015,7.999,8.2389,8.5857,8.6556,8.6719,8.6501,8.5673,8.2233,7.7243,0.0,0.0,0.0,0.0,0.0,0.0,0.0,7.2041,7.3059,7.5527,0.0,0.0,8.2928,8.5368,8.8546,9.546,9.8239,10.0585,10.4609,10.6015,10.6719,10.6914,10.7695,10.8515,10.9414,10.9101,10.9297,11.0703,11.0703,11.0508,11.0117,11.0117,10.9492,10.8086,10.7695,10.7304,10.6992,10.5703,10.4687,10.4219,10.3398,10.289,10.289,10.25,10.25,10.289,10.25,10.25,10.289,10.289,10.289,10.289,10.289,10.289,10.2812,10.1992,10.2109,10.2812,10.2304,10.25,10.289,10.289,10.289,10.289,0.0,0.0,5.0444,5.111,5.1174,5.1184,5.1378,5.0685,0.0,0.0,0.0,0.0,0.0,0.0,0.0,0.0,5.3833,5.2961,5.1411,5.1128,5.1069,5.1143,5.0916,5.0808,5.0774,5.1664,5.22,5.2323,5.4382,5.5645,5.6155,5.8031,5.9845,6.1593,6.1784,6.4503,6.8824,6.7913,6.9345,7.27,7.7692,8.107,8.3549,8.7816,9.0234,9.1585,9.3155,9.2906,9.1666,9.038,8.5644,0.0,0.0,0.0,0.0,0.0,7.0731,0.0,0.0,0.0,0.0,7.7114,7.6386,0.0,8.2192,8.3173,8.4705,9.1126,9.3746,9.5974,9.9648,10.1211,10.2383,10.3789,10.5117,10.6484,10.7812,10.8008,10.8281,10.9218,11.0,11.0195,10.9414,10.9218,10.8789,10.789,10.7109,10.6211,10.539,10.4609,10.4219,10.4101,10.3281,10.289,10.2812,10.2109,10.2109,10.2695,10.2109,10.2187,10.289,10.289,10.289,10.289,10.289,10.289,10.2812,10.2109,10.2187,10.289,10.2812,10.2812,10.289,10.289,10.289,10.289,0.0,5.1,5.1175,5.199,5.1695,5.1816,5.3228,5.2231,5.2153,5.4344,5.5604,5.717,5.9587,5.8266,0.0,0.0,5.546,5.386,5.2847,5.2165,5.2081,5.2732,5.1499,5.1166,5.1952,5.2139,5.276,5.3711,5.4882,5.6353,5.8042,5.8585,5.9824,6.1669,6.309,6.4625,6.6497,7.0325,7.3154,7.5388,7.8623,8.3121,8.8275,9.2037,9.4874,9.711,9.8907,9.9355,9.8655,9.5801,9.1221,8.5834,0.0,0.0,0.0,7.2804,0.0,0.0,0.0,0.0,0.0,0.0,7.5958,0.0,7.5855,7.7005,7.9361,8.2803,8.4333,8.6523,9.1367,9.4101,9.5547,9.5195,9.875,10.3086,10.7383,10.8008,10.8281,10.9218,10.9492,10.9492,10.9297,10.8711,10.789,10.6992,10.6211,10.539,10.4492,10.4297,10.3906,10.3203,10.3008,10.2617,10.1914,10.2383,10.2383,10.1914,10.2383,10.2695,10.289,10.289,10.289,10.289,10.289,10.289,10.289,10.2695,10.2695,10.2812,10.2109,10.2304,10.289,10.289,10.289,10.289,5.1797,5.1937,5.2242,5.3562,5.3516,5.3879,5.5622,5.4921,5.5123,5.7669,5.9661,6.0991,6.1361,6.0337,5.9265,0.0,0.0,0.0,0.0,5.4269,5.4232,5.4627,5.3786,5.3549,5.4072,5.3825,5.4242,5.5304,5.6026,5.7154,5.8628,5.9695,6.0682,6.1707,6.3847,6.5543,6.7047,7.0544,7.3528,7.6394,8.2154,8.7377,9.2199,9.6727,9.9778,10.1787,10.2819,10.3187,10.2287,9.6795,9.3247,0.0,8.354,8.0023,7.8091,0.0,7.5744,7.4973,0.0,0.0,0.0,7.4464,0.0,0.0,0.0,7.519,7.6689,7.9708,8.0694,8.2339,8.6677,8.8513,8.9842,9.1093,9.457,9.8164,10.1211,10.4219,10.6406,10.7304,10.7383,10.7383,10.7383,10.6992,10.6211,10.4883,10.4414,10.3594,10.2304,10.2695,10.2695,10.2304,10.2304,10.1992,10.1601,10.1211,10.1211,10.1601,10.1601,10.2109,10.289,10.289,10.289,10.289,10.289,10.289,10.289,10.289,10.289,10.289,10.2383,10.2187,10.2304,10.2695,10.289,10.289,5.2689,5.2828,5.3376,5.5118,5.5454,5.6107,5.8034,5.7707,5.8174,6.0745,6.2715,6.3547,6.2657,6.2667,6.2094,6.0426,0.0,0.0,0.0,5.6678,5.6115,5.5946,5.5897,5.5834,5.5794,5.5544,5.5884,5.6891,5.7367,5.8129,5.9192,6.0813,6.1846,6.2433,6.432,6.6559,6.8954,7.0462,7.3682,7.8358,8.6162,9.0598,9.3246,9.9684,10.299,10.4511,10.562,10.5804,10.4615,9.7558,9.4751,9.2957,8.5695,8.3327,0.0,0.0,0.0,0.0,0.0,0.0,0.0,0.0,0.0,7.5213,0.0,0.0,0.0,7.7935,7.8292,7.9118,8.2093,8.2915,8.4051,8.6831,8.9879,9.2107,9.2656,9.75,10.1719,10.3515,10.4297,10.4687,10.4687,10.4297,10.3711,10.3008,10.1992,10.1211,10.0586,10.1211,10.1484,10.1406,10.1484,10.1406,10.1094,9.9883,9.9883,10.1094,10.0703,10.1289,10.2695,10.2812,10.289,10.289,10.289,10.289,10.289,10.289,10.2812,10.2695,10.2812,10.25,10.1914,10.2617,10.289,10.289,5.3756,5.3683,5.4194,5.5974,5.6368,5.7323,5.9891,5.9655,6.0059,6.2417,6.3406,6.4521,6.6207,6.6297,6.6638,6.7617,6.4039,6.1985,6.2543,5.8803,5.6192,5.5417,5.5827,5.5862,5.5361,5.6098,5.7093,5.8249,5.8499,5.9513,6.1179,6.1407,6.2756,6.4955,6.4601,6.7062,7.1559,7.1847,7.6667,8.4523,8.8727,8.8823,8.7589,9.7683,10.1613,10.239,10.6985,10.8181,10.6784,0.0,9.8519,9.5033,0.0,8.7332,8.6141,8.2794,0.0,0.0,0.0,0.0,0.0,0.0,7.9619,0.0,7.4755,0.0,7.532,7.4194,0.0,7.3123,7.4297,0.0,0.0,7.7361,8.1549,8.4524,8.3864,8.7031,9.1406,9.6875,10.0195,10.1992,10.1992,9.9961,9.9804,10.2695,9.8672,9.7656,10.1289,10.1484,10.1211,10.0508,10.1211,10.0898,9.9297,9.9883,9.9844,9.9297,10.0781,10.1601,10.1797,10.25,10.289,10.289,10.289,10.289,10.289,10.289,10.2383,10.1797,10.2617,10.2812,10.2812,10.289,10.289,10.289,5.3885,5.4193,5.492,5.6275,5.7005,5.8316,6.1009,6.3114,6.4936,6.6449,6.6919,6.7825,6.9706,6.834,6.8138,7.011,6.8148,6.6292,6.5214,6.3474,0.0,6.0084,5.9542,5.923,5.9131,5.8683,5.8736,5.9306,5.9018,5.9771,6.1522,6.2566,6.3894,6.5497,6.7684,7.0969,7.4932,7.6188,7.9355,8.3898,8.8269,8.8831,8.8279,9.9942,10.5286,10.6806,10.9004,10.8887,10.7106,0.0,9.9124,0.0,0.0,0.0,0.0,8.6815,0.0,0.0,0.0,0.0,0.0,0.0,0.0,0.0,7.5602,0.0,7.4058,0.0,0.0,0.0,0.0,0.0,0.0,0.0,7.7305,7.8958,7.8585,8.1519,8.5623,9.0664,9.2539,9.4219,9.6172,9.5859,9.6328,9.8281,9.5976,9.5469,9.7773,9.9297,9.9922,9.957,9.9883,9.9726,9.9023,9.8867,9.9101,9.9765,10.0508,10.1406,10.2304,10.2187,10.2383,10.289,10.2383,10.2383,10.289,10.289,10.2695,10.2383,10.2812,10.2617,10.2187,10.2695,10.289,10.289,5.457,5.475,5.5403,5.6667,5.7827,5.9626,6.2697,6.5445,6.7718,6.9125,6.9148,6.9801,7.1923,7.1278,7.1694,7.4205,7.3569,7.2056,6.9735,6.8381,6.6314,6.3377,6.2729,6.2109,6.1396,6.0774,6.0375,6.0267,5.9825,6.0738,6.2933,6.4008,6.5459,6.7255,7.044,7.4174,7.8208,8.0015,8.2838,8.6364,9.0402,9.2477,9.4027,10.2787,10.8189,11.1018,11.0706,10.9581,10.748,10.3392,10.0097,0.0,9.5767,0.0,9.0898,0.0,0.0,0.0,8.3087,0.0,0.0,0.0,0.0,0.0,0.0,0.0,0.0,0.0,0.0,0.0,0.0,0.0,0.0,0.0,0.0,7.475,7.4748,7.6747,7.9799,8.414,8.5937,8.8047,9.1211,9.1054,9.1758,9.4297,9.2383,9.2383,9.539,9.7304,9.8437,9.8633,9.8867,9.8906,9.8633,9.8242,9.8554,9.9609,10.0117,10.0781,10.1797,10.1406,10.1719,10.25,10.1914,10.2109,10.289,10.2889,10.2889,10.2889,10.289,10.25,10.1992,10.2695,10.289,10.289,5.6267,5.5567,5.5532,5.7278,5.8947,6.1411,6.5526,6.5721,6.637,6.9026,6.8614,6.9171,7.2149,7.5924,7.9369,8.212,8.1297,7.9787,7.777,7.2724,6.7704,6.3001,0.0,6.3195,6.0127,6.1527,6.1982,6.1267,6.1363,6.3123,6.6412,6.5689,6.7561,7.1505,7.1835,7.5372,8.1117,8.2183,8.7569,9.5603,9.7457,10.1209,10.5706,10.5387,10.8388,11.2693,11.1914,0.0,0.0,10.4902,10.2603,0.0,0.0,0.0,0.0,0.0,0.0,0.0,0.0,0.0,0.0,8.2171,0.0,0.0,0.0,0.0,7.7662,0.0,0.0,0.0,0.0,0.0,0.0,0.0,0.0,0.0,0.0,7.1508,7.265,7.6992,8.1953,8.6015,8.8594,8.5078,8.5469,9.2187,8.7265,8.7617,9.6015,9.6523,9.6953,9.7734,9.8554,9.8594,9.7734,9.8554,9.8554,9.7812,9.9492,9.9883,9.914,9.9961,10.0781,10.1601,10.1599,10.2105,10.2886,10.2918,10.2915,10.2916,10.2884,10.2886,10.2887,10.289,10.289,10.289,5.8374,5.836,5.8283,5.8422,5.9445,6.1782,6.646,6.7894,7.0022,7.4321,7.4446,7.6183,8.1525,8.3107,8.479,8.7325,8.7645,8.5678,8.0828,7.8406,7.564,7.2164,6.964,6.8391,0.0,6.6218,6.4389,6.3036,6.3053,6.4289,6.6602,6.6911,6.9013,7.269,7.5099,7.926,8.4675,8.7524,9.1417,9.591,9.8246,10.2711,10.7796,10.6403,10.7693,11.0589,11.1992,11.1004,0.0,10.8215,10.4887,10.1188,10.1589,9.9588,9.698,9.6533,9.5816,0.0,0.0,0.0,9.2173,8.6155,0.0,0.0,0.0,0.0,0.0,0.0,0.0,0.0,0.0,0.0,0.0,0.0,0.0,0.0,0.0,7.0024,7.0816,7.3433,7.7343,7.9922,8.0195,7.9453,8.082,8.5429,8.3359,8.4648,9.1015,9.3515,9.5429,9.6875,9.8281,9.914,9.9414,9.9726,10.0,10.0312,10.0312,10.039,10.0703,9.9843,9.9919,10.0696,10.0688,10.1185,10.1997,10.2615,10.2781,10.2797,10.28,10.2885,10.289,10.289,10.289,10.289,6.0236,6.0282,6.0198,6.0094,6.1284,6.3565,6.7526,6.983,7.2864,7.7784,7.8951,8.1578,8.7533,8.8834,9.0063,9.2049,9.3152,9.0896,8.4153,8.4197,8.2434,7.7849,7.5803,7.4602,0.0,0.0,0.0,6.5817,6.5753,6.6638,6.8406,6.8675,7.0626,7.407,7.764,8.189,8.6671,9.1309,9.5252,9.8597,10.0518,10.3692,10.7215,10.6399,10.7519,10.9714,0.0,11.1413,10.9713,10.9882,10.7114,10.3797,10.4707,10.2482,9.9573,9.9692,9.8716,9.724,9.5579,9.5585,0.0,9.0153,8.8681,0.0,8.0776,0.0,0.0,0.0,0.0,0.0,0.0,0.0,0.0,0.0,0.0,0.0,0.0,6.92,6.9837,7.0925,7.3591,7.5116,7.4479,7.4685,7.6054,7.8822,7.9413,8.164,8.6172,9.0586,9.3789,9.5508,9.75,9.8945,9.9844,9.9844,10.0117,10.0703,10.0117,9.9961,10.0195,9.9058,9.9012,9.9861,10.0114,10.0682,10.1607,10.2394,10.2803,10.2785,10.2798,10.2885,10.289,10.289,10.289,10.289,6.1936,6.1515,6.1422,6.2336,6.437,6.6618,6.881,7.1346,7.4724,7.948,8.2025,8.5292,9.0191,9.3254,9.533,9.6298,9.7705,9.5449,8.8154,8.9868,8.7881,8.0409,8.213,8.1498,7.77,0.0,0.0,0.0,6.9401,7.0086,7.1764,7.0916,7.2341,7.5761,7.9388,8.3115,8.7097,9.3274,9.8864,10.3581,10.4107,10.4513,10.4816,10.5611,10.7715,11.0283,11.1882,11.179,11.0886,10.9994,10.9105,10.7915,10.6197,10.5183,10.43,10.3202,10.2416,10.1413,9.9802,9.8721,9.7322,9.4212,0.0,0.0,0.0,0.0,8.7319,0.0,0.0,0.0,0.0,0.0,0.0,0.0,0.0,0.0,0.0,6.8917,6.9399,6.9391,7.0776,7.167,7.1542,7.0919,7.1206,7.2842,7.5383,7.8398,8.1914,8.7773,9.1875,9.3711,9.6328,9.8125,9.9062,9.9062,9.9062,9.9062,9.9023,9.8554,9.7768,9.772,9.8138,9.8982,9.9838,10.0717,10.15,10.2384,10.2785,10.2793,10.2917,10.2886,10.2887,10.289,10.289,10.289,6.4163,6.5182,6.6031,6.638,6.674,6.7665,6.9684,7.2801,7.7139,8.3427,8.7188,9.1252,9.6276,9.9479,10.0685,9.9309,10.1077,9.9911,9.4457,9.4123,9.2889,9.0064,8.8302,8.7017,8.6144,8.0974,7.7487,7.5765,7.2597,7.1587,7.2643,7.248,7.3563,7.5778,8.0108,8.3734,8.7049,9.3267,9.8488,10.281,10.4682,10.5503,10.5817,0.0,10.9105,10.9984,11.172,11.1787,11.091,11.0592,10.9385,10.7989,10.7411,10.6593,10.5803,10.4793,10.4388,10.4098,10.3019,10.2187,10.1088,9.9104,9.6924,9.4459,0.0,0.0,0.0,0.0,0.0,0.0,0.0,0.0,0.0,0.0,0.0,0.0,0.0,0.0,6.9318,6.9327,6.858,6.8321,6.897,6.8261,6.878,7.1154,7.1989,7.4453,7.9219,0.0,8.8867,9.1875,9.5703,9.8437,9.9961,9.9961,9.9961,9.9961,9.9249,9.8808,9.8569,9.7884,9.7634,9.7877,9.9389,10.0208,10.0383,10.2,10.2686,10.2692,10.2787,10.2885,10.289,10.289,10.289,10.289,6.5765,6.7862,6.9403,6.9214,7.1398,7.3481,7.433,7.511,7.8296,8.5769,8.9715,9.3348,9.7365,10.1817,10.3998,10.2685,10.3505,10.2385,9.8373,9.8441,9.7795,9.5983,9.422,9.3088,9.2671,8.7007,0.0,7.9691,0.0,7.4029,7.3514,7.3232,7.4024,7.5836,8.0392,8.3779,8.6659,9.4654,9.9682,10.251,10.5207,10.6518,0.0,10.9183,11.0283,11.0784,11.2122,11.1989,11.119,11.0307,10.9609,10.8887,10.7989,10.742,10.6909,10.6387,10.5986,10.5688,10.5312,10.4585,10.3911,10.2991,10.139,9.9318,9.6777,9.6622,9.6305,0.0,0.0,0.0,0.0,0.0,0.0,0.0,0.0,0.0,0.0,0.0,6.9607,6.8823,6.8217,6.7881,6.8041,6.66,6.6418,6.8199,7.0145,7.2226,7.4414,0.0,8.707,8.9022,9.3593,9.7226,9.9726,9.8984,9.9023,9.9725,9.8771,9.8318,9.8299,9.77,9.7624,9.8054,9.9409,10.0184,10.0582,10.2116,10.269,10.2803,10.2799,10.2889,10.289,10.289,10.289,10.289,6.7179,6.9999,7.192,7.135,7.6658,8.1114,8.1375,7.9475,8.0798,8.8434,9.1903,9.4575,9.687,10.2299,10.5817,10.5507,10.5207,10.391,10.1092,10.2514,10.2196,9.9681,9.9606,9.892,9.7379,9.2821,8.7906,0.0,0.0,7.6618,7.4372,7.3746,7.4264,7.5932,8.0307,8.3715,8.6786,9.6427,10.1,10.2105,10.5605,10.7517,10.8517,11.0402,11.1409,11.2,11.28,11.2482,11.15,10.9898,10.9797,10.9906,10.8406,10.779,10.7713,10.7598,10.6976,10.6517,10.6689,10.621,10.5795,10.6004,10.5517,10.431,10.2082,10.11,10.0094,9.8376,9.6738,9.5401,0.0,0.0,0.0,0.0,0.0,0.0,0.0,0.0,7.0483,6.9092,6.9206,0.0,6.8207,6.6042,6.4977,6.5624,6.9299,7.1009,6.996,0.0,8.5702,8.6518,9.1326,9.5427,9.8628,0.0,9.7301,9.8623,9.7893,9.7544,9.7577,9.7557,9.7956,9.8748,9.9725,10.059,10.1383,10.2392,10.2787,10.2802,10.289,10.289,10.289,10.289,10.289,10.289,6.9657,7.2035,7.3743,7.3545,7.8585,8.4324,8.9216,9.0575,9.25,9.6628,9.9765,10.1805,10.2509,10.4999,10.5992,10.4411,10.5689,10.6193,10.5109,10.5309,10.4811,10.3195,10.3308,10.2091,9.9298,9.4377,9.0136,0.0,0.0,7.7532,7.5345,7.5291,7.5487,7.6101,7.9832,8.4507,9.0041,9.6183,9.9229,10.0415,10.5914,10.8086,10.8616,11.2394,11.2995,11.2012,11.3512,11.3009,11.1583,11.12,11.0696,10.9983,10.8983,10.8213,10.7598,10.678,10.6602,10.6517,10.6689,10.6587,10.68,10.7589,10.7603,10.7289,10.6979,10.7186,10.7012,10.5383,10.4181,10.2392,9.8841,0.0,0.0,0.0,0.0,0.0,0.0,0.0,7.2874,7.3833,7.1629,6.9733,6.8913,6.7917,6.7409,6.7516,6.8316,6.9898,7.239,0.0,8.311,0.0,9.1889,0.0,0.0,0.0,9.72,9.6767,9.7172,9.7333,9.7352,9.8029,9.8427,9.8699,10.0304,10.1084,10.1386,10.2297,10.2789,10.289,10.289,10.289,10.289,10.289,10.289,10.289,7.3783,7.5217,7.6933,7.9187,8.4301,9.0008,9.5769,9.9821,10.1588,9.9796,10.0404,10.1103,10.162,10.4502,10.6296,10.5897,10.6211,10.6589,10.7305,10.6604,10.5992,10.5595,10.4818,10.3599,10.1787,9.7207,9.2657,8.8155,0.0,0.0,7.554,7.5302,7.5487,7.6176,7.9748,8.5248,9.2062,9.5839,0.0,10.308,10.7213,10.9682,11.1014,11.3487,11.3594,11.2482,11.3689,11.2982,11.1519,11.1004,11.0483,11.0098,10.9713,10.8713,10.7713,10.7713,10.7102,10.6594,10.719,10.7404,10.7804,10.8708,10.9011,10.9011,10.8887,10.9208,10.9218,10.8406,10.7792,10.5988,10.0819,9.3407,0.0,0.0,0.0,0.0,0.0,0.0,7.6667,7.5914,7.3273,7.1329,7.0925,6.9807,6.8963,6.8685,6.8683,6.9835,7.2422,0.0,0.0,0.0,0.0,0.0,0.0,0.0,0.0,9.8219,9.7605,9.7766,9.8635,9.8541,9.8991,9.9935,10.0911,10.1486,10.21,10.2582,10.2807,10.289,10.289,10.289,10.289,10.289,10.289,10.289,7.8639,7.9305,8.1106,8.5699,9.0629,9.5561,10.0405,10.5903,10.7885,10.3013,10.1621,10.1217,10.1303,10.4513,10.6783,10.7403,10.6714,10.6998,10.8496,10.7524,10.7015,10.7214,10.5793,10.4588,10.3808,9.9845,9.5046,0.0,0.0,0.0,0.0,7.5388,7.5721,7.7283,8.1097,8.6685,0.0,0.0,10.11,10.62,10.8677,11.1003,11.2995,11.369,11.3389,11.2688,11.351,11.2785,11.14,11.0777,11.0508,11.0487,11.0294,10.9304,10.8401,10.8786,10.8115,10.7316,10.8115,10.8384,10.8683,10.9585,11.0097,11.0297,10.9996,11.0198,11.0282,10.9899,10.9595,10.7691,10.1703,9.6793,0.0,0.0,0.0,0.0,0.0,0.0,8.1169,7.8297,7.5919,7.3932,7.2432,7.1271,7.0295,6.9512,7.0021,7.0953,7.2395,0.0,0.0,0.0,0.0,9.2329,9.7658,0.0,9.7723,0.0,9.8437,9.853,9.9853,9.9297,9.9808,10.1102,10.1418,10.2007,10.2698,10.2803,10.289,10.289,10.289,10.289,10.289,10.289,10.3008,10.3203,8.3871,8.4597,8.6397,9.1434,9.5496,9.8897,10.1298,10.6396,11.0014,11.012,10.9782,10.9005,10.7495,10.7881,10.788,10.6902,10.7495,10.8301,10.889,10.8789,10.849,10.8019,10.7113,10.5792,10.429,10.0915,9.6835,0.0,0.0,0.0,0.0,0.0,7.759,8.0906,0.0,0.0,0.0,10.021,10.4311,10.6989,10.9592,11.1214,11.2012,11.2812,11.249,11.1812,11.2716,11.24,11.1612,11.1596,11.1605,11.1283,11.0513,11.0313,11.0083,10.9389,10.909,10.9002,10.9181,10.9287,10.962,11.0514,11.1414,11.1901,11.1103,11.2019,11.2699,11.1103,11.0109,10.7691,10.1703,10.0086,9.7417,0.0,0.0,0.0,0.0,0.0,8.6192,8.3346,0.0,0.0,7.192,7.1948,7.1736,7.0158,7.2325,7.3844,0.0,0.0,0.0,8.5759,0.0,9.1123,9.4042,9.6923,9.8486,9.8753,9.9313,9.9669,9.9819,10.0507,10.0906,10.1201,10.1989,10.2517,10.2813,10.2794,10.2807,10.289,10.289,10.289,10.289,10.289,10.3398,10.4101,9.18,9.1283,9.2237,9.7406,9.9042,10.0991,10.4996,10.8193,11.0379,11.0714,11.0392,10.9818,10.8787,10.8191,10.7599,10.72,10.7794,10.8394,10.8994,10.9914,10.982,10.8279,10.8408,10.7501,10.5181,10.3017,9.9804,0.0,0.0,0.0,0.0,0.0,0.0,0.0,0.0,9.2442,9.7971,10.1512,10.5108,10.8607,11.1193,11.2704,11.3391,11.4201,11.4304,11.391,11.4409,11.3987,11.31,11.2687,11.178,11.1018,11.1085,11.0498,10.9803,10.9919,10.961,10.9282,11.001,11.0305,11.0592,11.1515,11.2101,11.2411,11.1897,11.2289,11.2608,11.1816,11.1309,10.9995,10.6503,10.3317,10.0604,0.0,0.0,0.0,0.0,0.0,0.0,8.4196,0.0,7.6616,7.2944,7.1118,7.0341,7.0775,7.146,7.2577,0.0,0.0,0.0,8.4157,0.0,9.1315,9.5006,9.7906,9.9835,10.0807,10.0085,10.0307,10.1311,10.1084,10.1416,10.1993,10.2394,10.271,10.2818,10.2791,10.2807,10.289,10.289,10.289,10.289,10.289,10.3515,10.4297,9.8383,9.7514,9.8074,10.3087,10.3099,10.3698,10.7674,10.962,11.0507,11.0285,11.0399,11.0106,10.9192,10.8304,10.779,10.7692,10.8206,10.89,10.9625,11.0884,11.1,10.9507,10.9788,0.0,10.7388,10.5719,10.3203,9.9822,9.5233,0.0,0.0,0.0,0.0,0.0,9.2326,9.6942,10.2722,10.4111,10.7003,11.06,11.2184,11.3208,11.4007,11.4616,11.4902,11.51,11.5204,11.4906,11.4289,11.37,11.2715,11.1702,11.1789,11.1181,11.0514,11.0891,11.0505,11.0214,11.0905,11.1198,11.1406,11.2104,11.281,11.3204,11.2916,11.2884,11.2902,11.2185,11.1714,11.091,10.9585,10.6005,10.319,10.3189,0.0,0.0,0.0,0.0,0.0,0.0,8.0862,7.7169,7.4507,7.1407,7.0465,7.2524,7.1838,7.2259,0.0,0.0,0.0,0.0,0.0,0.0,0.0,9.8736,10.0889,10.2282,10.1117,10.12,10.2282,10.1684,10.18,10.2493,10.2589,10.2695,10.2707,10.2805,10.2794,10.2889,10.2889,10.289,10.289,10.289,10.3397,10.4294,10.2587,10.2805,10.3809,10.8393,10.8111,10.758,10.8709,11.0001,11.0707,11.0209,11.099,11.0896,10.9297,10.9087,10.8803,10.8197,10.8893,10.9895,11.1091,11.1803,11.208,0.0,0.0,11.1091,11.1015,10.8918,10.7024,10.5282,0.0,0.0,9.6142,0.0,9.4928,9.6707,10.0091,10.3902,10.8008,10.8809,11.0613,11.2889,11.2079,11.229,11.2893,11.3004,11.3514,11.4186,11.4395,11.4509,11.4489,11.458,11.4616,11.4211,11.2498,11.2486,11.3107,11.2286,11.2093,11.2093,11.2093,11.2083,11.2212,11.2298,11.3582,11.4687,11.3918,11.428,11.4305,11.2293,11.0616,10.9392,10.9204,10.7797,10.5184,10.0899,0.0,0.0,0.0,0.0,0.0,8.8196,8.5102,8.1524,7.6476,7.3675,7.3213,7.5753,7.452,0.0,0.0,0.0,0.0,8.4117,8.853,0.0,9.5878,9.9297,10.1394,10.2282,10.2282,10.2282,10.2288,10.2384,10.2411,10.2383,10.2489,10.2585,10.2585,10.2698,10.2698,10.2797,10.2797,10.2807,10.289,10.2803,10.3382,10.4201,10.7893,10.7974,10.8222,10.9389,10.9398,10.91,10.8914,10.9691,11.0392,11.0586,11.0585,11.0408,10.9801,10.9605,10.9289,0.0,11.0097,11.1093,0.0,11.2915,11.3307,11.2289,11.2607,11.241,11.1415,11.0793,11.0118,10.9413,0.0,0.0,0.0,10.0519,10.1702,10.2795,10.5604,10.852,11.1393,11.1585,11.2202,11.3022,11.3284,11.3603,11.3891,11.4617,11.5408,11.6094,11.6304,11.6311,11.6311,11.569,11.5892,11.5999,11.37,11.309,11.3107,11.2286,11.2093,11.2093,11.2093,11.221,11.2282,11.2313,11.281,11.3391,11.3608,11.3809,11.3391,11.2189,11.1402,11.0594,10.9418,10.8704,10.7509,10.4898,10.4581,0.0,0.0,0.0,0.0,0.0,8.2024,7.9061,7.6284,7.5866,0.0,0.0,7.7408,0.0,0.0,0.0,0.0,0.0,8.9831,0.0,9.6771,10.019,10.201,10.2282,10.2282,10.2282,10.2282,10.2305,10.2412,10.2417,10.2489,10.2595,10.2582,10.2695,10.2714,10.2807,10.2807,10.2807,10.2805,10.3391,10.4204,10.5008,11.0883,11.1294,11.1319,11.05,11.0507,11.0412,10.9395,11.0175,11.0888,11.0574,11.0899,11.0896,11.0196,11.0093,0.0,10.9713,11.08,11.1915,11.25,11.3919,11.4197,11.3419,11.3798,11.3903,11.3477,11.3391,0.0,11.3181,11.04,10.7579,10.4888,10.6782,10.7891,10.8402,11.0208,11.2096,11.3808,11.3496,11.3496,11.3895,11.4111,11.4519,11.4906,11.5514,11.6209,11.6991,11.721,11.7207,11.7082,11.6588,11.6704,11.682,11.4616,11.3803,11.361,11.2402,11.2093,11.2093,11.2093,11.2202,11.2321,11.2313,11.2687,11.3222,11.3885,11.3908,11.3488,11.2503,11.1722,11.0911,10.9694,10.9211,10.8603,10.7108,10.6213,10.4405,10.0904,0.0,0.0,0.0,0.0,0.0,0.0,8.0538,8.1315,0.0,8.2675,0.0,0.0,0.0,0.0,8.6171,9.2608,0.0,9.8597,10.1084,10.2282,10.2282,10.2282,10.2282,10.2282,10.2282,10.2305,10.2384,10.2404,10.2484,10.2491,10.2612,10.2683,10.2707,10.2697,10.2702,10.279,10.3594,10.4319,10.4918,11.2008,11.2901,11.3085,0.0,11.1482,0.0,10.9897,11.1288,11.1904,11.0487,11.1719,11.219,11.0498,11.0709,11.0898,11.0514,0.0,0.0,0.0,11.4589,11.5012,11.5104,11.5104,11.5683,11.6883,11.6516,11.6412,11.6712,11.4682,11.3184,11.2509,11.3078,11.3505,11.3515,11.3987,11.4704,11.5387,11.4588,11.4686,11.5282,11.4599,11.4815,11.561,11.5717,11.6296,11.7001,11.721,11.7207,11.7207,11.7207,11.7207,11.6898,11.5196,11.4693,11.4306,11.2595,11.2093,11.2209,11.2209,11.2285,11.2413,11.2491,11.3109,11.39,11.4397,11.4513,11.4198,11.2983,11.1486,11.029,11.0196,10.9483,10.8713,10.779,10.679,10.4289,9.9404,0.0,0.0,0.0,0.0,0.0,0.0,8.7075,8.7602,0.0,8.9465,0.0,0.0,0.0,8.7202,9.1812,9.6324,9.9479,10.1194,10.1888,10.2315,10.2282,10.2399,10.2399,10.2282,10.2282,10.2282,10.2288,10.2389,10.2489,10.2411,10.2586,10.2608,10.2596,10.2597,10.261,10.2797,10.3598,10.3901,10.4114,0.0,0.0,11.32,11.1796,11.1681,11.1304,11.0211,11.0875,11.171,11.1904,11.2507,11.2699,11.219,11.2887,11.3404,11.3324,11.2887,11.3519,11.5219,11.5699,11.6016,11.6104,11.6104,11.6511,11.732,11.7293,11.7588,11.8106,11.6898,11.6079,11.5812,11.5987,11.6007,11.5895,11.6118,11.6203,11.64,11.6182,11.5915,11.5483,11.5408,11.5495,11.5678,11.5781,11.6398,11.721,11.7198,11.7207,11.7207,11.7207,11.7207,11.7014,11.5892,11.5583,11.5118,11.2789,11.2488,11.2991,11.2991,11.3612,11.4313,11.429,11.4383,11.4087,11.2896,11.2993,11.3013,11.2084,11.1501,11.1015,11.0301,10.9983,10.9406,10.7905,10.4789,10.1394,9.825,9.4903,0.0,0.0,8.8843,8.996,9.0353,9.1415,9.2015,0.0,0.0,9.1666,0.0,9.2988,9.377,9.3629,9.7955,10.111,10.2914,10.2487,10.2201,10.2282,10.2987,10.2904,10.2282,10.2282,10.2282,10.2288,10.3089,10.3011,10.2389,10.3806,10.3599,10.2394,10.3,10.2917,10.2489,10.4005,10.4483,10.4714,11.3716,11.3876,11.368,11.2605,11.2413,11.2202,11.1287,11.1904,11.2413,11.2486,11.3207,11.3611,11.302,11.4006,11.469,11.4889,11.4794,11.5013,11.5993,11.6289,11.6286,11.6097,11.6511,11.7284,11.8283,11.8799,11.9116,11.9195,11.7811,11.7094,11.7009,11.6904,11.6804,11.6694,11.6792,11.6781,11.6704,11.6804,11.6816,11.6789,11.6412,11.6585,11.6902,11.6609,11.682,11.7207,11.7207,11.7207,11.7207,11.7207,11.7207,11.7005,11.6201,11.5892,11.5583,11.3803,11.361,11.3881,11.3881,11.4293,11.4786,11.4817,11.4998,11.4791,11.3387,11.3584,11.3797,11.2898,11.2411,11.1906,11.1406,11.0983,10.9983,10.7521,10.3779,10.0019,9.6288,9.3557,0.0,8.9998,9.2362,9.4471,9.5277,9.7244,9.7795,9.6168,9.6782,0.0,9.5627,9.8159,9.8895,9.7204,10.0292,10.2687,10.4,10.3619,10.3419,10.3405,10.391,10.3695,10.2904,10.3298,10.3184,10.2811,10.3709,10.3781,10.3293,10.4304,10.4085,10.3309,10.3315,10.3309,10.3386,10.4396,10.501,10.5404,11.4097,11.4297,11.4207,11.3421,11.3301,11.3111,11.2498,11.3176,11.3479,11.2789,11.4207,11.4782,11.3714,11.4894,11.5895,11.6106,11.6792,11.7016,11.6517,11.6789,11.6703,11.6103,11.699,11.8185,11.9487,12.0304,12.0502,12.0005,11.8087,11.7082,11.6998,11.6815,11.681,11.6987,11.6915,11.6985,11.7202,11.7212,11.7696,11.8315,11.7503,11.7714,11.8299,11.7594,11.7401,11.7401,11.7401,11.7285,11.7207,11.7207,11.7207,11.7091,11.6318,11.6085,11.6008,11.5196,11.4994,11.4898,11.4791,11.4883,11.502,11.4895,11.5315,11.5389,11.4317,11.4718,11.4911,11.4005,11.3214,11.2714,11.2714,11.2011,11.028,10.679,10.301,9.8942,9.4364,0.0,9.1899,9.3226,9.663,9.9461,10.0998,10.3098,10.3309,10.0991,10.2107,10.1884,9.9775,10.198,10.2798,10.1494,10.2782,10.3918,10.47,10.4785,10.482,10.479,10.4906,10.4506,10.3703,10.448,10.4299,10.3509,10.4407,10.459,10.441,10.4719,10.4597,10.4304,10.3692,10.3893,10.4487,10.4681,10.5192,10.5882,11.4373,11.4496,11.4192,11.3071,11.3078,11.3,11.2217,11.3225,11.4,11.3781,11.5781,11.6705,11.5395,11.7389,11.86,11.7904,11.9001,11.8987,11.7406,11.8301,11.8609,11.7809,11.8895,11.9784,12.0413,12.0193,12.012,12.0005,11.8193,11.7091,11.6798,11.6786,11.7188,11.7808,11.7892,11.8409,11.9213,11.9183,11.8911,11.8388,11.8195,11.8281,11.8415,11.8299,11.8213,11.8213,11.8213,11.7787,11.7207,11.7207,11.7207,11.7207,11.7005,11.7014,11.7014,11.682,11.668,11.6498,11.5687,11.6092,11.6488,11.5715,11.5505,11.5089,11.3512,11.3706,11.4005,11.3099,11.2791,11.2714,11.2714,11.2011,11.0088,10.5982,10.0712,9.6288,9.4018,0.0,9.3438,9.6548,10.1817,10.5197,10.5515,10.589,10.5582,10.4415,10.3886,10.3589,10.3204,10.4282,10.4896,10.4695,10.4393,10.4319,10.4504,10.5306,10.5313,10.4596,10.5293,10.5186,10.4312,10.4389,10.4412,10.4311,10.5093,10.4998,10.4288,10.5795,10.5482,10.4194,10.4811,10.4704,10.4297,10.4992,10.5417,10.5619,11.451,11.4395,11.4087,11.3598,11.3602,11.3595,11.3172,11.43,11.4996,11.4704,11.6498,11.7493,11.6688,11.8182,11.9208,11.8905,11.9714,11.9817,11.85,11.91,11.9086,11.8499,11.9613,12.0686,12.1708,12.1113,12.0495,12.0107,11.8611,11.7606,11.6904,11.6794,11.7206,11.8103,11.8116,11.87,11.9705,11.9703,11.9683,11.9799,11.9296,11.9412,11.9683,11.9296,11.8802,11.8493,11.8909,11.829,11.7314,11.8213,11.8213,11.7904,11.8406,11.8484,11.8484,11.8484,11.7791,11.6914,11.6382,11.6506,11.6707,11.6197,11.6006,11.5605,11.4407,11.4697,11.5021,11.4319,11.4099,11.3984,11.3483,11.2714,11.0598,10.5915,10.1289,0.0,0.0,9.5711,9.6806,10.1202,10.5293,10.7977,10.8401,10.8478,10.789,10.6608,10.6213,10.581,10.5321,10.6189,10.6392,10.6015,10.5806,10.54,10.5018,10.591,10.6081,10.5702,10.6089,10.5896,10.5084,10.5517,10.5506,10.5018,10.5799,10.5913,10.538,10.6314,10.6093,10.5284,10.5303,10.5408,10.5408,10.5386,10.5713,10.6185,11.4496,11.4195,11.4113,11.4,11.4015,11.4211,11.432,11.5386,11.6114,11.5807,11.7605,11.858,11.7819,11.8899,11.9675,11.9606,11.9989,12.0082,11.9701,11.9795,11.9593,11.8995,12.0089,12.1287,12.2612,12.148,12.0611,12.0005,11.8719,11.7695,11.6904,11.6781,11.729,11.8414,11.8396,11.9096,12.0313,12.0293,12.0611,12.0882,12.0302,12.0379,12.0882,12.0302,11.9385,11.869,11.9618,11.8787,11.7609,11.9106,11.9202,11.8804,11.9489,11.9683,11.9712,11.9589,11.8614,11.7411,11.7204,11.6985,11.6803,11.6608,11.6407,11.5984,11.5216,11.5701,11.6093,11.5389,11.5319,11.5099,11.4407,11.3599,11.1406,10.6482,0.0,0.0,0.0,9.9096,10.051,10.5413,10.8192,11.0011,11.072,11.0818,11.0098,10.8406,10.829,10.7905,10.701,10.7708,10.772,10.7113,10.6613,10.6292,10.5983,10.6292,10.6512,10.6712,10.6712,10.6391,10.5817,10.6482,10.6403,10.5707,10.6295,10.6517,10.6395,10.6395,10.6395,10.629,10.5803,10.5909,10.6381,10.5804,10.6102,10.6613,11.4216,11.4103,11.4026,11.3703,11.3886,11.432,11.4979,11.5977,11.6897,11.7215,11.9494,12.0618,11.8973,12.0392,12.1101,11.9986,12.0205,12.0394,12.0583,12.0788,12.0523,11.9496,12.0694,12.171,12.239,12.0693,11.9712,11.9503,11.7899,11.701,11.6691,11.6708,11.7594,11.9108,11.9214,12.0292,12.1908,12.2082,12.1694,12.0998,12.0882,12.0882,12.0998,12.0882,12.0189,11.9392,12.0202,11.9407,11.7984,11.9014,11.9385,11.9522,11.9617,11.9683,11.9685,11.9414,11.9004,11.8679,11.859,11.8007,11.7295,11.7321,11.6695,11.589,11.5111,11.5591,11.6108,11.5313,11.5186,11.5291,11.5215,11.4484,11.2483,10.8213,0.0,0.0,10.2404,10.2289,10.3788,10.79,11.0803,11.2401,11.2279,11.2418,11.1791,11.0098,10.9983,10.9598,10.879,10.8801,10.8801,10.8685,10.6613,10.6215,10.7797,10.6292,10.5783,10.6517,10.6517,10.6507,10.6292,10.6407,10.6397,10.631,10.6387,10.6415,10.6395,10.6395,10.6395,10.6405,10.629,10.6415,10.6415,10.63,10.6387,10.6397,11.4395,11.4206,11.4113,11.3912,11.399,11.452,11.5503,11.6697,11.7695,11.7996,11.9786,12.0508,11.9206,11.9878,12.042,12.0174,12.0296,12.0593,12.0903,12.1092,12.1117,12.0883,12.099,12.1182,12.1479,12.0187,11.9503,11.9503,11.8314,11.7586,11.7517,11.7506,11.8084,11.9212,11.9784,12.0795,12.199,12.1982,12.1887,12.1616,12.1507,12.1398,12.1398,12.0907,12.0111,11.9393,12.0315,11.9505,11.8316,12.0287,12.0508,12.0178,12.0809,12.0883,12.0786,12.0512,12.0295,12.021,12.0107,11.869,11.7412,11.7195,11.6608,11.5906,11.5587,11.5891,11.6104,11.5797,11.5886,11.5896,11.5317,11.5016,11.3791,11.0598,0.0,10.7723,10.7405,10.7189,10.8393,11.1499,11.2801,11.3581,11.4111,11.3302,11.2406,11.1791,11.1291,11.0906,11.0521,10.9983,10.9983,11.0521,10.8603,10.7912,10.8605,10.7912,10.77,10.8006,10.7505,10.7216,10.7213,10.6587,10.6395,10.6395,10.6395,10.6395,10.6395,10.6395,10.6395,10.6395,10.6395,10.6395,10.6395,10.6395,10.6395,10.6405,11.4395,11.4206,11.4103,11.4103,11.4195,11.48,11.6304,11.7411,11.8402,11.9003,12.0182,12.0607,11.9589,11.9895,12.0305,12.0281,12.0505,12.0698,12.0984,12.1297,12.1488,12.1695,12.1022,12.0598,12.0778,11.9597,11.9006,11.9006,11.7998,11.7616,11.7502,11.7799,11.8415,11.9196,12.0104,12.1018,12.1903,12.1787,12.1787,12.1815,12.1695,12.1518,12.1282,12.1012,12.0082,11.9206,12.0489,11.9901,11.891,12.0995,12.1204,12.0785,12.1396,12.1497,12.1292,12.1195,12.1118,12.0999,12.0796,11.9514,11.8,11.78,11.6986,11.6301,11.6607,11.6289,11.6084,11.6402,11.6714,11.6589,11.6005,11.6105,11.5602,11.3284,11.2209,11.1605,11.1297,11.1192,11.1892,11.3802,11.4286,11.4605,11.4915,11.4107,11.3313,11.3121,11.2615,11.2214,11.1895,11.1098,11.0906,11.1511,11.028,10.9713,10.9713,10.9213,10.8906,10.8906,10.829,10.8098,10.8021,10.7213,10.679,10.679,10.679,10.679,10.679,10.679,10.7021,10.7213,10.6895,10.7021,10.7213,10.7213,10.7213,10.7213,11.4118,11.4103,11.4103,11.4103,11.4488,11.5383,11.7317,11.8099,11.89,12.0092,12.1115,12.1307,12.0093,12.0786,12.1001,12.0411,12.0517,12.0796,12.0921,12.132,12.1697,12.181,12.0696,12.0211,12.05,11.8695,11.7792,11.7792,11.6907,11.6495,11.6484,11.7407,11.8292,11.91,12.0109,12.1001,12.181,12.1695,12.1695,12.1684,12.1608,12.1104,12.0589,12.1387,12.0508,11.8989,12.0717,12.0594,11.9799,12.0786,12.1182,12.1306,12.1488,12.1306,12.1093,12.1093,12.1011,12.0816,12.0816,12.0205,11.9517,11.9517,11.8218,11.7225,11.8103,11.7116,11.6213,11.7195,11.7412,11.741,11.7621,11.8112,11.8089,11.6402,11.5405,11.46,11.3807,11.3615,11.3912,11.4605,11.5523,11.5701,11.4796,11.4917,11.4687,11.3881,11.3917,11.3599,11.2703,11.1895,11.1511,11.1511,11.1511,11.1511,11.1511,10.979,10.8906,10.8906,10.8906,10.8906,10.8906,10.8098,10.7713,10.7713,10.7713,10.7713,10.7713,10.7713,10.8213,10.879,10.7982,10.8213,10.8906,10.8906,10.8906,10.8906,11.3588,11.3206,11.3187,11.3903,11.4504,11.5506,11.7096,11.8301,11.9402,12.0415,12.0898,12.0891,12.0303,12.0388,12.0616,12.0385,12.0688,12.1001,12.1409,12.1503,12.1585,12.1697,12.0704,12.0,11.9492,11.838,11.7792,11.7792,11.6907,11.6792,11.7407,11.8292,11.8908,11.9215,12.0503,12.1287,12.1518,12.1382,12.1307,12.1295,12.1208,12.1118,12.1,12.0578,12.0118,11.9596,12.022,12.0184,12.0006,12.0888,12.1092,12.1117,12.1013,12.1022,12.0916,12.0916,12.0809,12.0816,12.0816,12.0587,12.032,11.9708,11.8715,11.7989,11.8194,11.7996,11.7616,11.7206,11.7694,11.8077,11.7413,11.8013,11.8396,11.7898,11.722,11.6798,11.7105,11.5982,11.5485,11.6404,11.62,11.56,11.4796,11.4908,11.4581,11.3907,11.3917,11.3599,11.2703,11.2407,11.2011,11.1511,11.1407,11.1396,11.1511,11.1021,11.0714,11.0714,11.0098,10.979,10.979,10.8906,10.8213,10.7713,10.829,10.8213,10.7713,10.829,10.8713,10.8906,10.8598,10.8713,10.8906,10.8906,10.8906,10.8906,11.3091,11.2897,11.3014,11.3687,11.4383,11.5508,11.7198,11.7884,11.8891,12.0479,12.0415,12.0188,12.041,12.0402,12.0385,12.0584,12.0916,12.1208,12.1506,12.1615,12.1612,12.1612,12.11,12.0292,11.91,11.86,11.7984,11.7292,11.71,11.7292,11.7781,11.8581,11.9211,11.9519,12.0808,12.1283,12.1322,12.1182,12.1079,12.1104,12.1009,12.0806,12.058,12.0402,12.0095,11.9904,12.03,12.0389,12.031,12.0884,12.0984,12.0903,12.0806,12.0816,12.0816,12.0816,12.0816,12.0816,12.0816,12.0816,12.0702,12.009,11.9403,11.8906,11.9211,11.8783,11.8302,11.8108,11.8317,11.8382,11.8203,11.8599,11.9008,11.9008,11.851,11.8306,11.8393,11.7395,11.678,11.6916,11.6499,11.5889,11.51,11.5192,11.5112,11.4708,11.4495,11.3992,11.3108,11.2694,11.2102,11.1407,11.1302,11.1402,11.1511,11.1511,11.1511,11.1511,11.0983,11.0714,11.0714,10.979,10.9098,10.8713,10.9213,10.9098,10.8713,10.9213,10.9598,10.9906,10.9483,10.9598,10.9906,10.9906,10.9906,10.9906,11.2821,11.2897,11.3101,11.3505,11.4202,11.5403,11.7211,11.722,11.7794,12.0195,11.9593,11.9412,12.0282,12.0502,12.0584,12.0802,12.0986,12.1208,12.1396,12.1479,12.16,12.1612,12.1612,12.0793,11.9088,11.9204,11.8319,11.6588,11.7423,11.7796,11.7796,11.8514,11.931,12.0105,12.0901,12.1182,12.122,12.0999,12.0984,12.1009,12.0796,12.0403,11.9912,12.0691,12.05,11.9912,12.0691,12.0903,12.0816,12.0816,12.0816,12.0816,12.0816,12.0816,12.0816,12.0816,12.0816,12.0816,12.0816,12.0816,12.0816,12.0816,12.0205,11.9785,12.0587,11.9594,11.8718,11.949,11.9116,11.8794,11.949,11.96,11.9594,11.9594,11.9503,11.918,11.8314,11.8094,11.7694,11.6787,11.6789,11.6417,11.5592,11.5698,11.5919,11.6121,11.5418,11.4612,11.3692,11.2786,11.2117,11.1296,11.1296,11.1302,11.1489,11.15,11.1511,11.15,11.15,11.15,11.15,11.0703,11.0291,11.0224,11.0291,11.0291,11.0224,11.0291,11.0791,11.1395,11.0598,11.0791,11.1511,11.1511,11.1511,11.1511,11.2189,11.1892,11.2,11.3398,11.4183,11.502,11.6003,11.6978,11.7794,11.8485,11.9086,11.951,11.9691,12.0302,12.0812,12.0816,12.0905,12.1105,12.1396,12.1395,12.1506,12.16,12.1612,12.0796,11.8998,11.9601,11.9102,11.7423,11.7393,11.7498,11.7498,11.8305,11.9213,11.998,12.0682,12.0999,12.0999,12.0889,12.0782,12.082,12.0792,12.0785,12.0691,12.0883,12.0883,12.0691,12.0883,12.0903,12.0816,12.0816,12.0816,12.0816,12.0816,12.0816,12.0816,12.0816,12.0816,12.0816,12.0816,12.0816,12.0816,12.0816,12.0702,12.0587,12.0816,12.0511,12.009,11.9597,11.9913,12.0104,11.9597,12.0104,12.0511,12.0511,11.9916,11.951,11.9901,11.8694,11.7981,11.8409,11.7296,11.6288,11.5602,11.5201,11.5192,11.5907,11.5893,11.5188,11.3692,11.3276,11.2484,11.1197,11.1081,11.122,11.1205,11.1385,11.1391,11.1314,11.1314,11.1314,11.1314,11.1121,11.0704,11.0214,11.0906,11.0791,11.0301,11.0906,11.128,11.1511,11.1291,11.128,11.1511,11.1511,11.1511,11.1511,11.1815,11.1704,11.2011,11.3208,11.3805,11.4482,11.5718,11.6289,11.6907,11.7889,11.8503,11.9097,11.9479,12.032,12.0816,12.0816,12.0916,12.1102,12.1208,12.1296,12.1409,12.1421,12.1482,12.0984,12.0005,12.0287,11.9482,11.751,11.8316,11.8701,11.86,11.8984,11.9801,12.0989,12.1301,12.1706,12.2113,12.1991,12.181,12.1389,12.1389,12.1202,12.0889,12.0889,12.0889,12.0889,12.0889,12.0618,12.0205,12.0205,12.0205,12.0281,12.0702,12.0816,12.0816,12.0816,12.0816,12.0816,12.0816,12.0816,12.0816,12.0816,12.0816,12.0816,12.0816,12.0816,12.0702,12.0205,12.0205,12.0205,12.009,12.0205,12.0292,12.0603,12.0211,11.9995,12.019,11.9414,11.8691,11.8181,11.7482,11.659,11.5602,11.5301,11.5395,11.5802,11.5906,11.5422,11.412,11.4018,11.338,11.2215,11.1794,11.16,11.1686,11.1404,11.1212,11.1096,11.1212,11.1285,11.1189,11.1189,11.0977,11.0792,11.1204,11.1198,11.0906,11.128,11.1511,11.1511,11.1511,11.1511,11.1511,11.1511,11.1511,11.1511,11.1815,11.202,11.2395,11.3188,11.3482,11.4205,11.5699,11.5582,11.5893,11.7589,11.8111,11.86,11.9403,12.032,12.0816,12.0816,12.0889,12.0984,12.0999,12.1208,12.1296,12.1195,12.1308,12.1296,12.0977,12.1001,12.0005,11.7808,11.9302,11.9904,11.9789,11.9709,12.0613,12.222,12.1981,12.2497,12.33,12.33,12.2803,12.2001,12.2001,12.1504,12.0816,12.0816,12.0816,12.0816,12.0816,12.0205,11.9517,11.9708,11.9594,11.9708,12.0511,12.0816,12.0816,12.0816,12.0816,12.0816,12.0816,12.0816,12.0816,12.0816,12.0816,12.0816,12.0816,12.0816,12.0816,12.0816,12.0205,11.9899,12.0702,12.0205,11.9896,12.0493,12.0511,12.0379,12.0105,11.9913,11.9188,11.7712,11.7489,11.6903,11.5602,11.5501,11.5582,11.5696,11.5582,11.52,11.4512,11.4487,11.4106,11.3189,11.2487,11.2077,11.201,11.1406,11.1001,11.0893,11.1096,11.1193,11.1088,11.1111,11.1193,11.1307,11.1307,11.1402,11.1489,11.1489,11.1489,11.1489,11.1511,11.1511,11.1511,11.1511,11.1511,11.1511,11.2509,11.2392,11.2611,11.3817,11.3893,11.4103,11.521,11.5296,11.5693,11.7003,11.7784,11.86,11.9403,12.032,12.0816,12.0816,12.0792,12.0916,12.1194,12.1208,12.131,12.1422,12.1396,12.0913,11.9889,12.0708,12.0593,11.9391,11.9501,11.96,11.9611,11.952,12.0386,12.1991,12.2015,12.2497,12.33,12.33,12.2803,12.2001,12.2001,12.1504,12.0816,12.0816,12.0816,12.0816,12.0816,12.0205,11.9594,12.0396,12.009,11.9708,12.0511,12.0816,12.0816,12.0816,12.0816,12.0816,12.0816,12.0816,12.0816,12.0816,12.0816,12.0816,12.0816,12.0816,12.0816,12.0816,12.0702,12.0702,12.0816,12.0702,12.0688,12.0712,12.052,12.0289,12.0281,11.9388,11.8698,11.8597,11.7594,11.6503,11.5592,11.5004,11.5022,11.562,11.5085,11.4588,11.4487,11.4487,11.3799,11.2207,11.2207,11.1812,11.0908,11.1016,11.1004,11.0691,11.0906,11.089,11.0917,11.0987,11.1193,11.1307,11.1307,11.128,11.1291,11.1291,11.1291,11.1302,11.1517,11.1511,11.1511,11.1511,11.1511,11.1511,11.2392,11.2392,11.2593,11.3408,11.3588,11.4017,11.4698,11.5088,11.5488,11.6119,11.7413,11.8423,11.8791,12.0097,12.0892,12.1011,12.1011,12.1116,12.1195,12.1195,12.1195,12.1182,12.1182,12.0899,12.0302,12.07,12.079,12.0302,12.0277,12.0288,12.0205,12.0702,12.158,12.2688,12.3185,12.3911,12.4714,12.4714,12.3911,12.2688,12.2688,12.2001,12.0816,12.0816,12.0511,12.0014,11.9594,11.9403,11.9594,11.9899,11.9785,11.9708,12.0511,12.0816,12.0816,12.0816,12.0816,12.0816,12.0816,12.0816,12.0816,12.0816,12.0816,12.0816,12.0816,12.0816,12.0816,12.0816,12.0816,12.0816,12.0816,12.0816,12.0788,12.0703,12.0497,12.0188,11.9718,11.9109,11.8478,11.7604,11.6707,11.5897,11.5515,11.489,11.4779,11.562,11.4512,11.4206,11.5085,11.4283,11.3709,11.3404,11.2513,11.1902,11.1417,11.1085,11.0893,11.0805,11.0793,11.0818,11.088,11.0918,11.0987,11.1307,11.1201,11.1212,11.1319,11.1413,11.1291,11.1189,11.1407,11.1511,11.1511,11.1511,11.1511,11.1511]}]]